[[{"header":{"parameterUnit":"m.s-1","parameterCategory":1,"la1":30.6,"la2":29.2853,"lo1":-89.7004,"lo2":-87.6739,"dy":0.0162,"dx":0.0183,"nx":112,"ny":82,"refTime":"2026-02-22T12:00:00:Z","depth":0,"parameterNumber":2,"parameterNumberName":"U-component_of_WINDS"},"data":[0.0,0.0,0.0,0.0,0.0,0.0,0.0,0.0,0.0,0.0,0.0,0.0,0.0,0.0,0.0,0.0,0.0,0.0,0.0,0.0,0.0,0.0,0.0,0.0,0.0,0.0,0.0,0.0,0.0,0.0,0.0,0.0,0.0,0.0,0.0,0.0,0.0,0.0,0.0,0.0,0.0,0.0,0.0,0.0,0.0,0.0,0.0,0.0,0.0,0.0,0.0,0.0,0.0,0.0,0.0,0.0,0.0,0.0,0.0,0.0,0.0,0.0,0.0,0.0,0.0,0.0,0.0,0.0,0.0,0.0,0.0,0.0,0.0,0.0,0.0,0.0,0.0,0.0,0.0,0.0,0.0,0.0,0.0,0.0,0.0,0.0,0.0,0.0,0.0,0.0,2.2018,2.3335,2.6628,2.912,3.0113,2.9503,2.7256,2.2978,0.0,0.0,0.0,0.0,0.0,0.0,0.0,0.0,0.0,0.0,0.0,0.0,0.0,0.0,0.0,0.0,0.0,0.0,0.0,0.0,0.0,0.0,0.0,0.0,0.0,0.0,0.0,0.0,0.0,0.0,0.0,0.0,0.0,0.0,0.0,0.0,0.0,0.0,0.0,0.0,0.0,0.0,0.0,0.0,0.0,0.0,0.0,0.0,0.0,0.0,0.0,0.0,0.0,0.0,0.0,0.0,0.0,0.0,0.0,0.0,0.0,0.0,0.0,0.0,0.0,0.0,0.0,0.0,0.0,0.0,0.0,0.0,0.0,0.0,0.0,0.0,0.0,0.0,0.0,0.0,0.0,0.0,0.0,0.0,0.0,0.0,0.0,0.0,0.0,0.0,0.0,0.0,0.0,0.0,0.0,0.0,0.0,0.0,0.0,0.0,0.0,0.0,0.0,0.0,2.2587,2.7779,2.9385,3.0119,3.0186,2.9421,2.7409,2.3835,0.0,0.0,0.0,0.0,0.0,0.0,0.0,0.0,0.0,0.0,0.0,0.0,0.0,0.0,0.0,0.0,0.0,0.0,0.0,0.0,0.0,0.0,0.0,0.0,0.0,0.0,0.0,0.0,0.0,0.0,0.0,0.0,0.0,0.0,0.0,0.0,0.0,0.0,0.0,0.0,0.0,0.0,0.0,0.0,0.0,0.0,0.0,0.0,0.0,0.0,0.0,0.0,0.0,0.0,0.0,0.0,0.0,0.0,0.0,0.0,0.0,0.0,0.0,0.0,0.0,0.0,0.0,0.0,0.0,0.0,0.0,0.0,0.0,0.0,0.0,0.0,0.0,0.0,0.0,0.0,0.0,0.0,0.0,0.0,0.0,0.0,0.0,0.0,0.0,0.0,0.0,0.0,0.0,0.0,0.0,0.0,0.0,0.0,0.0,0.0,0.0,0.0,0.0,2.1596,2.3779,2.8802,2.9589,2.9868,3.0114,2.9392,2.7427,2.3959,2.2175,0.0,0.0,0.0,0.0,0.0,0.0,0.0,0.0,0.0,0.0,0.0,0.0,0.0,0.0,0.0,0.0,0.0,0.0,0.0,0.0,0.0,0.0,0.0,0.0,0.0,0.0,0.0,0.0,0.0,0.0,0.0,0.0,0.0,0.0,0.0,0.0,0.0,0.0,0.0,0.0,0.0,0.0,0.0,0.0,0.0,0.0,0.0,0.0,0.0,0.0,0.0,0.0,0.0,0.0,0.0,0.0,0.0,0.0,0.0,0.0,0.0,0.0,0.0,0.0,0.0,0.0,0.0,0.0,0.0,0.0,0.0,0.0,0.0,0.0,0.0,0.0,0.0,0.0,0.0,0.0,0.0,0.0,0.0,0.0,0.0,0.0,0.0,0.0,0.0,0.0,0.0,0.0,0.0,0.0,0.0,0.0,0.0,0.0,0.0,0.0,0.0,0.0,2.3716,2.5647,2.8955,2.9399,2.9635,3.0058,2.9027,2.7024,2.3903,2.1798,0.0,0.0,0.0,0.0,0.0,0.0,0.0,0.0,0.0,0.0,0.0,0.0,0.0,0.0,0.0,0.0,0.0,0.0,0.0,0.0,0.0,0.0,0.0,0.0,0.0,0.0,0.0,0.0,0.0,0.0,0.0,0.0,0.0,0.0,0.0,0.0,0.0,0.0,0.0,0.0,0.0,0.0,0.0,0.0,0.0,0.0,0.0,0.0,0.0,0.0,0.0,0.0,0.0,0.0,0.0,0.0,0.0,0.0,0.0,0.0,0.0,0.0,0.0,0.0,0.0,0.0,0.0,0.0,0.0,0.0,0.0,0.0,0.0,0.0,0.0,0.0,0.0,0.0,0.0,0.0,0.0,0.0,0.0,0.0,0.0,0.0,0.0,0.0,0.0,0.0,0.0,0.0,0.0,0.0,0.0,0.0,0.0,0.0,0.0,0.0,0.0,0.0,2.4925,2.8433,2.922,2.986,3.0194,3.0102,2.8045,2.5893,2.3837,2.0789,0.0,0.0,0.0,0.0,0.0,0.0,0.0,0.0,0.0,0.0,0.0,0.0,0.0,0.0,0.0,0.0,0.0,0.0,0.0,0.0,0.0,0.0,0.0,0.0,0.0,0.0,0.0,0.0,0.0,0.0,0.0,0.0,0.0,0.0,0.0,0.0,0.0,0.0,0.0,0.0,0.0,0.0,0.0,0.0,0.0,0.0,0.0,0.0,0.0,0.0,0.0,0.0,0.0,0.0,0.0,0.0,0.0,0.0,0.0,0.0,0.0,0.0,0.0,0.0,0.0,0.0,0.0,0.0,0.0,0.0,0.0,0.0,0.0,0.0,0.0,0.0,0.0,0.0,0.0,0.0,0.0,0.0,0.0,0.0,0.0,0.0,0.0,0.0,0.0,0.0,0.0,0.0,0.0,0.0,0.0,0.0,0.0,0.0,0.0,0.0,0.0,0.0,2.3752,2.711,2.8816,2.9342,2.9625,2.9769,2.7834,2.5544,2.3043,0.0,0.0,0.0,0.0,0.0,0.0,0.0,0.0,0.0,0.0,0.0,0.0,0.0,0.0,0.0,0.0,0.0,0.0,0.0,0.0,0.0,0.0,0.0,0.0,0.0,0.0,0.0,0.0,0.0,0.0,0.0,0.0,0.0,0.0,0.0,0.0,0.0,0.0,0.0,0.0,0.0,0.0,0.0,0.0,0.0,0.0,0.0,0.0,0.0,0.0,0.0,0.0,0.0,0.0,0.0,0.0,0.0,0.0,0.0,0.0,0.0,0.0,0.0,0.0,0.0,0.0,0.0,0.0,0.0,0.0,0.0,0.0,0.0,0.0,0.0,0.0,0.0,0.0,0.0,0.0,0.0,0.0,0.0,0.0,0.0,0.0,0.0,0.0,0.0,0.0,0.0,0.0,0.0,0.0,0.0,0.0,0.0,0.0,0.0,0.0,0.0,0.0,1.9638,2.3573,2.6815,2.8415,2.889,2.9076,2.8989,2.6848,2.4483,2.2131,0.0,0.0,0.0,0.0,0.0,0.0,0.0,0.0,0.0,0.0,0.0,0.0,0.0,0.0,0.0,0.0,0.0,0.0,0.0,0.0,0.0,0.0,0.0,0.0,0.0,0.0,0.0,0.0,0.0,0.0,0.0,0.0,0.0,0.0,0.0,0.0,0.0,0.0,0.0,0.0,0.0,0.0,0.0,0.0,0.0,0.0,0.0,0.0,0.0,0.0,0.0,0.0,0.0,0.0,0.0,0.0,0.0,0.0,0.0,0.0,0.0,0.0,0.0,0.0,0.0,0.0,0.0,0.0,0.0,0.0,0.0,0.0,0.0,0.0,0.0,0.0,0.0,0.0,0.0,0.0,0.0,0.0,0.0,0.0,0.0,0.0,0.0,0.0,0.0,0.0,0.0,0.0,0.0,0.0,0.0,0.0,0.0,0.0,0.0,0.0,0.0,0.0,1.9885,2.4863,2.8304,2.8118,2.8698,2.8699,2.7772,2.4879,2.2523,0.0,0.0,0.0,0.0,0.0,0.0,0.0,0.0,0.0,0.0,0.0,0.0,0.0,0.0,0.0,0.0,0.0,0.0,0.0,0.0,0.0,0.0,0.0,0.0,0.0,0.0,0.0,0.0,0.0,0.0,0.0,0.0,0.0,0.0,0.0,0.0,0.0,0.0,0.0,0.0,0.0,0.0,0.0,0.0,0.0,0.0,0.0,0.0,0.0,0.0,0.0,0.0,0.0,0.0,0.0,0.0,0.0,0.0,0.0,0.0,0.0,0.0,0.0,0.0,0.0,0.0,0.0,0.0,0.0,0.0,0.0,0.0,0.0,0.0,0.0,0.0,0.0,0.0,0.0,0.0,0.0,0.0,0.0,0.0,0.0,0.0,0.0,0.0,0.0,0.0,0.0,0.0,0.0,0.0,0.0,0.0,0.0,0.0,0.0,0.0,0.0,0.0,0.0,1.9742,2.394,2.7038,2.7479,2.7877,2.7852,2.7187,2.4998,2.2726,2.0525,0.0,0.0,0.0,0.0,0.0,0.0,0.0,0.0,0.0,0.0,0.0,0.0,0.0,0.0,0.0,0.0,0.0,0.0,0.0,0.0,0.0,0.0,0.0,0.0,0.0,0.0,0.0,0.0,0.0,0.0,0.0,0.0,0.0,0.0,0.0,0.0,0.0,0.0,0.0,0.0,0.0,0.0,0.0,0.0,0.0,0.0,0.0,0.0,0.0,0.0,0.0,0.0,0.0,0.0,0.0,0.0,0.0,0.0,0.0,0.0,0.0,0.0,0.0,0.0,0.0,0.0,0.0,0.0,0.0,0.0,0.0,0.0,0.0,0.0,0.0,0.0,0.0,0.0,0.0,0.0,0.0,0.0,0.0,0.0,0.0,0.0,0.0,0.0,0.0,0.0,0.0,0.0,0.0,0.0,0.0,0.0,0.0,0.0,0.0,0.0,0.0,0.0,1.9581,2.3253,2.5974,2.6522,2.7258,2.7283,2.6235,2.4467,2.244,2.012,0.0,0.0,0.0,0.0,0.0,0.0,0.0,0.0,0.0,0.0,0.0,0.0,0.0,0.0,0.0,0.0,0.0,0.0,0.0,0.0,0.0,0.0,0.0,0.0,0.0,0.0,0.0,0.0,0.0,0.0,0.0,0.0,0.0,0.0,0.0,0.0,0.0,0.0,0.0,0.0,0.0,0.0,0.0,0.0,0.0,0.0,0.0,0.0,0.0,0.0,0.0,0.0,0.0,0.0,0.0,0.0,0.0,0.0,0.0,0.0,0.0,0.0,0.0,0.0,0.0,0.0,0.0,0.0,0.0,0.0,0.0,0.0,0.0,0.0,0.0,0.0,0.0,0.0,0.0,0.0,0.0,0.0,0.0,0.0,0.0,0.0,0.0,0.0,0.0,0.0,0.0,0.0,0.0,0.0,0.0,0.0,0.0,0.0,0.0,0.0,0.0,0.0,1.9422,2.2634,2.4938,2.532,2.6564,2.6674,2.4984,2.3512,2.1848,1.9901,0.0,0.0,0.0,0.0,0.0,0.0,0.0,0.0,0.0,0.0,0.0,0.0,0.0,0.0,0.0,0.0,0.0,0.0,0.0,0.0,0.0,0.0,0.0,0.0,0.0,0.0,0.0,0.0,0.0,0.0,0.0,0.0,0.0,0.0,0.0,0.0,0.0,0.0,0.0,0.0,0.0,0.0,0.0,0.0,0.0,0.0,0.0,0.0,0.0,0.0,0.0,0.0,0.0,0.0,0.0,0.0,0.0,0.0,0.0,0.0,0.9855,0.9462,0.0,0.0,0.0,0.0,0.0,0.0,0.0,0.0,0.0,0.0,0.0,0.0,0.0,0.0,0.0,0.0,0.0,0.0,0.0,0.0,0.0,0.0,0.0,0.0,0.0,0.0,0.0,0.0,0.0,0.0,0.0,0.0,0.0,0.0,0.0,0.0,0.0,0.0,0.0,0.0,1.9412,2.1332,2.2972,2.4182,2.4605,2.4461,2.3656,2.2902,2.1631,1.9696,1.76,0.0,0.0,0.0,0.0,0.0,0.0,0.0,0.0,0.0,0.0,0.0,0.0,0.0,0.0,0.0,0.0,0.0,0.0,0.0,0.0,0.0,0.0,0.0,0.0,0.0,0.0,0.0,0.0,0.0,0.0,0.0,0.0,0.0,0.0,0.0,0.0,0.0,0.0,0.0,0.0,0.0,0.0,0.0,0.0,0.0,0.0,0.0,0.0,0.0,0.0,0.0,0.0,0.0,0.0,0.0,0.0,0.0,0.0,0.0,1.1902,1.1816,0.0,0.0,0.0,0.0,0.0,0.0,0.0,0.0,0.0,0.0,0.0,0.0,0.0,0.0,0.0,0.0,0.0,0.0,0.0,0.0,0.0,0.0,0.0,0.0,0.0,0.0,0.0,0.0,0.0,0.0,0.0,0.0,0.0,0.0,0.0,0.0,0.0,0.0,0.0,0.0,1.9333,2.0602,2.1845,2.3305,2.3873,2.3884,2.3244,2.28,2.1811,2.0134,1.8079,0.0,0.0,0.0,0.0,0.0,0.0,0.0,0.0,0.0,0.0,0.0,0.0,0.0,0.0,0.0,0.0,0.0,0.0,0.0,0.0,0.0,0.0,0.0,0.0,0.0,0.0,0.0,0.0,0.0,0.0,0.0,0.0,0.0,0.0,0.0,0.0,0.0,0.0,0.0,0.0,0.0,0.0,0.0,0.0,0.0,0.0,0.0,0.0,0.0,0.0,0.0,0.0,0.0,1.1736,1.2283,1.2544,1.2991,1.4128,1.5678,1.4204,1.4534,1.5931,1.341,0.0,0.0,0.0,0.0,0.0,0.0,0.0,0.0,0.0,0.0,0.0,0.0,0.0,0.0,0.0,0.0,0.0,0.0,0.0,0.0,0.0,0.0,1.6636,1.8245,1.8454,1.7861,1.6324,0.0,0.0,0.0,0.0,0.0,0.0,0.0,0.0,0.0,0.0,0.0,1.9267,2.024,2.1216,2.2559,2.3394,2.3611,2.3014,2.2736,2.2065,2.08,1.8899,1.7254,0.0,0.0,0.0,0.0,0.0,0.0,0.0,0.0,0.0,0.0,0.0,0.0,0.0,0.0,0.0,0.0,0.0,0.0,0.0,0.0,0.0,0.0,0.0,0.0,0.0,0.0,0.0,0.0,0.0,0.0,0.0,0.0,0.5972,0.6379,0.0,0.0,0.0,0.0,0.0,0.0,0.0,0.0,0.0,0.0,0.0,0.0,0.0,0.8561,0.9739,1.0847,1.1825,1.2671,1.3536,1.4178,1.464,1.555,1.6398,1.7155,1.7313,0.0,1.6543,1.5749,0.0,0.0,0.0,0.0,0.0,0.0,0.0,0.0,0.0,0.0,0.0,0.0,0.0,0.0,0.0,0.0,0.0,0.0,0.0,0.0,0.0,0.0,1.9211,1.9464,1.9073,1.8719,1.9034,1.8068,1.6721,1.5294,1.4709,1.4198,0.0,0.0,0.0,0.0,0.0,0.0,1.9392,2.024,2.1017,2.1855,2.2067,2.2082,2.1982,2.2099,2.1902,2.125,1.9907,1.8886,1.8279,1.6162,0.0,0.0,0.0,0.0,0.0,0.0,0.0,0.0,0.0,0.0,0.0,0.0,0.0,0.0,0.0,0.0,0.0,0.0,0.0,0.0,0.0,0.0,0.0,0.0,0.0,0.0,0.0,0.0,0.0,0.6224,0.6874,0.6983,0.7223,0.718,0.0,0.0,0.0,0.0,0.0,0.0,0.0,0.0,0.0,0.9417,0.9679,1.0714,1.2572,1.2856,1.3737,1.5255,1.5634,1.6067,1.6525,1.6973,1.7496,1.8103,1.8693,1.8738,1.8314,1.7301,1.6584,1.5978,0.0,0.0,0.0,0.0,1.5511,1.5638,1.7622,1.7804,1.7269,1.8058,0.0,0.0,0.0,0.0,0.0,0.0,0.0,1.8434,1.8499,1.9392,2.0363,2.0732,2.0602,2.0468,2.0761,2.0264,1.9083,1.6721,1.7209,1.7299,1.5163,1.5495,0.0,0.0,0.0,1.8422,1.9475,2.024,2.0984,2.1722,2.1906,2.1969,2.1969,2.2288,2.2205,2.1504,2.0246,1.9251,1.8673,1.6887,1.5593,0.0,0.0,0.0,0.0,0.0,0.0,0.0,0.0,0.0,0.0,0.0,0.0,0.0,0.0,0.0,0.0,0.0,0.0,0.0,0.0,0.0,0.0,0.0,0.0,0.0,0.0,0.0,0.0,0.7046,0.7628,0.7699,0.8171,0.8197,0.0,0.0,0.0,0.0,0.0,0.0,0.929,0.974,1.0326,1.1009,1.1494,1.2638,1.454,1.4523,1.5345,1.6991,1.6991,1.7251,1.7709,1.7869,1.8266,1.8895,1.9549,1.9963,2.0057,1.8717,1.8016,1.7719,1.687,1.6696,1.6995,1.7579,1.7502,1.747,1.975,1.9954,1.9371,2.0288,2.032,1.9844,1.9036,0.0,0.0,0.0,0.0,1.9921,2.044,2.0862,2.1296,2.1829,2.1959,2.1959,2.1959,2.2034,2.1262,1.8336,1.9269,1.9724,1.7106,1.75,0.0,1.743,1.8488,1.9465,1.9829,2.0529,2.1182,2.1739,2.1933,2.2018,2.2018,2.2385,2.2304,2.1567,2.0471,1.9549,1.8903,1.7449,1.6306,1.5545,0.0,0.0,0.0,0.0,0.0,0.0,0.0,0.0,0.0,0.0,0.0,0.0,0.0,0.0,0.0,0.0,0.0,0.0,0.0,0.0,0.0,0.0,0.0,0.0,0.0,0.0,0.0,0.0,0.0,0.8745,0.9403,0.0,0.0,0.0,0.0,0.9214,1.0227,1.0804,1.0617,1.0929,1.1274,1.1637,1.3019,1.3876,1.4121,1.548,1.646,1.6995,1.6995,1.7244,1.7714,1.8297,1.8925,1.9579,2.0187,2.0819,2.1313,2.0161,1.9396,1.8821,1.7824,1.7713,1.8132,1.8227,1.8523,1.897,1.961,1.9472,1.9304,2.107,2.1613,2.156,2.152,2.1063,0.0,0.0,2.0965,2.1421,2.1585,2.2017,2.2438,2.2607,2.2643,2.2643,2.2643,2.296,2.2507,2.0047,1.9878,1.988,1.9066,0.0,2.0032,1.9932,2.0892,2.1391,2.0735,2.1291,2.1763,2.1805,2.1803,2.1827,2.1827,2.2013,2.1904,2.1348,2.0773,2.021,1.9679,1.8174,1.6976,1.617,1.553,0.0,0.0,0.0,0.0,0.0,0.0,0.0,0.0,0.0,0.0,0.0,0.0,0.0,0.0,0.0,0.0,0.0,0.0,0.0,0.0,0.0,0.0,0.0,0.0,0.0,0.0,0.0,0.0,0.9818,1.0327,0.0,0.9807,1.0827,1.1392,1.1025,1.1688,1.2138,1.2231,1.2239,1.2555,1.3287,1.402,1.4872,1.5824,1.6667,1.7351,1.7895,1.8207,1.8432,1.8615,1.8821,1.9291,1.9961,2.0611,2.1258,2.1858,2.1535,2.109,2.0613,2.0588,2.048,2.0375,2.0737,2.0753,2.0757,2.1711,2.193,2.1867,2.2523,2.2495,2.2207,2.2207,2.2292,2.238,2.2478,2.2646,2.2778,2.2736,2.2946,2.3131,2.3098,2.3088,2.3088,2.3088,2.327,2.3051,2.1754,2.1675,2.1334,1.9764,2.0289,2.065,1.9897,2.0933,2.1523,2.0785,2.1348,2.1805,2.1805,2.1805,2.1847,2.1984,2.1626,2.1424,2.1483,2.0296,1.9641,1.9708,1.8558,1.736,1.6216,1.5522,1.4335,0.0,0.0,0.0,0.0,0.0,0.0,0.0,0.0,0.0,0.0,0.0,0.0,0.0,0.0,0.0,0.0,0.0,0.0,0.0,0.0,0.0,0.0,0.0,0.0,0.0,0.8813,0.9614,1.0566,1.1058,1.1161,1.0706,1.1738,1.2394,1.2284,1.2831,1.3225,1.3336,1.3466,1.3796,1.4351,1.5202,1.6086,1.7029,1.7707,1.8244,1.8636,1.8953,1.9108,1.9108,1.9108,1.9468,2.0145,2.0805,2.1487,2.2123,2.2442,2.2357,2.2046,2.2019,2.1807,2.1545,2.1895,2.1807,2.1601,2.2419,2.2963,2.3299,2.3293,2.3207,2.3105,2.3105,2.3366,2.3609,2.3493,2.358,2.3636,2.3371,2.3337,2.3356,2.3308,2.3297,2.3297,2.3297,2.3363,2.3225,2.2551,2.2423,2.2018,2.0701,2.0926,2.1183,2.0822,2.1472,2.1874,2.1483,2.1656,2.1805,2.1805,2.1805,2.1855,2.1991,2.1696,2.1369,2.1047,2.0435,1.9697,1.886,1.8756,1.7917,1.6238,1.5496,1.4713,1.3831,0.0,0.0,0.0,0.0,0.0,0.0,0.0,0.0,0.0,0.0,0.0,0.0,0.0,0.0,0.0,0.0,0.0,0.0,0.0,0.0,0.0,0.0,0.0,0.8332,0.9385,1.0269,1.0976,1.1624,1.1775,1.113,1.2425,1.3189,1.2853,1.363,1.4056,1.3859,1.4592,1.4944,1.4782,1.6513,1.7465,1.7498,1.8517,1.9042,1.9079,1.9069,1.9079,1.9106,1.9123,1.9494,2.0161,2.085,2.151,2.216,2.2836,2.312,2.2995,2.1958,2.1557,2.1557,2.1557,2.1557,2.1557,2.1571,2.232,2.3264,2.3291,2.3741,2.4257,2.4245,2.4257,2.4157,2.356,2.3722,2.3955,2.3435,2.3204,2.3119,2.326,2.329,2.3286,2.3286,2.3297,2.3094,2.2454,2.1995,2.1779,2.1965,2.1614,2.173,2.2927,2.2722,0.0,2.2859,2.2285,2.1821,2.1821,2.1821,2.1821,2.1821,2.221,2.1735,2.004,2.1145,2.045,1.7295,1.8773,1.859,1.6273,1.5628,1.5335,1.5367,0.0,0.0,0.0,0.0,0.0,0.0,0.0,0.0,0.0,0.0,0.0,0.0,0.0,0.0,0.0,0.0,0.0,0.0,0.0,0.0,0.0,0.6419,0.8101,0.935,1.0003,1.0805,1.2021,1.2543,1.2734,1.2536,1.3203,1.3615,1.3526,1.4289,1.4828,1.5018,1.5236,1.5687,1.6413,1.6557,1.6895,1.7417,1.7478,1.7764,1.8298,1.8497,1.8864,1.9404,1.9837,2.0242,2.067,2.1726,2.2152,2.2184,2.33,2.3499,2.307,2.2784,2.2671,2.2671,2.2671,2.2671,2.273,2.3228,2.3031,2.2642,2.3089,2.3339,2.342,2.3041,2.3431,2.3891,2.3393,2.3347,2.3389,2.3146,2.3133,2.3155,2.3096,2.3046,2.3012,2.3012,2.3093,2.3102,2.2915,2.2487,2.2106,2.202,2.1892,2.2146,2.3171,2.3208,2.307,2.291,2.2725,2.26,2.26,2.26,2.26,2.26,2.174,2.1044,2.0713,1.9557,1.8836,1.8691,1.8633,1.8094,1.7027,1.748,1.7482,0.0,0.0,0.0,0.0,0.0,0.0,0.0,0.0,0.0,0.0,0.0,0.0,0.0,0.0,0.0,0.0,0.0,0.0,0.0,0.0,0.0,0.0,0.7229,0.8722,0.9754,1.0436,1.1324,1.2648,1.2981,1.3164,1.3299,1.3683,1.3934,1.3934,1.4563,1.5036,1.5239,1.5618,1.6231,1.707,1.7289,1.7713,1.84,1.8383,1.857,1.9011,1.9162,1.9451,1.9891,2.0242,2.0488,2.0715,2.2037,2.2493,2.2419,2.3785,2.4126,2.376,0.0,0.0,0.0,0.0,2.3108,2.3168,2.3543,2.34,2.3103,2.3464,2.3581,2.3524,2.3207,2.3511,2.3879,2.3306,2.3338,2.346,2.3124,2.3079,2.315,2.3339,2.3354,2.3314,2.3328,2.3385,2.3358,2.3073,2.275,0.0,2.2666,2.2243,2.23,2.3435,2.3396,2.3233,2.3219,2.2962,2.2689,2.243,2.2405,2.2413,2.2434,2.1734,0.0,0.0,0.0,1.9422,1.9785,1.8855,0.0,0.0,0.0,0.0,0.0,1.9873,0.0,0.0,1.8385,1.8318,0.0,0.0,0.0,0.0,0.0,0.0,0.0,0.0,0.0,0.0,0.0,0.0,0.0,0.0,0.0,0.0,0.7993,0.8949,0.9816,1.0708,1.1707,1.2869,1.3131,1.3322,1.3633,1.3966,1.4155,1.4155,1.4678,1.5007,1.5007,1.5815,0.0,0.0,0.0,1.9004,1.9657,1.9958,2.0155,2.0252,2.0288,2.0345,2.0468,2.0504,2.0519,2.0557,2.2082,2.2679,2.2723,2.4259,2.4854,2.4691,2.3622,2.3195,2.3195,2.3133,2.3108,2.3108,2.3108,0.0,0.0,2.4,2.4044,2.4102,2.4015,2.4031,2.3971,2.329,2.3492,2.3778,2.3244,2.3064,2.3149,2.3683,2.3807,2.3828,2.3892,2.3895,2.3719,2.312,2.3015,2.3118,2.3458,2.2683,2.2452,2.3806,2.3557,2.3351,2.3731,2.3219,2.2613,2.2075,2.2041,0.0,2.2031,2.2206,2.1874,2.0884,2.1174,2.1106,2.0524,1.9477,1.9496,2.0784,2.1028,2.1115,2.1032,2.1811,2.1874,2.1225,2.0687,2.0105,0.0,0.0,0.0,0.0,0.0,0.0,0.0,0.0,0.0,0.0,0.0,0.0,0.0,0.0,0.0,0.736,0.8308,0.9286,1.0111,1.0696,1.1416,1.2338,1.331,1.3942,1.4005,1.4314,1.4502,1.4502,1.5199,1.563,1.563,1.5903,1.6545,1.7632,1.7467,1.7813,1.8741,1.8506,1.8713,1.9344,1.9532,0.0,2.0818,2.1142,2.1174,2.1073,2.2807,2.3193,2.2746,2.4656,2.518,2.4741,2.4076,2.3841,2.3778,2.3283,2.3108,2.3108,2.3108,2.317,2.329,2.329,2.3662,2.4,2.3454,2.3677,0.0,2.329,2.3184,2.3244,2.3138,2.3098,2.311,2.3235,2.3219,2.3313,2.3789,2.39,2.3867,2.3736,2.3717,2.3566,2.311,2.3152,2.3577,2.4563,2.4612,2.449,2.4358,2.4209,2.4107,2.4058,2.4144,2.3991,2.3465,2.3553,2.3013,2.16,2.1345,2.1018,2.0512,2.1027,2.1164,2.0807,2.2025,2.2376,2.1791,2.2546,2.2828,2.2675,2.2088,2.1734,0.0,0.0,0.0,0.0,0.0,0.0,0.0,0.0,0.0,0.0,0.0,0.359,0.4194,0.0,0.6944,0.7674,0.8644,0.9481,1.0024,1.0708,1.1515,1.2521,1.3355,1.3955,1.4224,1.4466,1.4605,1.4605,1.507,1.5355,1.5355,1.5665,1.6401,1.7602,1.7779,1.8378,1.9488,1.9523,1.9745,2.0139,2.0263,2.0563,2.1079,2.1693,2.1881,2.1839,2.3527,2.4029,2.3752,2.5174,2.5588,2.5302,2.4756,2.4484,2.4352,2.4064,2.3948,2.3948,2.3948,2.3948,2.3948,2.3948,2.4006,2.3991,2.3656,2.3576,2.3529,2.3198,2.3108,2.3108,2.3108,2.29,2.2848,2.3462,2.3339,2.3339,2.4212,2.4408,2.4391,2.4351,2.4343,2.4202,2.3732,2.3851,2.4115,2.4452,2.4643,2.4656,2.4383,2.4358,2.425,2.3986,2.4042,2.3992,2.3761,2.3836,2.3431,2.2319,2.2284,2.2225,2.2061,2.2767,2.3132,2.3108,2.385,2.4061,2.3705,2.4061,2.4254,2.4236,2.3939,2.3618,0.0,0.0,0.0,0.0,0.0,0.0,0.0,0.0382,0.0684,0.1213,0.2258,0.3377,0.4308,0.5415,0.6644,0.8038,0.8832,0.9435,0.9931,1.0649,1.1533,1.2561,1.3072,1.3584,1.4219,1.4327,1.4426,1.4543,1.4721,1.4806,1.4834,1.5245,1.6065,1.7323,1.799,1.8878,2.0058,2.0631,2.0886,2.0886,2.1051,2.1157,2.1224,2.1826,2.2214,2.2496,2.4022,2.4689,2.4761,2.5571,2.591,2.5873,2.5414,2.5156,2.4994,2.4766,2.4678,2.4678,2.4678,2.4678,2.4694,2.4739,2.4455,2.4108,2.4139,2.3825,2.3409,2.3296,2.3271,2.3246,2.3133,2.2782,2.2703,2.3664,2.3536,2.3468,2.4517,2.4747,2.4766,2.4814,2.4823,2.4744,2.4519,2.4486,2.4402,2.4116,2.4364,2.4501,2.4287,2.4318,2.4176,2.3708,2.3717,2.3867,2.406,2.3858,2.3588,2.3226,2.3382,2.3599,2.38,2.4218,2.473,2.5395,2.5395,2.5395,2.5395,2.5395,2.5482,2.5623,2.5623,2.5259,-0.2436,-0.1537,-0.0452,-0.0804,-0.0072,0.0762,0.0,0.0994,0.1225,0.1932,0.354,0.4803,0.4771,0.6109,0.7575,0.8637,0.8602,0.8878,1.0153,1.0495,1.0838,1.1506,1.2049,1.2742,1.3777,1.3676,1.3772,1.4384,1.4443,1.4512,1.4622,1.4695,1.5397,1.6824,1.6963,1.7519,1.853,1.9374,1.9785,1.9785,2.0557,2.1022,2.1205,2.1119,2.1559,2.2496,2.4022,2.4689,2.4761,2.5571,2.591,2.5881,2.5819,2.5792,2.5637,2.4636,2.4263,2.4263,2.4263,2.4263,2.4296,2.4471,2.4483,2.4482,2.4655,2.465,2.4515,2.4026,2.3904,2.3791,2.3233,2.3058,2.3035,2.3173,2.315,2.3308,2.4028,2.42,2.4328,2.4807,2.4891,2.4861,2.4773,2.4796,2.4649,2.4105,2.4297,2.4498,2.4471,2.4726,2.4912,2.4904,2.501,2.5191,2.5447,2.4237,2.3785,2.4608,2.415,2.4058,2.4567,2.4798,2.5077,2.5388,2.5395,2.5395,2.5395,2.5395,2.5763,2.6465,2.6465,2.6044,-0.1864,-0.1516,-0.1086,-0.0547,-0.0226,0.0056,0.0379,0.058,0.0864,0.1441,0.2676,0.376,0.4144,0.519,0.6416,0.7708,0.7862,0.831,0.9681,0.9542,0.9583,1.0425,1.0384,1.098,1.2743,1.3136,1.3392,1.3677,1.4211,1.4535,1.4598,1.4962,1.5623,1.6601,1.6813,1.7555,1.8858,1.9244,1.9687,2.0187,2.0547,2.077,2.0867,2.1262,2.1909,2.2782,2.3438,2.3701,2.3738,2.4077,2.4468,2.4844,2.4844,2.4844,2.4874,2.5112,2.5188,2.5188,2.5188,2.5188,2.5193,2.529,2.5097,2.4855,2.495,2.4731,2.4405,2.4182,2.4201,2.4231,2.3978,2.3458,2.309,2.3519,2.3047,2.2707,2.3422,2.382,2.4215,2.4848,2.5212,2.541,2.5379,2.54,2.5218,2.4607,2.4814,2.518,2.56,2.5399,2.521,2.511,2.522,2.5352,2.5454,2.4922,2.4786,2.5286,2.5235,2.5329,2.5687,2.6149,2.6455,2.6558,2.6689,2.6736,2.6736,2.6736,2.7157,2.7929,2.7455,2.7308,-0.1906,-0.1636,-0.1392,-0.0481,-0.0246,-0.0214,-0.0046,0.0145,0.0392,0.0721,0.1751,0.2759,0.3318,0.425,0.5386,0.6754,0.703,0.752,0.8839,0.8622,0.8626,0.9474,0.9179,0.9616,1.1378,1.226,1.2819,1.3014,1.3952,1.4539,1.4573,1.5106,1.5654,1.6173,1.6424,1.7094,1.8215,1.8696,1.9273,1.9883,2.0362,2.0605,2.0625,2.1423,2.2002,2.236,2.2809,2.2872,2.2697,2.292,2.3316,2.3811,2.3811,2.3811,2.3902,2.4784,2.5099,2.5135,2.5329,2.54,2.5453,2.5723,2.5553,2.5252,2.5303,2.5021,2.4648,2.4484,2.4546,2.4637,2.4459,2.3845,2.3409,2.3991,2.3308,2.27,2.3293,2.3736,2.423,2.487,2.5442,2.5829,2.5809,2.579,2.5645,2.521,2.5355,2.5676,2.6138,2.5898,2.5695,2.5669,2.5761,2.5831,2.5831,2.5874,2.5963,2.6105,2.6258,2.651,2.6933,2.7424,2.7771,2.8004,2.8019,2.8035,2.8035,2.7814,2.7999,2.8544,2.7964,2.8122,-0.3292,-0.2102,-0.1081,-0.0915,0.0,0.0703,0.0134,0.0,0.0019,0.0037,0.1408,0.2561,0.2454,0.3737,0.5156,0.6253,0.6151,0.6394,0.7668,0.8002,0.8259,0.8685,0.889,0.9183,0.9631,1.0813,1.1852,1.2558,1.3661,1.4376,1.4494,1.4765,1.5087,1.5422,1.5444,1.5465,1.5527,1.7196,1.8058,1.8098,1.9795,2.0605,2.0625,2.1423,2.1385,2.075,2.2322,2.2566,2.1899,2.2678,2.3013,2.3032,2.3032,2.3032,2.305,2.3069,2.3087,2.3187,2.392,2.4145,2.4319,2.5294,2.5594,2.5616,2.5816,2.5856,2.575,2.5222,2.5074,2.4952,2.4366,2.4177,2.4214,2.443,2.4057,2.371,2.3926,2.4034,2.428,2.4881,2.5481,2.5884,2.5817,2.579,2.579,2.5776,2.5774,2.5706,2.5462,2.6047,2.6607,2.6993,2.7095,2.7142,2.7142,2.7137,2.7237,2.7441,2.7095,2.7316,2.8296,2.8365,2.8745,2.9522,2.9087,2.886,2.886,2.807,2.7701,2.7744,2.7701,2.8122,-0.3454,-0.2942,-0.2491,-0.1969,-0.1184,-0.0618,-0.0816,-0.0412,0.0,0.0,0.047,0.1037,0.1578,0.2409,0.3515,0.5087,0.5204,0.5594,0.7,0.7152,0.7329,0.7961,0.8224,0.8508,0.8966,1.0475,1.1533,1.1786,1.3433,1.4452,1.4504,1.4977,1.5272,1.5402,1.541,1.5686,1.6263,1.6841,1.7715,1.8875,2.005,2.0605,2.0595,2.0559,2.0393,2.0175,2.0703,2.0787,2.0573,2.1168,2.1542,2.1745,2.1745,2.1573,2.1344,2.1344,2.1011,2.0893,2.3283,2.409,2.4246,2.5123,2.54,2.5418,2.5483,2.55,2.5464,2.5282,2.5338,2.5388,2.5188,2.4871,2.4653,2.485,2.4394,2.3875,2.3816,2.4096,2.437,2.4402,2.5147,2.5781,2.584,2.6196,2.6458,2.6458,2.6691,2.6745,2.6441,2.683,2.7147,2.7103,2.7115,2.7137,2.7137,2.7137,2.6994,2.6663,2.6643,2.6687,2.68,2.7112,2.7501,2.8005,2.7977,2.7999,2.8105,2.8323,2.8726,2.9291,2.9291,2.9702,-0.3524,-0.3373,-0.3236,-0.2539,-0.2015,-0.165,-0.1658,-0.1187,-0.0688,-0.0444,-0.0175,0.0257,0.1074,0.1877,0.2751,0.3744,0.4308,0.4905,0.5686,0.6047,0.6529,0.7316,0.7659,0.8056,0.8639,1.0006,1.0981,1.1279,1.309,1.4269,1.4484,1.5059,1.541,1.541,1.541,1.5665,1.6221,1.6535,1.7486,1.9062,1.9918,2.0273,2.0136,1.9814,1.9697,1.9697,1.9697,1.9775,1.9913,2.0234,2.0578,2.09,2.0737,2.0504,2.0276,2.0114,1.9739,1.9647,2.1999,2.2813,2.2992,2.4032,2.4313,2.4331,2.4836,2.4831,2.469,2.4936,2.499,2.496,2.496,2.4706,2.4534,2.4915,2.4481,2.4046,2.4224,2.4558,2.4787,2.4679,2.5603,2.6344,2.6217,2.6538,2.6792,2.6792,2.7144,2.7377,2.7267,2.7614,2.7859,2.7818,2.7804,2.7804,2.7804,2.7604,2.7289,2.6904,2.6657,2.6588,2.6717,2.7007,2.7419,2.7975,2.7951,2.8107,2.8452,2.8633,2.9157,2.9992,2.9992,3.0394,-0.3645,-0.3483,-0.3349,-0.2755,-0.2498,-0.2369,-0.2366,-0.2232,-0.191,-0.1269,-0.0567,0.0147,0.0867,0.2057,0.2775,0.2372,0.3534,0.4349,0.3921,0.4868,0.5931,0.6808,0.725,0.7812,0.8642,0.9411,1.0191,1.1041,1.2634,1.3857,1.4494,1.5087,1.541,1.541,1.541,1.541,1.541,1.6288,1.7344,1.8553,1.943,1.9678,1.9305,1.9286,1.9248,1.9248,1.9248,1.9492,1.9864,1.9883,2.0156,2.0527,2.0078,1.9883,1.9815,1.9434,1.9277,1.9385,2.0168,2.0481,2.0737,2.2172,2.2481,2.255,2.3977,2.392,2.352,2.4259,2.4133,2.3806,2.3806,2.3806,2.396,2.4607,2.4361,2.4213,2.5044,2.5342,2.5487,2.566,2.6728,2.7437,2.689,2.6853,2.6894,2.6894,2.7218,2.7569,2.7864,2.8243,2.8657,2.9052,2.9098,2.9098,2.9098,2.8521,2.8137,2.8105,2.7208,2.7084,2.7948,2.8005,2.8442,2.9376,2.8951,2.9081,2.9802,2.9071,2.9106,2.9854,2.9889,3.0289,-0.4617,-0.4626,-0.4593,-0.4286,-0.374,-0.3276,-0.3269,-0.2627,-0.1957,-0.1675,-0.1392,-0.0993,-0.0362,0.0878,0.1912,0.2244,0.3616,0.4623,0.455,0.5287,0.6088,0.6819,0.725,0.7868,0.8829,0.911,0.9708,1.0858,1.245,1.379,1.4749,1.5183,1.541,1.541,1.541,1.541,1.541,1.6613,1.7386,1.7713,1.8892,1.9413,1.9296,1.8937,1.8781,1.8781,1.8781,1.9035,1.9473,1.9785,1.998,2.0068,1.9961,1.9727,1.9434,1.9344,1.9082,1.8865,1.9413,2.0009,2.0648,2.1648,2.1899,2.2027,2.2891,2.3028,2.3039,2.3769,2.3886,2.3806,2.3806,2.3806,2.383,2.4012,2.394,2.3946,2.4249,2.5168,2.5868,2.5659,2.6785,2.7838,2.8139,2.8191,2.8216,2.8216,2.8131,2.8034,2.7912,2.8243,2.8657,2.9052,2.9098,2.9098,2.9098,2.894,2.8636,2.8126,2.7911,2.7805,2.7857,2.7954,2.8388,2.9227,2.904,2.9205,2.9802,3.0091,3.0369,3.0629,3.1229,3.162,-0.5175,-0.5167,-0.5104,-0.5145,-0.4604,-0.4081,-0.4117,-0.3517,-0.2836,-0.2373,-0.2038,-0.1623,-0.0952,0.049,0.1602,0.1676,0.3332,0.4523,0.4312,0.4977,0.5844,0.6784,0.7172,0.7795,0.8903,0.908,0.9632,1.0848,1.2239,1.3447,1.4414,1.5062,1.541,1.541,1.541,1.5502,1.5715,1.6822,1.7394,1.7416,1.8485,1.8906,1.8721,1.8459,1.8342,1.8342,1.8342,1.8586,1.9005,1.924,1.9562,1.9874,1.9707,1.9609,1.9541,1.9374,1.9131,1.8937,1.9209,1.9604,2.0076,2.0645,2.0814,2.1004,2.2043,2.2339,2.2503,2.3523,2.3637,2.3457,2.3457,2.3457,2.3457,2.3457,2.3457,2.355,2.3915,2.4628,2.5317,2.5809,2.68,2.7862,2.8829,2.8841,2.8782,2.9058,2.8897,2.8752,2.8773,2.8612,2.8657,2.9052,2.9098,2.9098,2.9098,2.8841,2.8494,2.811,2.7854,2.7716,2.7719,2.7774,2.8217,2.9057,2.8987,2.9364,3.0196,3.0898,3.1252,3.1305,3.2086,3.2285,-0.5494,-0.5343,-0.5227,-0.5499,-0.5151,-0.4757,-0.4815,-0.45,-0.3978,-0.3187,-0.2569,-0.1963,-0.1243,0.0375,0.1474,0.1103,0.2904,0.4214,0.3801,0.4451,0.5458,0.6745,0.7081,0.7688,0.8919,0.9227,0.978,1.082,1.2031,1.3072,1.3879,1.4787,1.5305,1.541,1.541,1.5632,1.6091,1.691,1.7335,1.7414,1.816,1.8342,1.7991,1.7991,1.7991,1.7991,1.7991,1.8235,1.8607,1.8666,1.9181,1.9864,1.957,1.9696,1.9961,1.959,1.9442,1.9393,1.9452,1.9403,1.9355,1.9624,1.9739,1.9983,2.1424,2.1867,2.2113,2.3375,2.3466,2.3188,2.3115,2.3103,2.3079,2.3019,2.2947,2.3039,2.3644,2.3969,2.4573,2.612,2.6877,2.7712,2.9028,2.8929,2.8855,2.9406,2.9267,2.9251,2.9715,2.9106,2.8797,2.9206,2.9161,2.9098,2.9098,2.8557,2.8237,2.8237,2.7778,2.7651,2.7953,2.807,2.85,2.9336,2.9345,2.9909,3.1,3.1596,3.1873,3.1899,3.2488,3.2403,-0.5624,-0.5549,-0.5426,-0.5435,-0.5195,-0.496,-0.497,-0.457,-0.4092,-0.3724,-0.3089,-0.2404,-0.1776,-0.0484,0.077,0.167,0.281,0.3815,0.4424,0.4702,0.5354,0.6731,0.7081,0.7733,0.911,0.9423,0.9799,1.0371,1.1849,1.31,1.4023,1.4392,1.4824,1.5389,1.541,1.5632,1.6091,1.6575,1.7018,1.7414,1.7873,1.8059,1.7991,1.7991,1.7991,1.7991,1.7991,1.8235,1.8627,1.9023,1.9463,1.9923,2.0253,2.0429,2.0459,2.039,2.0136,1.9853,2.0244,1.9902,1.9354,1.9729,1.9873,2.0081,2.1298,2.1886,2.2291,2.3085,2.3755,2.4141,2.3753,2.3661,2.3553,2.3103,2.267,2.2369,2.2485,2.3738,2.5249,2.668,2.7456,2.798,2.834,2.8483,2.8611,2.8826,2.8359,2.8234,2.8984,2.9222,2.9492,2.9955,2.9457,2.9098,2.9098,2.8988,2.8925,2.8925,2.939,2.9752,2.9915,3.0453,3.1045,3.1698,3.1709,3.2006,3.2591,3.2395,3.2307,3.229,3.2091,3.1921,-0.58,-0.5625,-0.5424,-0.5565,-0.5246,-0.4887,-0.4855,0.0,0.0,-0.3434,-0.2823,-0.223,-0.1689,-0.0526,0.0584,0.127,0.2401,0.3406,0.4041,0.4481,0.529,0.6735,0.716,0.7874,0.917,0.9615,0.9907,1.0137,1.1084,1.2217,1.3464,1.4398,1.5061,1.5389,1.541,1.5733,1.6406,1.6608,1.7037,1.7718,1.7907,1.7991,1.7991,1.7991,1.7991,1.7991,1.7991,1.8108,1.8322,1.8752,1.9181,1.9629,2.0077,2.0381,2.0635,2.085,2.0635,2.0332,2.0762,2.0488,2.0077,2.0723,2.0739,2.0661,2.1665,2.2513,2.3354,2.4421,2.5004,2.5288,2.5065,2.5005,2.486,2.4314,2.4001,2.3737,2.3472,2.4543,2.5707,2.6177,2.6869,2.7527,2.801,2.8096,2.8219,2.8651,2.8599,2.8749,2.9342,2.948,2.9527,2.9627,2.9315,2.9098,2.9098,2.9098,2.9098,2.9098,2.9426,2.9824,3.0275,3.0592,3.1003,3.1512,3.1512,3.1581,3.1703,3.1951,3.187,3.1473,3.1765,3.1686,-0.5856,-0.5508,-0.519,-0.5647,-0.5208,-0.4672,-0.4725,-0.4307,-0.3707,-0.3069,-0.2413,-0.1837,-0.1467,-0.0477,0.0413,0.0827,0.1926,0.295,0.356,0.4343,0.5355,0.6692,0.7349,0.8111,0.92,0.9726,0.9994,0.9994,1.0701,1.1709,1.3024,1.4552,1.541,1.541,1.5337,1.5675,1.6449,1.6554,1.6989,1.7759,1.7923,1.7991,1.7991,1.7991,1.7991,1.7991,1.7991,1.7991,1.803,1.8547,1.8966,1.9354,1.9853,2.0244,2.0566,2.0887,2.077,2.0498,2.0808,2.0721,2.0595,2.1423,2.1451,2.1343,2.2207,2.3149,2.4209,2.5501,2.601,2.6184,2.6255,2.6274,2.6117,2.545,2.5312,2.5174,2.4765,2.5522,2.6169,2.572,2.6428,2.7241,2.7668,2.7668,2.7771,2.8216,2.8549,2.8942,2.9412,2.9279,2.9146,2.9103,2.9098,2.9098,2.9098,2.9098,2.9098,2.9098,2.924,2.9599,3.0188,3.0334,3.0577,3.0916,3.0928,3.0859,3.0738,3.1339,3.1304,3.0692,3.1377,3.1343,-0.5623,-0.5024,-0.4585,-0.5414,-0.488,-0.4293,-0.4779,0.0,-0.3459,-0.314,-0.2214,-0.1454,-0.1403,-0.0859,-0.0061,0.0993,0.1591,0.2345,0.3598,0.4685,0.5676,0.6615,0.7671,0.8587,0.9241,0.9726,0.9994,0.9994,1.1569,1.275,1.3328,1.4664,1.541,1.541,1.5097,1.518,1.5704,1.6051,1.6499,1.701,1.7674,1.7991,1.7991,1.7991,1.7991,1.7991,1.7991,1.7991,1.8059,1.8887,1.9248,1.9383,2.0205,2.045,2.0323,2.0371,2.0215,1.9961,2.0009,1.9999,2.0076,2.0773,2.1363,2.1969,2.2778,2.3342,2.3917,2.4846,2.5711,2.6441,2.6745,2.6825,2.658,2.5534,2.5312,2.53,2.5252,2.6116,2.6746,2.6165,2.7135,2.7826,2.7045,2.7158,2.7248,2.7014,2.7006,2.7291,2.7996,2.806,2.832,2.9017,2.9098,2.9098,2.9098,2.9098,2.9098,2.9098,2.9738,3.0129,3.0204,3.078,3.1186,3.1329,3.1341,3.1394,3.151,3.1211,3.1044,3.0962,3.0735,3.0605,-0.4915,-0.4294,-0.3813,-0.4524,-0.4062,-0.3549,-0.3968,-0.3428,-0.2693,-0.2178,-0.1719,-0.131,-0.1032,-0.0615,-0.013,0.0445,0.0,0.2,0.2738,0.3797,0.495,0.6191,0.7164,0.8153,0.9186,0.9726,1.0277,1.096,1.2062,1.3084,1.3956,1.4894,1.541,1.541,1.5068,1.513,1.5608,1.5999,1.6194,1.6184,1.6975,1.7278,1.7166,1.7166,1.7365,1.771,1.771,1.771,1.7732,1.8334,1.8728,1.8988,1.9592,1.9918,2.0088,2.0374,2.0219,1.994,2.0215,2.04,2.0577,2.11,2.1708,2.243,2.3275,2.421,2.5152,2.6071,2.6976,2.7692,2.7836,2.7866,2.7757,2.7344,2.7236,2.7133,2.6808,2.7354,2.7848,2.7632,2.8185,2.8729,2.8832,2.8497,2.8097,2.782,2.7659,2.7597,2.7607,2.799,2.8379,2.8705,2.8959,2.9098,2.9098,2.9098,2.9098,2.9098,2.9378,2.9738,3.0176,3.0461,3.0627,3.0676,3.0676,3.0493,3.0101,3.003,2.9989,2.9972,2.9922,2.9892,-0.4196,-0.3573,-0.3023,-0.3655,-0.3226,-0.2745,-0.314,-0.2695,-0.2045,-0.1515,-0.1289,-0.1065,-0.0629,-0.036,-0.008,0.0,0.0,0.1757,0.2201,0.3277,0.4471,0.5714,0.6728,0.7808,0.9015,0.9882,1.096,1.2308,1.2857,1.3578,1.4636,1.5152,1.541,1.541,1.5068,1.5018,1.5269,1.5664,1.5698,1.5384,1.6158,1.6602,1.669,1.669,1.7002,1.7564,1.7615,1.7615,1.7592,1.8021,1.844,1.8831,1.924,1.9591,1.9861,2.0262,2.0118,1.9782,2.0253,2.0495,2.0713,2.1379,2.1909,2.2436,2.3199,2.4357,2.5556,2.6199,2.7294,2.825,2.825,2.837,2.849,2.849,2.849,2.8414,2.8022,2.8514,2.8976,2.8864,2.9337,2.9828,3.0082,2.9612,2.908,2.8669,2.8321,2.7996,2.7706,2.7968,2.8198,2.8304,2.8681,2.8982,2.9087,2.9098,2.9098,2.9098,2.9098,2.9319,2.9848,2.9864,2.9864,2.9864,2.9864,2.9627,2.9098,2.919,2.9359,2.9577,2.9662,2.9808,-0.3597,-0.2875,-0.2267,-0.2946,-0.2452,-0.195,-0.2491,-0.214,-0.1649,-0.1446,-0.1032,-0.0607,-0.027,-0.0202,0.0057,0.0864,0.0,0.1634,0.2297,0.3491,0.4546,0.5225,0.6539,0.7748,0.8614,1.028,1.2052,1.3922,1.4076,1.4461,1.5347,1.541,1.541,1.541,1.5068,1.4767,1.4511,1.491,1.4932,1.4619,1.5366,1.6132,1.6897,1.6897,1.7182,1.7706,1.7913,1.7879,1.7718,1.8197,1.8639,1.9043,1.9513,1.9649,1.9626,1.9833,1.9647,1.9356,1.9767,1.9905,2.0124,2.1381,2.1804,2.19,2.2361,2.3447,2.4492,2.4454,2.6009,2.7709,2.7709,2.8094,2.849,2.849,2.849,2.849,2.8478,2.9426,3.0113,2.9512,3.0529,3.1147,3.0072,3.0062,2.9951,2.9204,2.8524,2.8152,2.8262,2.7773,2.7537,2.7876,2.8267,2.8669,2.9064,2.9098,2.9098,2.9098,2.9098,2.9098,2.9114,2.9114,2.9114,2.9114,2.9114,2.9114,2.9098,2.9098,2.9473,3.0188,3.0188,3.0556,-0.2857,-0.2217,-0.1675,-0.2165,-0.1759,-0.1377,-0.1869,-0.1518,-0.0993,-0.0647,-0.046,-0.0247,0.0134,0.0392,0.0682,0.1079,0.1437,0.1847,0.2333,0.3528,0.4728,0.5729,0.8217,1.0023,1.0435,1.1562,1.2766,1.4013,1.4097,1.4482,1.534,1.541,1.541,1.541,1.5068,1.4767,1.4492,1.491,1.494,1.4601,1.5349,1.6044,1.6681,1.6167,1.6463,1.7339,1.689,1.6942,1.7365,1.7524,1.7978,1.8609,1.876,1.904,1.9429,1.9616,1.9528,1.9396,2.0122,2.0551,2.0885,2.1421,2.1897,2.219,2.1754,2.2743,2.421,2.506,2.6201,2.715,2.715,2.7289,2.7505,2.7866,2.7673,2.7601,2.8338,2.8517,2.8703,2.9343,2.9821,3.0202,3.0398,3.0121,2.9767,2.948,2.8865,2.8422,2.8364,2.808,2.8139,2.8795,2.881,2.8756,2.8689,2.9109,2.951,2.9836,2.9981,3.021,3.0507,3.0535,3.0535,3.0535,3.0535,3.0535,3.0535,3.0535,3.0658,3.0879,3.0879,3.0989,-0.2338,-0.1868,-0.1457,-0.1626,-0.1369,-0.1118,-0.1256,-0.0918,-0.0472,-0.0125,-0.0011,0.0146,0.0514,0.076,0.0987,0.1237,0.1702,0.2175,0.2599,0.3759,0.5185,0.6911,0.9588,1.1505,1.2049,1.2664,1.3416,1.4331,1.4317,1.45,1.5024,1.5065,1.5065,1.5065,1.5088,1.5032,1.4925,1.4889,1.4787,1.4601,1.477,1.5365,1.6245,1.5781,1.6237,1.7373,1.6907,1.6951,0.0,1.7218,1.7669,1.8406,1.8406,1.8767,1.9321,1.9537,1.9571,1.9635,2.0315,2.0819,2.1198,2.143,2.177,2.209,2.194,2.2629,2.3835,2.5413,2.6207,2.6592,2.6592,2.676,2.703,2.7577,2.7282,2.7143,2.8006,2.8102,2.8254,2.8996,2.9535,3.0002,3.0508,3.0232,2.9918,2.9768,2.9172,2.8728,2.8669,2.8365,2.8382,2.8999,2.9068,2.8977,2.8822,2.9464,3.0077,3.0551,3.0679,3.0905,3.1182,3.1211,3.1211,3.1211,3.1211,3.1211,3.1211,3.1492,3.163,3.1618,3.169,3.1739,0.0,-0.1737,-0.1521,-0.1276,-0.1164,-0.1016,-0.0645,-0.0355,0.0,0.0181,0.0347,0.0537,0.0876,0.0942,0.1056,0.1434,0.2028,0.2616,0.3138,0.4249,0.5968,0.8561,1.0596,1.2201,1.3232,1.3507,1.3974,1.481,1.4633,1.4511,1.4511,1.4511,1.4484,1.4492,1.5052,1.5404,1.5493,1.482,1.4554,1.4677,1.3974,1.441,1.5851,1.5781,1.6446,1.7655,1.7604,1.7554,1.7461,1.7279,1.766,1.8369,1.8397,1.8748,1.9285,1.9508,1.9726,1.9969,2.0404,2.0799,2.1164,2.1447,2.1555,2.1749,2.275,2.3045,2.3453,2.5416,2.6009,2.6045,2.6093,2.6436,2.6922,2.7517,2.7198,2.6971,2.7565,2.812,2.8518,2.859,2.9517,3.0283,3.0283,3.0283,3.0198,2.9942,2.9378,2.9033,2.9148,2.8625,2.8398,2.8783,2.9132,2.9352,2.9438,3.0078,3.0685,3.1146,3.1221,3.125,3.1303,3.1328,3.1353,3.1353,3.1328,3.1275,3.1253,3.1937,3.2265,3.2281,3.2511,3.26,-0.1046,0.0,-0.1164,-0.0595,-0.0369,-0.0253,0.0,0.0068,0.0317,0.0538,0.0694,0.0904,0.1284,0.1316,0.1527,0.2276,0.2659,0.318,0.4124,0.5844,0.7632,0.9291,1.0816,1.2001,1.2721,1.3411,1.4033,1.4557,1.4536,1.4511,1.4511,1.4511,1.4426,1.4289,1.4772,1.484,1.4462,1.4477,1.4878,1.5584,1.5204,1.5798,1.7217,1.6498,1.6585,1.7287,1.6716,1.6786,1.7279,1.7218,1.7492,1.7977,1.8285,1.8582,1.8908,1.9407,1.9726,2.001,2.077,2.1203,2.1471,2.1849,2.2099,2.2396,2.3207,2.3461,2.3604,2.4372,2.5003,2.5588,2.5997,2.5901,2.5907,2.6849,2.6364,2.6063,2.7466,2.7575,2.7627,2.8449,2.8827,2.9021,2.9021,2.9021,2.9032,2.9077,2.8956,2.9044,2.9564,2.9102,2.9096,3.0045,2.9769,2.9884,3.0759,3.0482,3.0473,3.0936,3.1437,3.1892,3.2255,3.262,3.2819,3.2819,3.2444,3.2095,3.1728,3.191,3.2,3.2,3.2415,3.26,-0.047,-0.0669,-0.0853,-0.0371,-0.0196,-0.0081,0.0138,0.0363,0.0604,0.0839,0.1185,0.152,0.1738,0.205,0.2434,0.2935,0.3545,0.4433,0.5785,0.7687,0.9406,1.0647,1.1852,1.2863,1.3586,1.382,1.405,1.426,1.4125,1.4045,1.4045,1.4045,1.3988,1.3886,1.4275,1.4499,1.4501,1.4742,1.4992,1.5255,1.5325,1.5789,1.6542,1.6376,1.6681,1.7314,1.683,1.6821,1.7184,1.7107,1.7296,1.7675,1.7906,1.8285,1.876,1.9262,1.9767,2.0276,2.0924,2.1224,2.1438,2.228,2.2382,2.2438,2.379,2.4049,2.3977,2.4504,2.4969,2.5372,2.5661,2.5528,2.5498,2.634,2.5895,2.5674,2.707,2.7185,2.7242,2.8069,2.8425,2.8603,2.8603,2.8603,2.8619,2.87,2.8844,2.9117,2.9651,2.9553,2.9741,3.0524,3.0278,3.0308,3.0925,3.0602,3.0656,3.1321,3.171,3.2005,3.2272,3.252,3.2658,3.2658,3.241,3.2145,3.1908,3.1908,3.1908,3.1908,3.1964,3.2006,-0.0023,-0.0059,-0.0241,-0.0166,-0.0107,0.0036,0.0389,0.0,0.0,0.1196,0.1765,0.2241,0.2291,0.286,0.3396,0.3632,0.4763,0.6138,0.7687,0.9448,1.0969,1.1991,1.2891,1.375,1.4599,1.4171,1.3866,1.3909,1.3653,1.3492,1.3492,1.3492,1.3492,1.3455,1.3814,1.4296,1.4923,1.5046,1.4958,1.4676,1.5027,1.5311,1.5533,1.6123,1.6759,1.7401,1.7228,1.7149,1.7132,1.6968,1.7101,1.7413,1.7477,1.7954,1.865,1.9063,1.9769,2.0585,2.1151,2.1438,2.1691,2.2781,2.2727,2.2533,2.428,2.4522,2.4352,2.5081,2.5312,2.5324,2.539,2.5354,2.5444,2.5973,2.5697,2.5562,2.6581,2.6897,2.7158,2.7693,2.8232,2.8603,2.8603,2.8603,2.8619,2.8667,2.8924,2.9242,2.9618,2.9927,3.0233,3.0553,3.0598,3.0598,3.0598,3.0598,3.0911,3.1652,3.1766,3.1837,3.1908,3.1908,3.1865,3.1808,3.1808,3.1766,3.1709,3.1709,3.1709,3.1695,3.1437,3.1292,0.0609,0.1209,0.156,0.0744,0.0802,0.1015,0.0857,0.1373,0.1876,0.1865,0.2353,0.2857,0.3151,0.3302,0.3719,0.4755,0.6586,0.8229,0.9152,1.0514,1.1607,1.2113,1.2472,1.2915,1.3577,1.3346,1.3269,1.3557,1.3521,1.3492,1.3492,1.3492,1.3419,1.3255,1.3739,1.4185,1.4573,1.4324,1.4614,1.5438,1.5261,1.5798,1.689,1.683,1.6882,1.6995,1.6951,1.696,1.6934,1.6908,1.6945,1.7027,1.7367,1.7789,1.8247,1.864,1.9511,2.0706,2.205,2.2918,2.3376,2.3361,2.3688,2.4115,2.4253,2.4258,2.4352,2.5081,2.5312,2.539,2.5865,2.5648,2.5444,2.5973,2.5697,2.5495,2.6146,2.6666,2.7158,2.7693,2.8232,2.8603,2.8603,2.8603,2.87,2.8972,2.9067,2.932,2.9942,3.0065,3.0233,3.0553,3.0598,3.0598,3.0598,3.0598,3.0657,3.0792,3.1175,3.1538,3.1893,3.1908,3.1737,3.1394,3.1394,3.1205,3.0807,3.0807,3.0807,3.0807,3.1146,3.1292,0.1499,0.2008,0.2327,0.1934,0.2196,0.2506,0.2382,0.2676,0.2951,0.2925,0.3394,0.4011,0.4629,0.51,0.589,0.7395,0.8696,0.9707,1.0187,1.0964,1.1826,1.2693,1.2655,1.2994,1.4106,1.3641,1.3403,1.3736,1.3594,1.3492,1.3492,1.3492,1.3648,1.3952,1.3814,1.4147,1.5037,1.4469,1.4599,1.544,1.5907,1.6228,1.6446,1.676,1.6908,1.6908,1.6908,1.6908,1.6908,1.6908,1.6908,1.6927,1.7101,1.7431,1.7889,1.8961,2.0115,2.1271,2.2142,2.2928,2.3594,2.3701,2.4098,2.4595,2.4827,2.4729,2.4634,2.5152,2.5516,2.5721,2.5685,2.5709,2.5721,2.5685,2.548,2.5471,2.6065,2.6616,2.7158,2.7693,2.8232,2.8603,2.8603,2.8603,2.87,2.9051,2.9242,2.954,3.0034,3.0264,3.0431,3.0568,3.0598,3.0598,3.0598,3.0598,3.0598,3.0598,3.0792,3.0999,3.119,3.1204,3.1117,3.0925,3.0925,3.0821,3.0598,3.0598,3.0598,3.0598,3.0821,3.0925,0.2239,0.2607,0.2884,0.2989,0.0,0.3469,0.3599,0.3784,0.3966,0.4091,0.477,0.5486,0.6035,0.6888,0.8044,0.9624,1.0424,1.0923,1.1111,1.1652,1.2376,1.3353,1.3149,1.3395,1.4571,1.3975,1.3601,1.3869,1.3656,1.3492,1.3492,1.3492,1.3757,1.4322,1.3967,1.4338,1.5534,1.5081,1.5059,1.5501,1.6316,1.6482,1.6079,1.6639,1.6908,1.6908,1.6908,1.6908,1.6908,1.6908,1.6908,1.6908,1.6908,1.7193,1.7825,1.9346,2.066,2.176,2.23,2.3025,2.3762,2.4115,2.4427,2.4758,2.5199,2.5095,2.4879,2.5218,2.5685,2.5973,2.5444,2.5612,2.5817,2.5408,2.5312,2.5471,2.6065,2.6616,2.7158,2.7693,2.8232,2.8603,2.8603,2.8603,2.8732,2.9147,2.943,2.9742,3.0158,3.0447,3.0598,3.0598,3.0598,3.0598,3.0598,3.0598,3.0598,3.0598,3.0598,3.0598,3.0598,3.0598,3.0598,3.0598,3.0598,3.0598,3.0598,3.0598,3.0598,3.0598,3.0598,3.0598,0.2536,0.3085,0.363,0.3639,0.3289,0.0,0.358,0.4173,0.0,0.5273,0.6489,0.7352,0.6904,0.7891,0.9138,1.026,1.1254,1.1962,1.2151,1.3133,1.3857,1.3935,1.3914,1.394,1.4048,1.3711,1.3506,1.3528,1.3506,1.3492,1.3492,1.3492,1.351,1.3583,1.4186,1.4905,1.5675,1.6175,1.6307,1.6043,1.6132,1.6394,1.6821,1.6874,1.6908,1.6908,1.6908,1.6908,1.6908,1.6908,1.6908,1.6908,1.6908,1.7367,1.821,1.9436,2.0632,2.181,2.3198,2.4093,2.4639,2.4845,2.4912,2.4877,2.4863,2.4825,2.4879,2.5218,2.5685,2.5973,2.5444,2.5318,2.536,2.5312,2.5312,2.5471,2.6065,2.6616,2.7158,2.7693,2.8232,2.8603,2.8603,2.8603,2.8812,2.9462,2.9571,2.9835,3.0477,3.0597,3.0598,3.0598,3.0598,3.0598,3.0598,3.0598,3.0598,3.0598,3.0598,3.0598,3.0598,3.0598,3.0598,3.0598,3.0598,3.0598,3.0598,3.0598,3.0598,3.0598,3.0598,3.0598,0.3428,0.4228,0.4853,0.4483,0.4737,0.0,0.0,0.6262,0.6769,0.7722,0.847,0.9078,0.9503,1.0593,1.1573,1.1998,1.2556,1.2959,1.305,1.3418,1.3774,1.3979,1.3825,1.3862,1.4264,1.3825,1.3598,1.3803,1.4044,1.4168,1.4168,1.4617,1.5091,1.5604,1.541,1.5781,1.6803,1.6542,1.6481,1.6604,1.6726,1.689,1.7089,1.6951,1.6908,1.6908,1.6908,1.6908,1.6908,1.6908,1.6908,1.6908,1.6908,1.7774,1.9137,1.9923,2.1203,2.2671,2.3706,2.4441,2.4942,2.4928,2.5161,2.5418,2.5189,2.5111,2.5147,2.5259,2.5456,2.5564,2.5342,2.5552,2.5721,2.5384,2.5312,2.5365,2.5594,2.6099,2.6667,2.7192,2.7739,2.82,2.8538,2.8603,2.8796,2.9324,2.9418,2.9668,3.0326,3.0417,3.0462,3.0583,3.0598,3.0598,3.0598,3.0598,3.0598,3.0598,3.0598,3.0598,3.0598,3.0598,3.0598,3.0598,3.0598,3.0598,3.0598,3.0598,3.0598,3.0598,3.0598,3.0598,0.4349,0.4985,0.5548,0.5552,0.0,0.0,0.8116,0.8101,0.8157,0.9486,0.9944,1.0441,1.1567,1.2301,1.2791,1.2974,1.3287,1.3492,1.3492,1.3492,1.3598,1.3806,1.3844,1.402,1.4486,1.4332,1.4294,1.4515,1.4788,1.494,1.494,1.5419,1.593,1.6446,1.6149,1.635,1.7107,1.6829,1.6821,1.7099,1.7149,1.7166,1.7107,1.6951,1.6908,1.6908,1.6908,1.6908,1.6908,1.6908,1.6908,1.6908,1.6908,1.7927,1.9494,2.0149,2.161,2.3328,2.3957,2.4564,2.5045,2.494,2.5159,2.5455,2.5331,2.5312,2.5312,2.5312,2.5312,2.5312,2.5312,2.5576,2.5757,2.5396,2.5312,2.5347,2.5541,2.5908,2.6358,2.6905,2.7293,2.7709,2.8249,2.836,2.8557,2.9151,2.9245,2.9481,3.0144,3.0235,3.0326,3.0568,3.0598,3.0598,3.0598,3.0598,3.0598,3.0598,3.0598,3.0598,3.0598,3.0598,3.0598,3.0598,3.0598,3.0598,3.0598,3.0598,3.0598,3.0598,3.0598,3.0598,0.5183,0.5213,0.5535,0.6863,0.6665,0.6934,1.0008,0.9422,0.8659,1.0211,1.0785,1.1441,1.2763,1.2569,1.2392,1.2921,1.3279,1.351,1.351,1.351,1.351,1.351,1.415,1.4601,1.4601,1.5278,1.571,1.571,1.571,1.571,1.571,1.5728,1.5657,1.5516,1.6228,1.6507,1.6306,1.7107,1.7505,1.7487,1.7296,1.7089,1.6908,1.6908,1.6908,1.6908,1.6908,1.6908,1.6908,1.6908,1.6908,1.6908,1.6908,1.7776,1.9117,2.0062,2.1728,2.3558,2.3969,2.4502,2.501,2.4922,2.4848,2.4879,2.52,2.5312,2.5312,2.5312,2.5312,2.5312,2.5312,2.5312,2.5312,2.5312,2.5312,2.5471,2.6065,2.6198,2.6358,2.6905,2.7007,2.7175,2.7709,2.7792,2.8088,2.8972,2.9099,2.9336,3.0019,3.0096,3.0233,3.0553,3.0598,3.0598,3.0598,3.0598,3.0598,3.0598,3.0598,3.0598,3.0598,3.0598,3.0598,3.0598,3.0598,3.0598,3.0598,3.0598,3.0598,3.0598,3.0598,3.0598,0.4839,0.5851,0.695,0.6928,0.7817,0.9016,1.0222,1.0095,1.025,1.2037,1.2403,1.2591,1.3226,1.3219,1.3338,1.4022,1.4206,1.4456,1.4966,1.4599,1.4474,1.4984,1.4788,1.4798,1.5313,1.5569,1.571,1.571,1.6219,1.6481,1.6333,1.682,1.7054,1.6907,1.7124,1.7141,1.6933,1.7166,1.721,1.7081,1.703,1.7038,1.7107,1.6951,1.6908,1.6908,1.6908,1.6908,1.6908,1.6908,1.7124,1.7459,1.7459,1.838,1.9868,2.1172,2.2707,2.4233,2.5029,2.5464,2.5666,2.5415,2.5177,2.5052,2.5241,2.5312,2.5312,2.5312,2.5312,2.5312,2.5312,2.5312,2.5312,2.5312,2.5312,2.5471,2.6065,2.6198,2.6358,2.6905,2.731,2.761,2.7776,2.8102,2.8557,2.9151,2.9245,2.9481,3.0144,3.0371,3.0492,3.0583,3.0598,3.0598,3.0598,3.0598,3.0598,3.0598,3.0598,3.0598,3.0598,3.0598,3.0598,3.0598,3.0598,3.0598,3.0598,3.0598,3.0598,3.0598,3.0598,3.0598,0.5797,0.6846,0.7916,0.8169,0.9005,1.0044,1.1109,1.1444,1.1859,1.3078,1.325,1.323,1.3288,1.3649,1.404,1.4348,1.4762,1.5189,1.564,1.5313,1.5189,1.5657,1.5596,1.5702,1.6123,1.6446,1.6611,1.6611,1.7062,1.7243,1.7054,1.7467,1.7596,1.7392,1.7375,1.7279,1.7089,1.7089,1.702,1.6908,1.6908,1.6951,1.7089,1.6951,1.6908,1.6908,1.6908,1.6908,1.6908,1.6908,1.7228,1.7706,1.785,1.8856,2.0375,2.1596,2.2992,2.4363,2.4936,2.5321,2.5518,2.5309,2.5115,2.5016,2.5241,2.5312,2.5312,2.5312,2.5312,2.5312,2.5312,2.5312,2.5312,2.5312,2.5312,2.54,2.5769,2.5838,2.5943,2.626,2.6773,2.7226,2.7443,2.7937,2.8476,2.9024,2.9326,2.9669,3.0159,3.0432,3.0598,3.0598,3.0598,3.0598,3.0598,3.0598,3.0598,3.0598,3.0598,3.0598,3.0598,3.0598,3.0598,3.0598,3.0598,3.0598,3.0598,3.0598,3.0598,3.0598,3.0598,3.0728,0.7376,0.7928,0.8532,0.9966,1.0134,1.0474,1.2491,1.3154,1.3357,1.3481,1.3546,1.3505,1.321,1.3996,1.4622,1.4398,1.5166,1.5825,1.5904,1.5851,1.5825,1.5904,1.6498,1.6941,1.6993,1.7613,1.7991,1.7974,1.7974,1.7879,1.7672,1.7655,1.751,1.7184,1.7166,1.7089,1.6908,1.6908,1.6908,1.6908,1.6908,1.6908,1.6908,1.6908,1.6908,1.6908,1.696,1.6968,1.6968,1.702,1.7356,1.7884,1.821,1.9272,2.0699,2.1571,2.2815,2.4097,2.4143,2.4524,2.498,2.487,2.4843,2.4903,2.5218,2.5312,2.5312,2.5312,2.5312,2.5312,2.5312,2.5312,2.5312,2.5312,2.5312,2.5312,2.5365,2.5382,2.54,2.5453,2.5908,2.6427,2.6922,2.7443,2.8023,2.8716,2.934,2.9822,3.0065,3.0386,3.0568,3.0598,3.0598,3.0598,3.0598,3.0598,3.0598,3.0598,3.0598,3.0598,3.0598,3.0598,3.0598,3.0598,3.0598,3.0598,3.0598,3.0598,3.0598,3.0598,3.067,3.0974,0.6616,0.7734,0.8951,0.9549,1.0725,1.2174,1.3832,1.4258,1.415,1.3619,1.3967,1.4343,1.4264,1.4909,1.5641,1.6208,1.6487,1.6837,1.7425,1.701,1.6854,1.7442,1.7148,1.7131,1.7708,1.7906,1.793,1.7784,1.7767,1.763,1.7321,1.7304,1.7201,1.6968,1.6951,1.6934,1.6908,1.6908,1.6908,1.6908,1.6908,1.6908,1.6908,1.6908,1.6908,1.6926,1.7356,1.7527,1.7562,1.7986,1.8476,1.8984,1.9315,1.9922,2.0746,2.197,2.3098,2.4079,2.4435,2.5138,2.5773,2.532,2.52,2.5218,2.5276,2.5312,2.5312,2.5312,2.5312,2.5312,2.5312,2.5312,2.5312,2.5312,2.5312,2.5435,2.5908,2.6013,2.6134,2.6552,2.6752,2.6871,2.6973,2.7443,2.8072,2.8908,2.9107,2.9406,3.002,3.0249,3.0418,3.0568,3.0598,3.0598,3.0598,3.0598,3.0598,3.0598,3.0598,3.0598,3.0598,3.0598,3.0598,3.0598,3.0598,3.0598,3.0598,3.0598,3.0598,3.0612,3.109,3.1379,0.7042,0.8154,0.9356,1.0435,1.1713,1.3065,1.4301,1.4869,1.502,1.4635,1.4859,1.5136,1.5136,1.5754,1.6411,1.6828,1.7209,1.7562,1.7957,1.7674,1.7562,1.7957,1.7664,1.7579,1.7957,1.7991,1.7957,1.7862,1.774,1.7596,1.7365,1.7253,1.7149,1.7055,1.696,1.696,1.7038,1.696,1.6908,1.6908,1.6908,1.702,1.727,1.727,1.7555,1.8004,1.8066,1.8172,1.8341,1.8627,1.915,1.9814,2.0182,2.0645,2.1254,2.2381,2.3268,2.397,2.4446,2.5093,2.5673,2.5396,2.5312,2.5312,2.5312,2.5312,2.5312,2.5312,2.5312,2.5312,2.5312,2.5312,2.5312,2.5312,2.5312,2.54,2.5699,2.5769,2.5856,2.6121,2.662,2.7007,2.7007,2.795,2.8801,2.9061,2.978,3.0251,3.0121,3.0554,3.0795,3.0626,3.0598,3.0598,3.0598,3.0598,3.0598,3.0598,3.0598,3.0598,3.0598,3.0598,3.0598,3.0598,3.0598,3.0598,3.0598,3.0598,3.0742,3.1032,3.135,3.1829,0.7537,0.852,0.962,1.1549,1.2624,1.3525,1.4599,1.5395,1.5939,1.6079,1.5991,1.5904,1.5904,1.655,1.7096,1.7096,1.7596,1.7991,1.7991,1.7991,1.7991,1.7991,1.7991,1.7991,1.7991,1.7991,1.7974,1.7923,1.7759,1.7606,1.7461,1.7296,1.7218,1.7253,1.7089,1.7072,1.7253,1.7089,1.6995,1.6995,1.6978,1.7317,1.7966,1.7906,1.8352,1.9146,1.8913,1.8967,1.9233,1.9342,1.9808,2.0489,2.089,2.1313,2.1816,2.2679,2.3348,2.3878,2.435,2.485,2.5312,2.5312,2.5312,2.5312,2.5312,2.5312,2.5312,2.5312,2.5312,2.5312,2.5312,2.5312,2.5312,2.5312,2.5312,2.5312,2.5312,2.5312,2.5329,2.5435,2.6208,2.688,2.6969,2.8152,2.9087,2.907,3.0344,3.105,3.032,3.1056,3.1408,3.0815,3.0757,3.0699,3.0612,3.0598,3.0598,3.0598,3.0598,3.0598,3.0598,3.0598,3.0598,3.0598,3.0598,3.0598,3.0598,3.0598,3.0917,3.151,3.1626,3.2324,0.663,0.7852,0.9521,1.157,1.2736,1.3797,1.5434,1.6282,1.6923,1.7562,1.7174,1.6741,1.6741,1.7346,1.7854,1.7854,1.794,1.7991,1.7991,1.7991,1.7991,1.7991,1.7991,1.7991,1.7991,1.7991,1.7872,1.759,1.7539,1.7443,1.7253,1.7201,1.7279,1.7453,1.7436,1.7436,1.7461,1.7436,1.7419,1.7419,1.7245,1.7812,1.8986,1.8765,1.8781,1.906,1.9764,2.009,2.0171,2.0688,2.0971,2.1099,2.1463,2.1636,2.1816,2.2679,2.3348,2.3878,2.435,2.485,2.5312,2.5312,2.5312,2.5312,2.5312,2.5312,2.5312,2.5312,2.5312,2.5312,2.5312,2.5312,2.5312,2.5312,2.5312,2.5312,2.5312,2.5312,2.5453,2.5978,2.6203,2.6439,2.6836,2.6736,2.7119,2.8701,2.942,3.0006,3.0632,3.1588,3.1978,3.1437,3.1379,3.1177,3.0641,3.0598,3.0598,3.0598,3.0598,3.0598,3.0598,3.0598,3.0598,3.0598,3.0598,3.0598,3.0598,3.0598,3.0917,3.151,3.2105,3.2774,0.7324,0.8384,0.9643,1.1878,1.3094,1.4125,1.5645,1.6617,1.7336,1.7891,1.7742,1.7527,1.7527,1.7777,1.7991,1.7991,1.7991,1.7991,1.7991,1.7991,1.7991,1.7991,1.7991,1.7991,1.7991,1.7991,1.794,1.7796,1.7684,1.7562,1.7484,1.7417,1.7434,1.7606,1.7547,1.7547,1.7606,1.7434,1.7434,1.7606,1.7825,1.839,1.9266,1.9327,1.9662,2.019,2.0423,2.0624,2.0816,2.1094,2.1348,2.1612,2.1741,2.2072,2.2504,2.3199,2.3765,2.4266,2.4765,2.509,2.5312,2.5312,2.5312,2.5312,2.5312,2.5312,2.5312,2.5312,2.5312,2.5312,2.5312,2.5312,2.5312,2.5312,2.5312,2.5312,2.5312,2.5312,2.5488,2.6082,2.6444,2.6879,2.7557,2.83,2.9021,2.9686,3.1007,3.1798,3.1499,3.2017,3.2172,3.1583,3.1206,3.0888,3.0627,3.0598,3.0598,3.0598,3.0598,3.0598,3.0598,3.0598,3.0598,3.0598,3.0598,3.0598,3.0598,3.0598,3.1105,3.2076,3.2366,3.2985,0.7647,0.859,0.955,1.1769,1.3139,1.4277,1.5559,1.6619,1.7411,1.7706,1.7896,1.7991,1.7991,1.7991,1.7991,1.7991,1.7991,1.7991,1.7991,1.7991,1.7991,1.7991,1.7991,1.7991,1.7991,1.7991,1.7974,1.793,1.7784,1.7706,1.7706,1.7606,1.7632,1.7767,1.7684,1.7759,1.8029,1.7876,1.7791,1.7784,1.8317,1.8827,1.9315,1.9616,2.0183,2.0925,2.0847,2.0978,2.1206,2.1285,2.1522,2.1862,2.194,2.24,2.3055,2.3601,2.4102,2.4585,2.5102,2.5312,2.5312,2.5312,2.5312,2.5312,2.5312,2.5312,2.5312,2.5312,2.5312,2.5312,2.5312,2.5312,2.5312,2.5312,2.5312,2.5347,2.5506,2.5418,2.5488,2.6082,2.6506,2.7045,2.7885,2.9202,3.0242,3.0489,3.1931,3.2831,3.2354,3.2379,3.2259,3.1814,3.1192,3.0829,3.0829,3.0829,3.0902,3.1076,3.1076,3.1004,3.0844,3.0989,3.1004,3.0829,3.0829,3.0742,3.0598,3.0742,3.1395,3.2497,3.2671,3.3258,0.6679,0.7745,0.8975,1.0815,1.2555,1.4105,1.5176,1.6306,1.7117,1.7136,1.7598,1.7991,1.7991,1.7991,1.7991,1.7991,1.7991,1.7991,1.7991,1.7991,1.7991,1.7991,1.7991,1.7991,1.7991,1.7991,1.7923,1.7723,1.7706,1.7706,1.7706,1.7689,1.7784,1.7974,1.7974,1.8286,1.8927,1.9297,1.8975,1.7991,1.8522,1.8981,1.9309,1.9528,1.9905,2.046,2.0962,2.1174,2.1221,2.1537,2.1683,2.1741,2.2049,2.2522,2.3055,2.3601,2.4102,2.4585,2.5102,2.5312,2.5312,2.5312,2.5312,2.5312,2.5312,2.5312,2.5312,2.5312,2.5312,2.5312,2.5312,2.5312,2.5312,2.5312,2.5312,2.5453,2.603,2.5699,2.5488,2.6082,2.6173,2.6378,2.7139,2.7745,2.871,3.035,3.0693,3.1333,3.2936,3.2657,3.2349,3.2431,3.1844,3.1452,3.1452,3.1452,3.1728,3.2366,3.2409,3.2119,3.1481,3.2061,3.2105,3.1467,3.1452,3.1177,3.0598,3.1177,3.1815,3.2511,3.3153,3.3775,0.682,0.7878,0.9064,1.0623,1.2125,1.3401,1.4082,1.5295,1.6344,1.6655,1.719,1.7686,1.7942,1.7991,1.7991,1.7991,1.7991,1.7991,1.7991,1.7991,1.7991,1.7991,1.7991,1.7991,1.7991,1.7991,1.7974,1.7896,1.7896,1.7896,1.7896,1.7896,1.793,1.7991,1.7991,1.8178,1.8546,1.8908,1.8998,1.8838,1.9374,1.9698,1.9818,2.0102,2.0356,2.055,2.0999,2.119,2.1206,2.1332,2.1553,2.1847,2.1968,2.2619,2.3541,2.3734,2.4302,2.5042,2.5222,2.5312,2.5312,2.5312,2.5312,2.5312,2.5312,2.5312,2.5312,2.5312,2.5312,2.5312,2.5312,2.5312,2.5312,2.5312,2.5564,2.5967,2.6537,2.6507,2.644,2.6633,2.7567,2.8354,2.84,2.9545,3.0775,3.1738,3.2129,3.268,3.3638,3.3132,3.2794,3.3119,3.2542,3.2148,3.2148,3.2148,3.225,3.2482,3.2105,3.1945,3.2134,3.196,3.1945,3.2134,3.2148,3.1815,3.1177,3.1003,3.1467,3.2511,3.2759,3.3347,0.6733,0.7831,0.9131,1.0526,1.1551,1.2491,1.3485,1.4515,1.5382,1.5842,1.6658,1.7362,1.7593,1.7835,1.7991,1.7991,1.7991,1.7991,1.7991,1.7991,1.7991,1.7991,1.7991,1.7991,1.7991,1.7991,1.7991,1.7991,1.7991,1.811,1.831,1.8117,1.8042,1.8161,1.863,1.8737,1.8472,1.9214,1.9545,1.9419,1.9998,2.0237,2.0216,2.0485,2.0603,2.0619,2.1031,2.119,2.1206,2.1316,2.1553,2.1847,2.1968,2.2739,2.3806,2.3806,2.4439,2.5312,2.5312,2.5312,2.5312,2.5312,2.5312,2.5312,2.5312,2.5312,2.5312,2.5312,2.5312,2.5312,2.5312,2.5426,2.5576,2.5576,2.5985,2.6522,2.7048,2.7066,2.7017,2.715,2.8137,2.8915,2.8755,2.9886,3.111,3.1995,3.2272,3.2783,3.3857,3.3231,3.2897,3.344,3.2904,3.2584,3.2817,3.2846,3.2919,3.312,3.2714,3.2569,3.2832,3.2598,3.2584,3.2832,3.2846,3.2614,3.2179,3.1773,3.2006,3.2846,3.3033,3.3518,0.0,0.0,0.0,1.0415,1.0816,1.1417,1.3341,1.3955,1.4255,1.4686,1.5951,1.6981,1.6892,1.747,1.7961,1.7971,1.7991,1.7991,1.7991,1.7991,1.7991,1.7991,1.8025,1.8025,1.8025,1.8025,1.8042,1.8059,1.8042,1.832,1.8977,1.8378,1.8195,1.8533,1.9857,2.002,1.8858,2.0393,2.0663,1.9654,2.0307,2.055,2.0427,2.0566,2.0619,2.0651,2.1063,2.1221,2.1253,2.1573,2.1698,2.1757,2.2077,2.2863,2.3806,2.3806,2.4439,2.5312,2.5312,2.5312,2.5312,2.5312,2.5312,2.5312,2.5312,2.5312,2.5312,2.5312,2.5312,2.5312,2.5324,2.5709,2.6105,2.6117,2.6532,2.7066,2.7589,2.7313,2.7103,2.765,2.778,2.7876,2.8064,2.8548,2.9445,3.1015,3.0921,3.1434,3.3531,3.2945,3.2644,3.3436,3.2933,3.2817,3.3474,3.3532,3.3777,3.4353,3.4368,3.4124,3.3547,3.4066,3.4109,3.3547,3.3532,3.3532,3.3532,3.3489,3.3474,3.3518,3.4124,3.4397,0.7115,0.0,0.0,0.0,0.0,0.0,1.087,1.1661,1.2682,1.3721,1.442,1.5172,1.6202,1.6686,1.6976,1.7178,1.7644,1.7991,1.7991,1.7991,1.7991,1.7991,1.8428,1.8721,1.8721,1.8721,1.8944,1.9474,1.9011,1.8804,1.8994,1.8811,1.8938,1.9435,1.9814,1.9993,1.996,2.0355,2.0613,2.0759,2.0951,2.1015,2.0994,2.1269,2.14,2.1415,2.1769,2.1921,2.1921,2.1757,2.1835,2.2077,2.2154,2.2863,2.3806,2.3806,2.4439,2.5312,2.5312,2.5312,2.5312,2.5312,2.5312,2.5312,2.5312,2.5312,2.5312,2.5312,2.5312,2.5396,2.5781,2.5985,2.6202,2.6592,2.7097,2.7517,2.7673,2.789,2.8222,2.8818,2.9625,3.0256,3.0312,3.1045,3.1814,3.2408,3.2408,3.2747,3.3874,3.3559,3.3477,3.4085,3.3993,3.3947,3.4138,3.4153,3.4225,3.4382,3.3978,3.3879,3.4138,3.3894,3.3879,3.4153,3.4153,3.4153,3.4153,3.3224,3.3037,3.3518,3.4124,3.4397,0.0,0.0,0.9429,0.949,0.0,0.0,1.0612,1.1058,1.1719,1.2969,1.3685,1.4321,1.51,1.5867,1.6421,1.6555,1.7106,1.7621,1.7838,1.7957,1.7991,1.7991,1.8596,1.8977,1.8921,1.9121,1.9435,1.9857,1.9485,1.9303,1.9458,1.9949,2.0161,2.0047,2.0328,2.0505,2.0608,2.0789,2.1012,2.1273,2.138,2.1352,2.1289,2.1573,2.1698,2.1714,2.2061,2.2197,2.217,2.1987,2.2018,2.2209,2.2454,2.3055,2.383,2.4018,2.4602,2.5312,2.5312,2.5312,2.5312,2.5312,2.5312,2.5312,2.5312,2.5312,2.5312,2.5312,2.5312,2.5432,2.5961,2.6274,2.6568,2.7121,2.7649,2.8034,2.8034,2.8479,2.8914,2.9,2.9581,3.0069,3.0069,3.0758,3.1484,3.1924,3.2372,3.2921,3.3785,3.3833,3.3954,3.4363,3.4397,3.4397,3.4397,3.4397,3.4397,3.4397,3.4066,3.4022,3.4382,3.4051,3.4037,3.4382,3.4397,3.4397,3.4397,3.3643,3.3499,3.3879,3.424,3.4397,0.0,0.0,0.0,1.0614,1.0091,0.0,1.1402,1.1285,1.1147,1.227,1.3194,1.3779,1.3751,1.4887,1.5811,1.5765,1.6328,1.6967,1.7598,1.7828,1.7939,1.7996,1.8578,1.8969,1.8976,1.9383,1.9694,1.9765,1.97,1.983,2.0213,2.1234,2.1411,2.0592,2.1151,2.1321,2.1015,2.151,2.1667,2.1482,2.1667,2.1651,2.1482,2.1667,2.1757,2.1773,2.2077,2.2197,2.2197,2.2197,2.2197,2.2246,2.2791,2.3336,2.3866,2.4338,2.4838,2.5312,2.5312,2.5312,2.5312,2.5312,2.5312,2.5312,2.5312,2.5312,2.5312,2.5312,2.5312,2.5432,2.5961,2.6496,2.703,2.7577,2.8106,2.849,2.849,2.8922,2.9138,2.861,2.8657,2.8823,2.8895,2.9399,3.0012,3.072,3.1599,3.2533,3.3469,3.3833,3.4094,3.4312,3.4346,3.4346,3.4363,3.4346,3.4363,3.4397,3.4363,3.4363,3.4397,3.4363,3.4363,3.4397,3.438,3.438,3.438,3.4397,3.4397,3.4397,3.4397,3.4397,0.0,0.0,1.0827,1.0103,1.0723,0.0,0.9962,1.0062,1.0577,1.114,1.1243,1.1543,1.2572,1.3203,1.3569,1.3668,1.4857,1.6202,1.7452,1.7473,1.7531,1.8025,1.8482,1.9098,1.9923,1.9995,2.0255,2.0841,2.0341,2.0341,2.1113,2.1112,2.1253,2.16,2.1737,2.1769,2.1706,2.1972,2.2077,2.2046,2.2077,2.2077,2.2046,2.2077,2.2108,2.2108,2.217,2.2197,2.2197,2.2197,2.2197,2.2246,2.2791,2.3336,2.3866,2.4338,2.4838,2.5312,2.5312,2.5312,2.5312,2.5312,2.5312,2.5312,2.5312,2.5312,2.5312,2.5312,2.5312,2.5432,2.5961,2.6496,2.703,2.7577,2.8106,2.849,2.849,2.859,2.8637,2.853,2.9678,3.084,3.1389,3.18,3.2101,3.2264,3.2601,3.3005,3.3536,3.3518,3.3605,3.3951,3.4003,3.4037,3.4145,3.4071,3.4122,3.438,3.4157,3.4122,3.4397,3.414,3.4122,3.4397,3.423,3.4162,3.4162,3.4329,3.4397,3.4397,3.4397,3.4397,1.0643,1.0848,1.1142,1.0863,1.0951,0.0,0.0,1.0135,1.028,1.1243,1.1159,1.123,1.2305,1.2936,1.3333,1.3432,1.4487,1.5562,1.6348,1.7005,1.76,1.8144,1.8616,1.9137,1.9739,1.9931,2.0153,2.0511,2.0264,2.0486,2.135,2.1146,2.128,2.1878,2.1894,2.1894,2.1894,2.2092,2.2197,2.2197,2.2197,2.2197,2.2197,2.2197,2.2197,2.2197,2.2197,2.2197,2.2197,2.2197,2.2197,2.2285,2.3079,2.3565,2.389,2.4626,2.5066,2.5312,2.5312,2.5312,2.5312,2.5312,2.5312,2.5312,2.5312,2.5312,2.5312,2.5312,2.5312,2.5492,2.6291,2.67,2.7184,2.8297,2.8746,2.8947,2.8948,2.9413,2.9776,2.9492,3.0677,3.1519,3.091,3.1437,3.1992,3.2083,3.2439,3.2846,3.3245,3.321,3.328,3.3559,3.3747,3.3851,3.3851,3.4023,3.4157,3.4157,3.4071,3.4074,3.423,3.402,3.4003,3.4261,3.4247,3.4247,3.4247,3.4346,3.4397,3.4397,3.4397,3.4397,1.1413,1.1437,1.1726,1.1803,1.1311,1.0904,0.0,0.0,0.0,1.1497,1.1432,1.1383,1.2121,1.2777,1.3239,1.328,1.4177,1.4845,1.4794,1.614,1.7299,1.7777,1.8254,1.8722,1.9153,1.9379,1.9584,1.9767,1.9722,2.0091,2.104,2.1105,2.1312,2.1786,2.1862,2.1921,2.1968,2.2123,2.2197,2.2197,2.2197,2.2197,2.2197,2.2197,2.2197,2.2197,2.2197,2.2197,2.2197,2.2197,2.2258,2.2454,2.3416,2.3806,2.3926,2.4927,2.5312,2.5312,2.5312,2.5312,2.5312,2.5312,2.5312,2.5312,2.5312,2.5312,2.5312,2.5312,2.5312,2.551,2.6496,2.676,2.7101,2.8565,2.8915,2.8951,2.9051,2.9936,3.0567,3.0112,3.1016,3.1426,3.0158,3.0746,3.1455,3.1621,3.2055,3.2503,3.2846,3.2881,3.297,3.3164,3.3493,3.3664,3.3553,3.4005,3.4208,3.3951,3.4023,3.4059,3.4094,3.3968,3.3951,3.4059,3.4176,3.4278,3.4346,3.4312,3.4329,3.4397,3.4397,3.4397,1.3058,1.3378,1.3547,1.1944,1.2503,1.2903,1.0747,0.0,1.1047,1.0805,0.0,1.0821,1.127,0.0,0.0,1.1491,1.2866,1.3719,1.3086,1.437,1.5584,1.6119,1.639,1.7141,1.872,1.8415,1.8479,1.9315,1.8609,1.8688,1.9927,2.0699,2.1206,2.1443,2.1761,2.1999,2.2154,2.2197,2.2197,2.2197,2.2197,2.2197,2.2197,2.2197,2.2197,2.2197,2.2197,2.2197,2.2197,2.2197,2.249,2.2971,2.3577,2.3806,2.3926,2.4927,2.5312,2.5312,2.5312,2.5312,2.5312,2.5312,2.5312,2.5312,2.5312,2.5312,2.5312,2.5312,2.5312,2.5444,2.6045,2.619,2.6364,2.7034,2.7179,2.7307,2.7794,2.8413,2.886,2.8743,2.9698,3.0803,3.1735,3.2005,3.2096,3.2114,3.2187,3.2282,3.2453,3.2471,3.2561,3.2757,3.3122,3.3347,3.3343,3.3709,3.3985,3.4059,3.3985,3.3985,3.4094,3.3968,3.3914,3.3931,3.3761,3.3833,3.4128,3.4005,3.4105,3.4397,3.4397,3.4397,1.3152,1.3398,1.3586,1.2571,1.2639,1.2644,1.1372,1.099,1.0964,1.1243,0.0,0.0,0.0,0.0,0.0,0.0,1.2765,1.3282,1.2764,1.3456,1.4373,1.5372,1.5495,1.6104,1.766,1.7862,1.8048,1.8394,1.781,1.7961,1.9154,1.986,2.0595,2.1392,2.1457,2.1708,2.2197,2.2197,2.2197,2.2197,2.2197,2.2197,2.2197,2.2197,2.2197,2.2197,2.2197,2.2197,2.2197,2.2197,2.2526,2.3055,2.3601,2.397,2.4302,2.5035,2.5312,2.5312,2.5312,2.5312,2.5312,2.5312,2.5312,2.5312,2.5312,2.5312,2.5312,2.5312,2.5312,2.5432,2.5961,2.6093,2.6402,2.7598,2.7881,2.8037,2.858,2.9441,2.9889,2.9169,3.0005,3.0977,3.1524,3.1616,3.174,3.2132,3.22,3.2223,3.2282,3.2282,3.2318,3.2408,3.2838,3.3072,3.2949,3.3539,3.3813,3.366,3.3692,3.3692,3.3643,3.3813,3.3862,3.3727,3.3761,3.3848,3.3971,3.3931,3.3968,3.4105,3.4193,3.423,1.3467,1.3618,1.3708,1.2965,1.2654,1.2349,1.1712,1.1481,1.1539,1.2072,1.2197,0.0,0.0,0.0,1.2864,1.2637,0.0,1.3123,1.2511,1.272,1.3322,1.4398,1.4834,1.551,1.6653,1.6902,1.7137,1.7472,1.6867,1.7071,1.8448,1.9098,1.9971,2.1137,2.123,2.1554,2.2185,2.2197,2.2197,2.2197,2.2197,2.2197,2.2197,2.2197,2.2197,2.2197,2.2197,2.2197,2.2197,2.2197,2.2598,2.3264,2.3649,2.4186,2.4765,2.5168,2.5312,2.5312,2.5312,2.5312,2.5312,2.5312,2.5312,2.5312,2.5312,2.5312,2.5312,2.5312,2.5312,2.5468,2.6142,2.6214,2.648,2.7992,2.8234,2.8331,2.9031,3.001,3.0528,2.9785,3.0498,3.1201,3.1201,3.1201,3.1431,3.2096,3.22,3.22,3.22,3.22,3.22,3.22,3.2628,3.2846,3.2632,3.3297,3.3608,3.3329,3.3382,3.3399,3.3312,3.3469,3.3556,3.3521,3.3556,3.364,3.3744,3.3678,3.3643,3.366,3.3868,3.3991,1.4519,1.4657,1.4474,1.2909,1.2802,1.2702,1.1346,1.2255,1.3357,1.3186,1.4283,1.5141,1.4776,1.4514,1.4058,1.3211,1.3422,0.0,0.0,1.2027,1.2372,1.274,1.4203,1.5395,1.589,1.5185,1.5277,1.6628,1.5577,1.5749,1.7727,1.859,1.9516,2.0596,2.1139,2.1656,2.2185,2.2197,2.2197,2.2197,2.2197,2.2197,2.2197,2.2197,2.2197,2.2197,2.2197,2.2197,2.2197,2.2197,2.2827,2.3782,2.3794,2.4403,2.5288,2.5282,2.5312,2.5312,2.5312,2.5312,2.5312,2.5312,2.5312,2.5312,2.5312,2.5312,2.5312,2.5312,2.5312,2.5534,2.6597,2.6484,2.637,2.7483,2.7332,2.7261,2.8374,2.9106,2.9701,3.0183,3.0777,3.1201,3.1201,3.1201,3.1431,3.2096,3.22,3.22,3.22,3.22,3.22,3.22,3.2503,3.2632,3.2435,3.297,3.3304,3.3304,3.3129,3.3094,3.3287,3.2935,3.2917,3.3304,3.2935,3.2935,3.3322,3.3129,3.3041,3.3041,3.342,3.3709,1.5279,1.5702,1.5758,1.4901,1.452,1.3987,1.2573,1.2968,1.3423,1.2697,1.396,1.4972,1.4203,1.4291,1.4303,1.3782,1.3591,1.3274,0.0,1.2176,1.2082,1.2463,1.4104,1.4991,1.4495,1.506,1.5649,1.6131,1.5846,1.608,1.7083,1.8245,1.9229,2.0045,2.05,2.1206,2.2185,2.2197,2.2197,2.2197,2.2197,2.2197,2.2197,2.2197,2.2197,2.2197,2.2197,2.2197,2.2197,2.2197,2.2827,2.3806,2.3806,2.4415,2.5312,2.5312,2.5312,2.5312,2.5312,2.5312,2.5312,2.5312,2.5312,2.5312,2.5312,2.5312,2.5312,2.5312,2.5312,2.548,2.6171,2.6238,2.637,2.7445,2.7565,2.7635,2.8368,2.901,2.9368,2.916,2.9928,3.0601,3.0601,3.0953,3.1431,3.2096,3.22,3.22,3.22,3.22,3.22,3.22,3.2377,3.2471,3.2417,3.2721,3.2899,3.2899,3.2846,3.2828,3.2899,3.2775,3.2757,3.2899,3.2775,3.2775,3.2899,3.2828,3.281,3.281,3.2793,3.2984,1.5904,1.6303,1.6437,1.6149,1.5864,1.5252,1.3769,1.4214,1.467,1.374,1.4873,1.5946,1.5706,1.5451,1.5112,1.4619,1.4024,1.3345,0.0,1.2058,1.1839,1.2053,1.3378,1.4147,1.3841,1.4238,1.4821,1.5556,1.5429,1.5776,1.6851,1.7973,1.9049,2.0045,2.0346,2.1027,2.2185,2.2197,2.2197,2.2197,2.2197,2.2197,2.2197,2.2197,2.2197,2.2197,2.2197,2.2197,2.2209,2.2417,2.3007,2.3818,2.3982,2.4554,2.5312,2.5312,2.5312,2.5312,2.5312,2.5312,2.5312,2.5312,2.5312,2.5312,2.5312,2.5312,2.5312,2.5312,2.5312,2.548,2.6202,2.6376,2.664,2.7733,2.7986,2.8129,2.8703,2.9138,2.9341,2.9165,2.9774,3.0298,3.0298,3.079,3.1431,3.2096,3.22,3.22,3.22,3.22,3.22,3.22,3.2282,3.2322,3.2322,3.2449,3.2521,3.2521,3.2632,3.2668,3.2596,3.2668,3.2668,3.2596,3.2556,3.2521,3.2521,3.2521,3.2521,3.2521,3.2395,3.2467]},{"header":{"parameterUnit":"m.s-1","parameterCategory":1,"la1":30.6,"la2":29.2853,"lo1":-89.7004,"lo2":-87.6739,"dy":0.0162,"dx":0.0183,"nx":112,"ny":82,"refTime":"2026-02-22T12:00:00:Z","depth":0,"parameterNumber":3,"parameterNumberName":"V-component_of_WINDS"},"data":[0.0,0.0,0.0,0.0,0.0,0.0,0.0,0.0,0.0,0.0,0.0,0.0,0.0,0.0,0.0,0.0,0.0,0.0,0.0,0.0,0.0,0.0,0.0,0.0,0.0,0.0,0.0,0.0,0.0,0.0,0.0,0.0,0.0,0.0,0.0,0.0,0.0,0.0,0.0,0.0,0.0,0.0,0.0,0.0,0.0,0.0,0.0,0.0,0.0,0.0,0.0,0.0,0.0,0.0,0.0,0.0,0.0,0.0,0.0,0.0,0.0,0.0,0.0,0.0,0.0,0.0,0.0,0.0,0.0,0.0,0.0,0.0,0.0,0.0,0.0,0.0,0.0,0.0,0.0,0.0,0.0,0.0,0.0,0.0,0.0,0.0,0.0,0.0,0.0,0.0,1.1508,1.2935,1.4402,1.5038,1.4444,1.3954,1.2439,0.9547,0.0,0.0,0.0,0.0,0.0,0.0,0.0,0.0,0.0,0.0,0.0,0.0,0.0,0.0,0.0,0.0,0.0,0.0,0.0,0.0,0.0,0.0,0.0,0.0,0.0,0.0,0.0,0.0,0.0,0.0,0.0,0.0,0.0,0.0,0.0,0.0,0.0,0.0,0.0,0.0,0.0,0.0,0.0,0.0,0.0,0.0,0.0,0.0,0.0,0.0,0.0,0.0,0.0,0.0,0.0,0.0,0.0,0.0,0.0,0.0,0.0,0.0,0.0,0.0,0.0,0.0,0.0,0.0,0.0,0.0,0.0,0.0,0.0,0.0,0.0,0.0,0.0,0.0,0.0,0.0,0.0,0.0,0.0,0.0,0.0,0.0,0.0,0.0,0.0,0.0,0.0,0.0,0.0,0.0,0.0,0.0,0.0,0.0,0.0,0.0,0.0,0.0,0.0,0.0,1.1978,1.4985,1.6038,1.5951,1.4519,1.4171,1.2763,0.9827,0.0,0.0,0.0,0.0,0.0,0.0,0.0,0.0,0.0,0.0,0.0,0.0,0.0,0.0,0.0,0.0,0.0,0.0,0.0,0.0,0.0,0.0,0.0,0.0,0.0,0.0,0.0,0.0,0.0,0.0,0.0,0.0,0.0,0.0,0.0,0.0,0.0,0.0,0.0,0.0,0.0,0.0,0.0,0.0,0.0,0.0,0.0,0.0,0.0,0.0,0.0,0.0,0.0,0.0,0.0,0.0,0.0,0.0,0.0,0.0,0.0,0.0,0.0,0.0,0.0,0.0,0.0,0.0,0.0,0.0,0.0,0.0,0.0,0.0,0.0,0.0,0.0,0.0,0.0,0.0,0.0,0.0,0.0,0.0,0.0,0.0,0.0,0.0,0.0,0.0,0.0,0.0,0.0,0.0,0.0,0.0,0.0,0.0,0.0,0.0,0.0,0.0,0.0,1.2002,1.342,1.572,1.6275,1.5965,1.4667,1.4276,1.2862,0.9986,0.9342,0.0,0.0,0.0,0.0,0.0,0.0,0.0,0.0,0.0,0.0,0.0,0.0,0.0,0.0,0.0,0.0,0.0,0.0,0.0,0.0,0.0,0.0,0.0,0.0,0.0,0.0,0.0,0.0,0.0,0.0,0.0,0.0,0.0,0.0,0.0,0.0,0.0,0.0,0.0,0.0,0.0,0.0,0.0,0.0,0.0,0.0,0.0,0.0,0.0,0.0,0.0,0.0,0.0,0.0,0.0,0.0,0.0,0.0,0.0,0.0,0.0,0.0,0.0,0.0,0.0,0.0,0.0,0.0,0.0,0.0,0.0,0.0,0.0,0.0,0.0,0.0,0.0,0.0,0.0,0.0,0.0,0.0,0.0,0.0,0.0,0.0,0.0,0.0,0.0,0.0,0.0,0.0,0.0,0.0,0.0,0.0,0.0,0.0,0.0,0.0,0.0,0.0,1.3883,1.5145,1.6009,1.6254,1.5903,1.4782,1.4177,1.2709,1.0069,0.9281,0.0,0.0,0.0,0.0,0.0,0.0,0.0,0.0,0.0,0.0,0.0,0.0,0.0,0.0,0.0,0.0,0.0,0.0,0.0,0.0,0.0,0.0,0.0,0.0,0.0,0.0,0.0,0.0,0.0,0.0,0.0,0.0,0.0,0.0,0.0,0.0,0.0,0.0,0.0,0.0,0.0,0.0,0.0,0.0,0.0,0.0,0.0,0.0,0.0,0.0,0.0,0.0,0.0,0.0,0.0,0.0,0.0,0.0,0.0,0.0,0.0,0.0,0.0,0.0,0.0,0.0,0.0,0.0,0.0,0.0,0.0,0.0,0.0,0.0,0.0,0.0,0.0,0.0,0.0,0.0,0.0,0.0,0.0,0.0,0.0,0.0,0.0,0.0,0.0,0.0,0.0,0.0,0.0,0.0,0.0,0.0,0.0,0.0,0.0,0.0,0.0,0.0,1.4755,1.6958,1.6176,1.6552,1.6266,1.4824,1.3697,1.2177,1.0026,0.8758,0.0,0.0,0.0,0.0,0.0,0.0,0.0,0.0,0.0,0.0,0.0,0.0,0.0,0.0,0.0,0.0,0.0,0.0,0.0,0.0,0.0,0.0,0.0,0.0,0.0,0.0,0.0,0.0,0.0,0.0,0.0,0.0,0.0,0.0,0.0,0.0,0.0,0.0,0.0,0.0,0.0,0.0,0.0,0.0,0.0,0.0,0.0,0.0,0.0,0.0,0.0,0.0,0.0,0.0,0.0,0.0,0.0,0.0,0.0,0.0,0.0,0.0,0.0,0.0,0.0,0.0,0.0,0.0,0.0,0.0,0.0,0.0,0.0,0.0,0.0,0.0,0.0,0.0,0.0,0.0,0.0,0.0,0.0,0.0,0.0,0.0,0.0,0.0,0.0,0.0,0.0,0.0,0.0,0.0,0.0,0.0,0.0,0.0,0.0,0.0,0.0,0.0,1.4395,1.639,1.6574,1.6558,1.6169,1.527,1.3859,1.2047,0.9796,0.0,0.0,0.0,0.0,0.0,0.0,0.0,0.0,0.0,0.0,0.0,0.0,0.0,0.0,0.0,0.0,0.0,0.0,0.0,0.0,0.0,0.0,0.0,0.0,0.0,0.0,0.0,0.0,0.0,0.0,0.0,0.0,0.0,0.0,0.0,0.0,0.0,0.0,0.0,0.0,0.0,0.0,0.0,0.0,0.0,0.0,0.0,0.0,0.0,0.0,0.0,0.0,0.0,0.0,0.0,0.0,0.0,0.0,0.0,0.0,0.0,0.0,0.0,0.0,0.0,0.0,0.0,0.0,0.0,0.0,0.0,0.0,0.0,0.0,0.0,0.0,0.0,0.0,0.0,0.0,0.0,0.0,0.0,0.0,0.0,0.0,0.0,0.0,0.0,0.0,0.0,0.0,0.0,0.0,0.0,0.0,0.0,0.0,0.0,0.0,0.0,0.0,1.18,1.4463,1.6312,1.6447,1.6366,1.591,1.495,1.3386,1.1596,0.9594,0.0,0.0,0.0,0.0,0.0,0.0,0.0,0.0,0.0,0.0,0.0,0.0,0.0,0.0,0.0,0.0,0.0,0.0,0.0,0.0,0.0,0.0,0.0,0.0,0.0,0.0,0.0,0.0,0.0,0.0,0.0,0.0,0.0,0.0,0.0,0.0,0.0,0.0,0.0,0.0,0.0,0.0,0.0,0.0,0.0,0.0,0.0,0.0,0.0,0.0,0.0,0.0,0.0,0.0,0.0,0.0,0.0,0.0,0.0,0.0,0.0,0.0,0.0,0.0,0.0,0.0,0.0,0.0,0.0,0.0,0.0,0.0,0.0,0.0,0.0,0.0,0.0,0.0,0.0,0.0,0.0,0.0,0.0,0.0,0.0,0.0,0.0,0.0,0.0,0.0,0.0,0.0,0.0,0.0,0.0,0.0,0.0,0.0,0.0,0.0,0.0,0.0,1.1728,1.5199,1.7133,1.5666,1.5989,1.5542,1.3677,1.2168,1.0758,0.0,0.0,0.0,0.0,0.0,0.0,0.0,0.0,0.0,0.0,0.0,0.0,0.0,0.0,0.0,0.0,0.0,0.0,0.0,0.0,0.0,0.0,0.0,0.0,0.0,0.0,0.0,0.0,0.0,0.0,0.0,0.0,0.0,0.0,0.0,0.0,0.0,0.0,0.0,0.0,0.0,0.0,0.0,0.0,0.0,0.0,0.0,0.0,0.0,0.0,0.0,0.0,0.0,0.0,0.0,0.0,0.0,0.0,0.0,0.0,0.0,0.0,0.0,0.0,0.0,0.0,0.0,0.0,0.0,0.0,0.0,0.0,0.0,0.0,0.0,0.0,0.0,0.0,0.0,0.0,0.0,0.0,0.0,0.0,0.0,0.0,0.0,0.0,0.0,0.0,0.0,0.0,0.0,0.0,0.0,0.0,0.0,0.0,0.0,0.0,0.0,0.0,0.0,1.1892,1.4761,1.6732,1.6572,1.64,1.5859,1.4723,1.31,1.1192,0.8978,0.0,0.0,0.0,0.0,0.0,0.0,0.0,0.0,0.0,0.0,0.0,0.0,0.0,0.0,0.0,0.0,0.0,0.0,0.0,0.0,0.0,0.0,0.0,0.0,0.0,0.0,0.0,0.0,0.0,0.0,0.0,0.0,0.0,0.0,0.0,0.0,0.0,0.0,0.0,0.0,0.0,0.0,0.0,0.0,0.0,0.0,0.0,0.0,0.0,0.0,0.0,0.0,0.0,0.0,0.0,0.0,0.0,0.0,0.0,0.0,0.0,0.0,0.0,0.0,0.0,0.0,0.0,0.0,0.0,0.0,0.0,0.0,0.0,0.0,0.0,0.0,0.0,0.0,0.0,0.0,0.0,0.0,0.0,0.0,0.0,0.0,0.0,0.0,0.0,0.0,0.0,0.0,0.0,0.0,0.0,0.0,0.0,0.0,0.0,0.0,0.0,0.0,1.2043,1.446,1.6151,1.6193,1.6257,1.5752,1.443,1.3061,1.1326,0.9024,0.0,0.0,0.0,0.0,0.0,0.0,0.0,0.0,0.0,0.0,0.0,0.0,0.0,0.0,0.0,0.0,0.0,0.0,0.0,0.0,0.0,0.0,0.0,0.0,0.0,0.0,0.0,0.0,0.0,0.0,0.0,0.0,0.0,0.0,0.0,0.0,0.0,0.0,0.0,0.0,0.0,0.0,0.0,0.0,0.0,0.0,0.0,0.0,0.0,0.0,0.0,0.0,0.0,0.0,0.0,0.0,0.0,0.0,0.0,0.0,0.0,0.0,0.0,0.0,0.0,0.0,0.0,0.0,0.0,0.0,0.0,0.0,0.0,0.0,0.0,0.0,0.0,0.0,0.0,0.0,0.0,0.0,0.0,0.0,0.0,0.0,0.0,0.0,0.0,0.0,0.0,0.0,0.0,0.0,0.0,0.0,0.0,0.0,0.0,0.0,0.0,0.0,1.2151,1.4161,1.5376,1.5045,1.5706,1.5362,1.3336,1.2485,1.1283,0.9452,0.0,0.0,0.0,0.0,0.0,0.0,0.0,0.0,0.0,0.0,0.0,0.0,0.0,0.0,0.0,0.0,0.0,0.0,0.0,0.0,0.0,0.0,0.0,0.0,0.0,0.0,0.0,0.0,0.0,0.0,0.0,0.0,0.0,0.0,0.0,0.0,0.0,0.0,0.0,0.0,0.0,0.0,0.0,0.0,0.0,0.0,0.0,0.0,0.0,0.0,0.0,0.0,0.0,0.0,0.0,0.0,0.0,0.0,0.0,0.0,1.7134,1.6165,0.0,0.0,0.0,0.0,0.0,0.0,0.0,0.0,0.0,0.0,0.0,0.0,0.0,0.0,0.0,0.0,0.0,0.0,0.0,0.0,0.0,0.0,0.0,0.0,0.0,0.0,0.0,0.0,0.0,0.0,0.0,0.0,0.0,0.0,0.0,0.0,0.0,0.0,0.0,0.0,1.2057,1.3297,1.4285,1.4928,1.5171,1.4807,1.3675,1.2908,1.1653,0.974,0.8148,0.0,0.0,0.0,0.0,0.0,0.0,0.0,0.0,0.0,0.0,0.0,0.0,0.0,0.0,0.0,0.0,0.0,0.0,0.0,0.0,0.0,0.0,0.0,0.0,0.0,0.0,0.0,0.0,0.0,0.0,0.0,0.0,0.0,0.0,0.0,0.0,0.0,0.0,0.0,0.0,0.0,0.0,0.0,0.0,0.0,0.0,0.0,0.0,0.0,0.0,0.0,0.0,0.0,0.0,0.0,0.0,0.0,0.0,0.0,1.8818,1.7873,0.0,0.0,0.0,0.0,0.0,0.0,0.0,0.0,0.0,0.0,0.0,0.0,0.0,0.0,0.0,0.0,0.0,0.0,0.0,0.0,0.0,0.0,0.0,0.0,0.0,0.0,0.0,0.0,0.0,0.0,0.0,0.0,0.0,0.0,0.0,0.0,0.0,0.0,0.0,0.0,1.2036,1.2843,1.3617,1.4562,1.4683,1.444,1.376,1.285,1.1689,1.0217,0.8599,0.0,0.0,0.0,0.0,0.0,0.0,0.0,0.0,0.0,0.0,0.0,0.0,0.0,0.0,0.0,0.0,0.0,0.0,0.0,0.0,0.0,0.0,0.0,0.0,0.0,0.0,0.0,0.0,0.0,0.0,0.0,0.0,0.0,0.0,0.0,0.0,0.0,0.0,0.0,0.0,0.0,0.0,0.0,0.0,0.0,0.0,0.0,0.0,0.0,0.0,0.0,0.0,0.0,2.1985,2.2244,2.2836,2.2787,2.2609,2.2235,2.0667,2.0004,1.9871,1.8164,0.0,0.0,0.0,0.0,0.0,0.0,0.0,0.0,0.0,0.0,0.0,0.0,0.0,0.0,0.0,0.0,0.0,0.0,0.0,0.0,0.0,0.0,1.4083,1.4367,1.4418,1.4033,1.2797,0.0,0.0,0.0,0.0,0.0,0.0,0.0,0.0,0.0,0.0,0.0,1.2068,1.2648,1.3225,1.4097,1.4231,1.4099,1.3726,1.2765,1.1794,1.0886,0.9281,0.7966,0.0,0.0,0.0,0.0,0.0,0.0,0.0,0.0,0.0,0.0,0.0,0.0,0.0,0.0,0.0,0.0,0.0,0.0,0.0,0.0,0.0,0.0,0.0,0.0,0.0,0.0,0.0,0.0,0.0,0.0,0.0,0.0,1.5762,1.6484,0.0,0.0,0.0,0.0,0.0,0.0,0.0,0.0,0.0,0.0,0.0,0.0,0.0,2.1356,2.1939,2.3065,2.3523,2.3368,2.3803,2.395,2.3831,2.4089,2.3971,2.3531,2.3001,0.0,1.9672,1.9667,0.0,0.0,0.0,0.0,0.0,0.0,0.0,0.0,0.0,0.0,0.0,0.0,0.0,0.0,0.0,0.0,0.0,0.0,0.0,0.0,0.0,0.0,1.612,1.6152,1.5828,1.5551,1.5813,1.4276,1.26,1.1735,1.0921,1.0197,0.0,0.0,0.0,0.0,0.0,0.0,1.2162,1.2648,1.3101,1.364,1.3705,1.3681,1.362,1.3164,1.2534,1.1779,1.0529,0.9352,0.8306,0.7059,0.0,0.0,0.0,0.0,0.0,0.0,0.0,0.0,0.0,0.0,0.0,0.0,0.0,0.0,0.0,0.0,0.0,0.0,0.0,0.0,0.0,0.0,0.0,0.0,0.0,0.0,0.0,0.0,0.0,1.6565,1.7507,1.7338,1.7683,1.7827,0.0,0.0,0.0,0.0,0.0,0.0,0.0,0.0,0.0,2.1952,2.2838,2.3578,2.415,2.4861,2.5367,2.5673,2.5924,2.6187,2.6477,2.661,2.6433,2.5974,2.5553,2.442,2.2767,2.1677,2.0549,1.9556,0.0,0.0,0.0,0.0,2.0078,1.9355,2.0678,2.0391,1.9327,1.8618,0.0,0.0,0.0,0.0,0.0,0.0,0.0,1.6274,1.6348,1.6691,1.7087,1.7377,1.7287,1.7174,1.7402,1.6686,1.5384,1.3271,1.2332,1.1586,1.0592,1.0207,0.0,0.0,0.0,1.154,1.2214,1.2648,1.308,1.3557,1.3408,1.3266,1.3266,1.2723,1.2151,1.16,1.0469,0.9494,0.8757,0.764,0.68,0.0,0.0,0.0,0.0,0.0,0.0,0.0,0.0,0.0,0.0,0.0,0.0,0.0,0.0,0.0,0.0,0.0,0.0,0.0,0.0,0.0,0.0,0.0,0.0,0.0,0.0,0.0,0.0,1.7859,1.891,1.8416,1.9192,1.9457,0.0,0.0,0.0,0.0,0.0,0.0,2.1113,2.2302,2.326,2.3916,2.4897,2.5627,2.6062,2.654,2.7088,2.7659,2.7659,2.7912,2.8409,2.8286,2.7961,2.7492,2.7031,2.6312,2.5299,2.3295,2.1977,2.1234,2.1569,2.1084,2.0389,2.1854,2.1565,2.0704,2.2348,2.2113,2.0979,2.0398,1.9473,1.8384,1.7329,0.0,0.0,0.0,0.0,1.7451,1.7867,1.7917,1.7949,1.8317,1.8405,1.8405,1.8405,1.8285,1.741,1.4848,1.3984,1.3335,1.2174,1.1776,0.0,1.1171,1.1693,1.2193,1.2421,1.2812,1.3204,1.3567,1.3326,1.3148,1.3148,1.2552,1.1969,1.1483,1.0459,0.964,0.9093,0.8148,0.7409,0.6911,0.0,0.0,0.0,0.0,0.0,0.0,0.0,0.0,0.0,0.0,0.0,0.0,0.0,0.0,0.0,0.0,0.0,0.0,0.0,0.0,0.0,0.0,0.0,0.0,0.0,0.0,0.0,0.0,0.0,1.9816,2.1212,0.0,0.0,0.0,0.0,2.2313,2.1932,2.2523,2.4455,2.451,2.4847,2.5647,2.6767,2.7345,2.7307,2.8399,2.8836,2.8637,2.8637,2.8557,2.8383,2.7941,2.7472,2.701,2.6607,2.6115,2.5485,2.4107,2.3167,2.2579,2.2283,2.1922,2.1729,2.2761,2.2899,2.2658,2.3319,2.3129,2.2477,2.1819,2.0066,1.8212,1.8138,1.7772,0.0,0.0,1.7827,1.8315,1.8213,1.8639,1.9079,1.897,1.8958,1.8958,1.8958,1.851,1.7763,1.6581,1.6079,1.5637,1.4997,0.0,1.3576,1.3619,1.3551,1.335,1.2925,1.3288,1.3566,1.3609,1.3575,1.3573,1.3573,1.3194,1.2646,1.1925,1.1104,1.0325,0.9598,0.8717,0.8097,0.7745,0.6945,0.0,0.0,0.0,0.0,0.0,0.0,0.0,0.0,0.0,0.0,0.0,0.0,0.0,0.0,0.0,0.0,0.0,0.0,0.0,0.0,0.0,0.0,0.0,0.0,0.0,0.0,0.0,0.0,2.2182,2.3195,0.0,2.2422,2.2923,2.3389,2.3542,2.3831,2.4546,2.5824,2.651,2.7117,2.7701,2.8626,2.8876,2.8365,2.9235,2.9493,2.9166,2.9639,2.9822,2.9754,2.9578,2.925,2.8774,2.8336,2.7829,2.7235,2.6037,2.5162,2.4593,2.492,2.4679,2.4309,2.51,2.5036,2.46,2.4811,2.425,2.3245,2.2278,2.1068,1.9995,1.9995,1.9636,1.9178,1.9092,1.9256,1.9433,1.9483,1.9598,1.9712,1.975,1.9762,1.9762,1.9762,1.9547,1.9108,1.8376,1.7241,1.6021,1.4859,1.4372,1.3847,1.2968,1.3271,1.3433,1.2956,1.3307,1.3609,1.3609,1.3609,1.3503,1.3242,1.285,1.2307,1.1558,1.092,1.0279,0.9626,0.9265,0.8691,0.7876,0.729,0.6363,0.0,0.0,0.0,0.0,0.0,0.0,0.0,0.0,0.0,0.0,0.0,0.0,0.0,0.0,0.0,0.0,0.0,0.0,0.0,0.0,0.0,0.0,0.0,0.0,0.0,2.2054,2.3247,2.3837,2.4837,2.5069,2.401,2.4783,2.5377,2.5431,2.6055,2.6819,2.7764,2.8351,2.8843,2.9181,2.9716,2.9781,2.9274,2.9873,3.0029,2.9787,3.0257,3.0506,3.0506,3.0506,3.0231,2.9761,2.9303,2.8807,2.8221,2.7315,2.6674,2.6273,2.627,2.5989,2.5648,2.6093,2.5989,2.5601,2.5592,2.4814,2.3683,2.2915,2.2191,2.1617,2.1617,2.1364,2.1095,2.1223,2.0862,2.0502,2.0745,2.0488,2.0169,2.0195,2.0207,2.0207,2.0207,2.0131,1.9902,1.9367,1.8118,1.68,1.5724,1.5291,1.4764,1.3765,1.3878,1.3902,1.3424,1.3516,1.3609,1.3609,1.3609,1.3491,1.323,1.2732,1.2167,1.1502,1.0908,1.0213,0.9403,0.948,0.9019,0.792,0.7391,0.6666,0.5703,0.0,0.0,0.0,0.0,0.0,0.0,0.0,0.0,0.0,0.0,0.0,0.0,0.0,0.0,0.0,0.0,0.0,0.0,0.0,0.0,0.0,0.0,0.0,2.1425,2.2834,2.4009,2.4724,2.6146,2.6485,2.4998,2.6683,2.7964,2.8163,2.8576,2.9303,3.0366,3.0042,2.9891,3.0058,3.006,3.006,3.0041,3.0366,3.0547,3.057,3.0553,3.057,3.0576,3.0566,3.0307,2.982,2.9366,2.8838,2.8267,2.7825,2.7615,2.7465,2.6168,2.5663,2.5663,2.5663,2.5663,2.5663,2.5651,2.4871,2.3881,2.3883,2.3407,2.2844,2.2857,2.2844,2.2949,2.3534,2.2585,2.1498,2.195,2.1309,2.0499,2.0309,2.0246,2.022,2.022,2.0207,2.0054,1.954,1.8786,1.8133,1.7846,1.7097,1.6468,1.6222,1.5525,0.0,1.4354,1.3909,1.3619,1.3619,1.3619,1.3619,1.3619,1.2936,1.2313,1.1849,1.111,1.0154,0.8991,0.936,0.9067,0.7937,0.7339,0.6948,0.6732,0.0,0.0,0.0,0.0,0.0,0.0,0.0,0.0,0.0,0.0,0.0,0.0,0.0,0.0,0.0,0.0,0.0,0.0,0.0,0.0,0.0,2.1626,2.3238,2.4005,2.4375,2.5225,2.7038,2.8131,2.8559,2.8156,2.9055,2.9704,2.9766,2.9624,2.9904,3.0791,3.0727,3.0828,3.1156,3.1345,3.132,3.11,3.1289,3.1599,3.2015,3.1877,3.2025,3.2454,3.2214,3.1545,3.0608,3.0565,2.9699,2.8298,2.8328,2.8036,2.7555,2.7183,2.7048,2.7048,2.7048,2.7048,2.6999,2.6545,2.6147,2.5761,2.5308,2.4487,2.3729,2.4069,2.3662,2.3198,2.3701,2.3526,2.3236,2.3451,2.2633,2.1735,2.1798,2.1164,2.0561,2.0561,2.0499,2.0371,2.0229,1.9591,1.8776,1.7871,1.7531,1.7051,1.6112,1.5783,1.5324,1.442,1.42,1.4105,1.4105,1.4105,1.4105,1.4105,1.3306,1.2645,1.2323,1.1164,1.0294,0.986,0.9635,0.9145,0.8351,0.8128,0.7841,0.0,0.0,0.0,0.0,0.0,0.0,0.0,0.0,0.0,0.0,0.0,0.0,0.0,0.0,0.0,0.0,0.0,0.0,0.0,0.0,0.0,0.0,2.3237,2.4717,2.6046,2.6033,2.6596,2.8491,2.9112,2.9522,2.9826,3.0509,3.0932,3.0932,3.1008,3.1259,3.1725,3.154,3.1471,3.1603,3.1884,3.1873,3.155,3.1921,3.2286,3.264,3.253,3.2653,3.2982,3.279,3.2314,3.1633,3.1254,3.0467,2.9449,2.9143,2.8785,2.8378,0.0,0.0,0.0,0.0,2.76,2.7549,2.7203,2.6888,2.6577,2.6232,2.5678,2.5172,2.5465,2.513,2.4781,2.5295,2.4918,2.4453,2.4771,2.3925,2.2949,2.2785,2.2235,2.1622,2.1144,2.0964,2.0848,2.0639,2.0238,0.0,1.8747,1.8153,1.7521,1.662,1.6268,1.5782,1.4881,1.4593,1.4368,1.4118,1.4085,1.4073,1.4002,1.3351,0.0,0.0,0.0,1.0807,1.0382,0.9672,0.0,0.0,0.0,0.0,0.0,0.8809,0.0,0.0,0.7311,0.6997,0.0,0.0,0.0,0.0,0.0,0.0,0.0,0.0,0.0,0.0,0.0,0.0,0.0,0.0,0.0,0.0,2.4737,2.5403,2.7624,2.7668,2.7961,2.929,2.958,2.9922,3.0575,3.1367,3.1839,3.1839,3.2396,3.274,3.274,3.2292,0.0,0.0,0.0,3.2101,3.1843,3.2529,3.289,3.2968,3.2946,3.2957,3.2995,3.2973,3.2917,3.2779,3.1795,3.1251,3.1026,3.0091,2.9653,2.9458,2.8214,2.7705,2.7705,2.763,2.76,2.76,2.76,0.0,0.0,2.6801,2.6762,2.6709,2.6788,2.6747,2.6827,2.742,2.6495,2.5416,2.5957,2.5198,2.4182,2.3632,2.3396,2.3011,2.1917,2.1681,2.1498,2.0908,2.0791,2.0588,1.9991,1.897,1.802,1.7475,1.692,1.6332,1.5633,1.5169,1.4703,1.4131,1.4076,0.0,1.38,1.3442,1.3159,1.3018,1.2271,1.1474,1.0656,0.9698,0.9482,1.0095,1.0128,1.0128,1.0074,1.0301,1.0258,0.994,0.8848,0.811,0.0,0.0,0.0,0.0,0.0,0.0,0.0,0.0,0.0,0.0,0.0,0.0,0.0,0.0,0.0,2.5563,2.6604,2.7704,2.8701,2.8655,2.8796,2.9559,3.061,3.1314,3.1457,3.2196,3.2668,3.2668,3.2501,3.2404,3.2404,3.2249,3.2254,3.2475,3.2764,3.3066,3.338,3.3689,3.4066,3.4542,3.4391,0.0,3.4863,3.4713,3.4258,3.3561,3.3146,3.2254,3.1057,3.0549,3.0042,2.9518,2.8725,2.8412,2.8338,2.7809,2.76,2.76,2.76,2.7522,2.742,2.742,2.71,2.6801,2.728,2.7087,0.0,2.742,2.7356,2.7126,2.7242,2.6426,2.5526,2.5412,2.4628,2.3724,2.3023,2.2879,2.2574,2.1537,2.1355,2.1172,2.0627,1.9927,1.9114,1.8093,1.7861,1.7428,1.6488,1.6291,1.6127,1.5848,1.5717,1.545,1.4931,1.4718,1.4328,1.3678,1.2636,1.1635,1.0721,1.0484,1.0294,1.0092,1.0713,1.0883,1.0569,1.0936,1.1072,1.0983,1.0168,0.9719,0.0,0.0,0.0,0.0,0.0,0.0,0.0,0.0,0.0,0.0,0.0,2.4662,2.4566,0.0,2.679,2.7098,2.8054,2.9018,2.9743,3.0396,3.0851,3.0941,3.1038,3.1436,3.2278,3.2684,3.29,3.29,3.269,3.2557,3.2557,3.2842,3.294,3.2802,3.3659,3.407,3.4011,3.4464,3.4854,3.5147,3.5053,3.5127,3.5344,3.497,3.4553,3.4116,3.3406,3.2659,3.1917,3.1436,3.1075,3.0728,3.0065,2.9504,2.9054,2.871,2.8603,2.8603,2.8603,2.8603,2.8603,2.8603,2.817,2.772,2.8006,2.7665,2.7216,2.7524,2.76,2.76,2.76,2.6932,2.6255,2.6287,2.5582,2.4675,2.3819,2.3647,2.3298,2.2167,2.1943,2.172,2.0927,2.0552,1.9967,1.8826,1.8444,1.7934,1.6935,1.68,1.6647,1.6236,1.6083,1.5805,1.5338,1.5185,1.4838,1.4185,1.3274,1.2478,1.1885,1.146,1.1251,1.1255,1.1649,1.1752,1.1546,1.1752,1.1846,1.1837,1.1466,1.1139,0.0,0.0,0.0,0.0,0.0,0.0,0.0,2.1911,2.3213,2.4149,2.6133,2.7626,2.7299,2.7778,2.8353,2.8802,2.9344,3.0037,3.0966,3.1943,3.2569,3.2564,3.156,3.1428,3.2898,3.2852,3.2787,3.2906,3.287,3.2917,3.3076,3.3598,3.3776,3.3501,3.4651,3.5088,3.4698,3.52,3.5458,3.5458,3.5383,3.5343,3.528,3.4887,3.4618,3.4436,3.3293,3.2801,3.2747,3.2219,3.1996,3.1951,3.1418,3.0721,3.0019,2.9778,2.9672,2.9672,2.9672,2.9672,2.9659,2.9647,2.9274,2.8826,2.88,2.8425,2.7959,2.7824,2.7794,2.7764,2.763,2.721,2.6817,2.6865,2.6456,2.5808,2.4813,2.4612,2.4231,2.2963,2.2722,2.2402,2.1361,2.1192,2.0749,1.9442,1.8843,1.8275,1.7444,1.7266,1.7027,1.6504,1.6319,1.6099,1.5737,1.5475,1.5173,1.4797,1.4101,1.3539,1.3142,1.244,1.2162,1.2403,1.2403,1.2403,1.2403,1.2403,1.2446,1.2514,1.2514,1.2235,2.2702,2.1468,2.0718,2.1352,2.2109,2.3269,0.0,2.6798,2.7707,2.8528,2.9908,3.076,3.0014,3.0368,3.074,3.0561,3.0692,3.1284,3.2637,3.2241,3.2333,3.3716,3.2881,3.2451,3.3107,3.2514,3.2346,3.2933,3.2971,3.3325,3.4086,3.4203,3.4685,3.5621,3.5815,3.6068,3.6416,3.6151,3.6017,3.6017,3.565,3.5423,3.5291,3.5366,3.5053,3.4436,3.3293,3.2801,3.2747,3.2219,3.1996,3.1995,3.1919,3.1815,3.1589,3.0389,2.9963,2.9963,2.9963,2.9963,2.9936,2.9818,2.9733,2.9633,2.9514,2.9442,2.9249,2.8665,2.8487,2.8353,2.775,2.754,2.7482,2.7494,2.7437,2.72,2.654,2.6409,2.5918,2.4245,2.3906,2.3541,2.2429,2.2228,2.1569,1.9672,1.9025,1.8734,1.8608,1.8234,1.7913,1.7723,1.7573,1.7313,1.6863,1.6214,1.5799,1.5753,1.5164,1.4455,1.3653,1.3186,1.2777,1.2417,1.2403,1.2403,1.2403,1.2403,1.2583,1.2926,1.2926,1.272,2.5459,2.4347,2.3412,2.3333,2.4354,2.5644,2.6716,2.7982,2.9343,3.0689,3.1782,3.2223,3.1348,3.1331,3.1362,3.113,3.1535,3.2207,3.3146,3.3004,3.3012,3.3575,3.2379,3.2058,3.3414,3.3136,3.2991,3.3275,3.3582,3.3932,3.4287,3.5194,3.5823,3.6113,3.6575,3.6701,3.6467,3.6287,3.6071,3.5816,3.5633,3.5526,3.5469,3.5211,3.4766,3.4177,3.3707,3.3498,3.3472,3.3253,3.2991,3.2709,3.2709,3.2709,3.2563,3.1535,3.1174,3.1174,3.1174,3.1174,3.1145,3.1091,3.082,3.0489,3.0436,3.0135,2.9771,2.9499,2.9358,2.9232,2.8959,2.8299,2.7793,2.8122,2.765,2.6942,2.627,2.591,2.5379,2.4259,2.3795,2.3411,2.2952,2.2871,2.2459,2.132,2.0776,2.03,1.9799,1.9292,1.8697,1.7973,1.7783,1.7629,1.7412,1.7048,1.6797,1.6717,1.6115,1.5522,1.4999,1.4179,1.3643,1.3441,1.318,1.304,1.304,1.304,1.3245,1.3622,1.3391,1.3337,2.6631,2.6042,2.5489,2.5171,2.6581,2.8046,2.8066,2.955,3.1228,3.2257,3.3059,3.3206,3.2075,3.1748,3.1654,3.1691,3.221,3.2901,3.3724,3.372,3.3658,3.3734,3.2478,3.2269,3.3883,3.3345,3.3071,3.3519,3.4049,3.4461,3.4701,3.6023,3.6767,3.6755,3.7327,3.7348,3.6836,3.6594,3.6294,3.5963,3.5717,3.56,3.5588,3.5045,3.4661,3.4431,3.4136,3.407,3.421,3.4061,3.3767,3.342,3.342,3.342,3.3355,3.2778,3.2563,3.2535,3.2384,3.2328,3.2287,3.2122,3.1732,3.1323,3.1282,3.0932,3.0506,3.0337,3.0211,3.0087,2.9904,2.912,2.8492,2.8847,2.8119,2.7203,2.6619,2.596,2.5284,2.4627,2.4064,2.359,2.3264,2.3196,2.3066,2.2674,2.2334,2.1784,2.0885,2.0211,1.945,1.85,1.827,1.8171,1.8171,1.8075,1.7948,1.7774,1.7052,1.6545,1.6343,1.5104,1.4457,1.4559,1.397,1.3673,1.3673,1.3547,1.3656,1.3922,1.3639,1.3716,2.5432,2.546,2.5719,2.6605,2.8769,3.0695,3.0761,3.2734,3.4316,3.3516,3.3955,3.3966,3.2309,3.1871,3.1989,3.2549,3.2787,3.3377,3.477,3.4233,3.3991,3.4751,3.3993,3.3754,3.4582,3.2671,3.2017,3.3588,3.4188,3.4867,3.5705,3.6544,3.7341,3.8111,3.8165,3.8157,3.8132,3.7301,3.687,3.685,3.5989,3.56,3.5588,3.5045,3.5068,3.5492,3.4456,3.4297,3.4749,3.4222,3.3998,3.3986,3.3986,3.3986,3.3973,3.396,3.3948,3.3856,3.3342,3.3156,3.3053,3.2411,3.2176,3.2132,3.2023,3.1965,3.1799,3.1146,3.0964,3.0813,3.0156,2.9957,2.9902,2.9801,2.9248,2.8699,2.8545,2.7527,2.6468,2.585,2.5315,2.4563,2.34,2.3196,2.3196,2.3183,2.3156,2.2793,2.1794,2.0905,2.0187,1.9701,1.9461,1.9361,1.9361,1.9334,1.9227,1.897,1.8019,1.7465,1.7446,1.5865,1.5123,1.545,1.4542,1.4076,1.4076,1.3691,1.3511,1.3513,1.3511,1.3716,2.6238,2.7558,2.8838,2.8604,3.0563,3.2377,3.1825,3.281,3.375,3.3457,3.3161,3.2776,3.2129,3.149,3.1464,3.2693,3.2971,3.3541,3.499,3.4481,3.4024,3.4143,3.2833,3.2458,3.3832,3.3477,3.3376,3.3929,3.4823,3.5491,3.5786,3.7069,3.7919,3.8182,3.82,3.8045,3.7739,3.7441,3.7036,3.6502,3.5893,3.56,3.5583,3.4903,3.4706,3.4856,3.4499,3.4425,3.4622,3.4926,3.4558,3.3806,3.3806,3.3498,3.3065,3.3065,3.33,3.3559,3.3291,3.3195,3.3106,3.252,3.2328,3.2315,3.2288,3.2274,3.2228,3.1999,3.1855,3.174,3.1525,3.1128,3.0752,3.0618,3.0158,2.9548,2.8891,2.8119,2.7335,2.6542,2.5674,2.4924,2.4468,2.4057,2.3797,2.3797,2.3536,2.2969,2.1966,2.127,2.0573,1.9782,1.9633,1.9603,1.9603,1.9603,1.9366,1.8822,1.8268,1.7643,1.693,1.5851,1.5127,1.4851,1.4313,1.3922,1.3708,1.3929,1.4127,1.4306,1.4306,1.4487,2.7825,2.9318,3.063,3.0755,3.2085,3.3221,3.2653,3.2967,3.3196,3.2595,3.2031,3.1444,3.0762,3.0156,3.0305,3.193,3.245,3.3194,3.4792,3.4513,3.4187,3.4327,3.301,3.2613,3.3937,3.4191,3.4239,3.4142,3.5245,3.588,3.5794,3.7331,3.82,3.82,3.82,3.8054,3.7756,3.7578,3.6972,3.5897,3.543,3.507,3.4788,3.432,3.4117,3.4117,3.4117,3.4252,3.4533,3.5002,3.4891,3.4357,3.409,3.3707,3.3251,3.2984,3.3096,3.3354,3.3079,3.2999,3.2875,3.2147,3.2228,3.2509,3.2149,3.2178,3.2286,3.2096,3.1806,3.1556,3.1556,3.1234,3.0947,3.1043,3.064,3.0062,2.9616,2.8881,2.814,2.753,2.6484,2.5635,2.5401,2.4666,2.4098,2.4098,2.37,2.31,2.2253,2.1696,2.1089,2.0327,2.0247,2.0247,2.0247,2.0056,1.9759,1.9324,1.8557,1.7828,1.7205,1.6107,1.5355,1.5032,1.4492,1.4186,1.4108,1.4315,1.4577,1.4872,1.4872,1.5071,2.9955,3.0721,3.1207,3.2932,3.3364,3.3353,3.3314,3.3226,3.2698,3.1009,3.0581,3.0019,2.8366,2.8089,2.8655,3.0357,3.1325,3.2484,3.4249,3.4364,3.4514,3.5227,3.448,3.4177,3.4903,3.4744,3.4544,3.4363,3.5432,3.6041,3.5874,3.7341,3.82,3.82,3.82,3.82,3.82,3.7685,3.6672,3.5216,3.4695,3.4083,3.3396,3.3362,3.3339,3.3339,3.3339,3.3761,3.4449,3.4483,3.4912,3.5464,3.4776,3.4483,3.4364,3.366,3.3389,3.3282,3.279,3.2618,3.2433,3.1446,3.1921,3.2658,3.1675,3.1743,3.204,3.1508,3.0889,3.0402,3.0402,3.0402,3.0529,3.1039,3.066,3.0304,3.0687,2.9803,2.8903,2.8749,2.7678,2.6612,2.6081,2.4986,2.4189,2.4189,2.3765,2.3236,2.2665,2.219,2.1718,2.1253,2.119,2.119,2.119,2.0722,2.0419,2.0396,1.8963,1.814,1.8215,1.6682,1.5887,1.6012,1.5151,1.4857,1.5205,1.4833,1.485,1.5232,1.525,1.5454,3.1124,3.2406,3.3475,3.3989,3.4151,3.4022,3.3375,3.2256,3.0895,2.921,2.8325,2.756,2.6521,2.729,2.8451,2.9544,3.1433,3.3156,3.427,3.4855,3.52,3.5285,3.448,3.4425,3.5742,3.5228,3.523,3.622,3.6221,3.6338,3.6677,3.7639,3.82,3.82,3.82,3.82,3.82,3.688,3.6045,3.5624,3.4302,3.3582,3.3379,3.2841,3.2571,3.2571,3.2571,3.3011,3.3728,3.4269,3.4607,3.4759,3.4573,3.4167,3.366,3.3463,3.3051,3.2635,3.3039,3.2933,3.249,3.1832,3.1826,3.1975,3.1363,3.1262,3.1278,3.0802,3.0538,3.0402,3.0402,3.0402,3.0432,3.0562,3.047,3.0341,3.035,3.0027,2.953,2.8907,2.7677,2.6533,2.5955,2.5579,2.5378,2.5378,2.4589,2.3654,2.2729,2.219,2.1718,2.1253,2.119,2.119,2.119,2.1075,2.0829,2.0435,1.9931,1.9267,1.846,1.7916,1.7184,1.6243,1.6097,1.5754,1.5205,1.5498,1.5641,1.5648,1.589,1.6068,3.256,3.3569,3.4409,3.4817,3.4105,3.3089,3.2218,3.0422,2.8472,2.679,2.6073,2.5397,2.422,2.564,2.716,2.7645,3.0423,3.2834,3.3749,3.4861,3.5518,3.5311,3.5155,3.5342,3.6126,3.6082,3.6424,3.7445,3.7116,3.6945,3.7124,3.7814,3.82,3.82,3.82,3.7952,3.742,3.6334,3.5368,3.4506,3.3433,3.2747,3.2425,3.2012,3.1809,3.1809,3.1809,3.2232,3.296,3.3366,3.3924,3.4466,3.4134,3.3964,3.3846,3.3514,3.3136,3.2841,3.3271,3.3198,3.2801,3.1982,3.1709,3.1583,3.0867,3.0677,3.0655,3.0449,3.0186,2.9956,2.9956,2.9956,2.9956,2.9956,2.9956,3.0007,3.0166,3.0144,2.9773,2.8695,2.7662,2.6818,2.6359,2.5997,2.5887,2.6164,2.5286,2.4287,2.3404,2.248,2.1718,2.1253,2.119,2.119,2.119,2.0978,2.0726,2.0423,2.0144,1.9565,1.8631,1.8514,1.7868,1.6545,1.6589,1.6319,1.5677,1.6149,1.6356,1.6296,1.6658,1.674,3.3854,3.4214,3.4331,3.5218,3.3592,3.1597,3.0837,2.8613,2.6223,2.452,2.4062,2.3473,2.1898,2.3708,2.5465,2.5582,2.8996,3.2009,3.3044,3.4538,3.5461,3.5319,3.601,3.6464,3.6363,3.7092,3.7818,3.8367,3.8086,3.7762,3.7494,3.7964,3.8242,3.82,3.82,3.7624,3.6407,3.5905,3.4722,3.288,3.2385,3.1809,3.12,3.12,3.12,3.12,3.12,3.1623,3.231,3.2412,3.3264,3.4449,3.3897,3.4072,3.4573,3.3931,3.3632,3.3548,3.3649,3.3565,3.3231,3.2299,3.1976,3.1824,3.0991,3.0656,3.0576,3.0636,3.0171,2.9645,2.9553,2.9538,2.9507,2.943,2.9338,2.939,2.9858,2.9898,2.948,2.8226,2.756,2.7113,2.6863,2.6277,2.601,2.6507,2.5723,2.4845,2.4197,2.2894,2.1824,2.1341,2.1236,2.119,2.119,2.0772,2.0515,2.0515,2.0182,1.9723,1.9122,1.9157,1.8619,1.7388,1.7372,1.7181,1.6788,1.6999,1.7103,1.7095,1.732,1.7229,3.3951,3.3726,3.343,3.4318,3.315,3.1763,3.1604,2.9057,2.6206,2.4464,2.3075,2.1841,2.0823,2.2768,2.4754,2.5473,2.8534,3.1351,3.2907,3.3993,3.4786,3.5242,3.601,3.6674,3.7141,3.7969,3.8761,3.9481,3.9063,3.8661,3.8398,3.8429,3.8368,3.8209,3.82,3.7624,3.6407,3.5393,3.4225,3.288,3.1874,3.1319,3.12,3.12,3.12,3.12,3.12,3.1623,3.2344,3.2949,3.3711,3.455,3.5036,3.5295,3.5391,3.5273,3.4833,3.4387,3.5019,3.4427,3.348,3.3872,3.3992,3.4006,3.4043,3.3341,3.2434,3.2067,3.1524,3.0933,3.0368,3.0217,3.0079,2.9538,2.8984,2.8599,2.8682,2.8321,2.7858,2.7507,2.7011,2.6581,2.6427,2.6157,2.596,2.5955,2.5423,2.4679,2.3733,2.3063,2.2427,2.1838,2.1427,2.119,2.119,2.1109,2.1063,2.1063,2.1353,2.1419,2.1191,2.1547,2.1312,2.0364,2.0347,2.0024,1.9365,1.8539,1.8139,1.8129,1.7356,1.6972,3.3862,3.3278,3.2519,3.3367,3.1994,3.0213,2.9308,0.0,0.0,2.2473,2.1534,2.0779,1.9929,2.1908,2.3801,2.4225,2.7101,3.0042,3.2189,3.3195,3.4124,3.5161,3.6412,3.7243,3.7388,3.8565,3.9459,3.9824,3.955,3.9195,3.8826,3.851,3.8297,3.8209,3.82,3.7349,3.5536,3.4967,3.3801,3.2005,3.1451,3.12,3.12,3.12,3.12,3.12,3.12,3.1403,3.1775,3.252,3.3264,3.3998,3.4731,3.5256,3.565,3.6067,3.574,3.5171,3.596,3.5487,3.4731,3.5893,3.5296,3.4091,3.3926,3.3534,3.3122,3.2928,3.266,3.2367,3.2045,3.1968,3.1784,3.112,3.072,3.0381,3.0043,2.9379,2.8707,2.8226,2.7075,2.6236,2.6436,2.5915,2.5548,2.5769,2.5358,2.4772,2.3974,2.324,2.2478,2.1624,2.1323,2.119,2.119,2.119,2.119,2.119,2.1404,2.1619,2.1795,2.2023,2.1784,2.1006,2.1006,2.0509,1.9475,1.9103,1.882,1.8608,1.8224,1.7927,3.3317,3.2585,3.1648,3.2442,3.0912,2.8783,2.723,2.4904,2.2608,2.0928,2.0483,2.0229,1.9594,2.1323,2.2965,2.3306,2.5729,2.852,3.1243,3.2307,3.3342,3.4832,3.6633,3.7652,3.7421,3.892,3.99,3.99,3.9676,3.937,3.8996,3.8473,3.82,3.82,3.8019,3.6928,3.4827,3.456,3.3387,3.131,3.1239,3.12,3.12,3.12,3.12,3.12,3.12,3.12,3.1268,3.2165,3.2892,3.348,3.4387,3.5109,3.5712,3.6361,3.6203,3.5774,3.6407,3.6209,3.5898,3.7247,3.6327,3.4659,3.4484,3.4401,3.4335,3.4267,3.4128,3.397,3.3718,3.3629,3.3429,3.2612,3.2398,3.2257,3.1734,3.0926,3.0071,2.9296,2.7668,2.6393,2.6428,2.5688,2.517,2.5406,2.512,2.4637,2.395,2.3211,2.2365,2.1315,2.119,2.119,2.119,2.119,2.119,2.119,2.1293,2.153,2.1883,2.2014,2.181,2.1223,2.1206,2.0717,1.9653,1.9654,1.949,1.9178,1.911,1.8902,3.1891,3.1279,3.0793,3.161,3.0491,2.8941,2.7993,0.0,2.3497,2.1826,2.0958,2.0476,2.0381,2.1272,2.248,2.3944,2.5106,2.6969,3.0256,3.1351,3.2397,3.3931,3.6188,3.7566,3.7411,3.892,3.99,3.99,3.9371,3.9024,3.8914,3.8451,3.82,3.82,3.7484,3.6479,3.5169,3.4129,3.2956,3.1657,3.1358,3.12,3.12,3.12,3.12,3.12,3.12,3.12,3.1319,3.2713,3.3339,3.3531,3.4951,3.5599,3.5784,3.5869,3.5912,3.5965,3.605,3.6033,3.6079,3.6763,3.7237,3.7766,3.9058,3.8656,3.7633,3.7097,3.655,3.5856,3.4697,3.4412,3.4059,3.2719,3.2398,3.2382,3.2321,3.1576,3.0734,3.01,2.8908,2.7554,2.6202,2.5632,2.5105,2.4377,2.421,2.3829,2.2874,2.2672,2.2251,2.1301,2.119,2.119,2.119,2.119,2.119,2.119,2.1606,2.1865,2.1894,2.2363,2.2502,2.2269,2.2252,2.211,2.1808,2.0928,2.0474,2.0421,1.944,1.8985,3.1474,3.117,3.0505,3.0269,2.9369,2.8018,2.6067,2.4488,2.2968,2.1276,2.069,2.0505,2.054,2.087,2.166,2.3316,0.0,2.5057,2.7952,2.9463,3.0816,3.2322,3.5116,3.7063,3.7364,3.892,3.9828,3.9605,3.9222,3.8893,3.8672,3.8362,3.82,3.82,3.7412,3.6415,3.5211,3.4067,3.302,3.2065,3.1675,3.1534,3.1617,3.1617,3.153,3.1383,3.1383,3.1383,3.146,3.2488,3.3186,3.3689,3.4761,3.5474,3.5961,3.6428,3.6335,3.6066,3.6516,3.6614,3.665,3.7342,3.8029,3.8606,3.8832,3.8603,3.8136,3.7538,3.6917,3.6334,3.5829,3.5706,3.5568,3.4999,3.486,3.4767,3.4351,3.3742,3.3005,3.2033,3.0758,2.9491,2.8426,2.7369,2.6344,2.5436,2.4741,2.4043,2.3191,2.254,2.2048,2.1655,2.138,2.119,2.119,2.119,2.119,2.119,2.1369,2.1606,2.1899,2.2106,2.2175,2.2109,2.2109,2.1927,2.157,2.1027,2.078,2.0768,2.0254,2.002,3.0336,3.0475,3.0024,2.9107,2.8313,2.7107,2.4684,2.3538,2.2524,2.0843,2.0526,2.0539,2.0596,2.0602,2.1054,0.0,0.0,2.3646,2.6491,2.7815,2.9151,3.0922,3.363,3.5679,3.6581,3.8558,3.9605,3.9187,3.899,3.8744,3.8441,3.8282,3.82,3.82,3.7412,3.6483,3.5381,3.4222,3.3237,3.2435,3.2056,3.1851,3.1849,3.1849,3.1683,3.1443,3.1414,3.1414,3.1494,3.2261,3.3011,3.3755,3.4533,3.5343,3.6109,3.6602,3.6481,3.6197,3.6964,3.7165,3.7223,3.8126,3.8724,3.9008,3.8514,3.8464,3.8337,3.7329,3.6634,3.6199,3.6199,3.6353,3.6507,3.6507,3.6507,3.6368,3.5907,3.5291,3.4532,3.3499,3.2192,3.0956,3.0049,2.8941,2.7777,2.6618,2.5669,2.4714,2.3768,2.2877,2.2279,2.2113,2.1686,2.1348,2.1206,2.119,2.119,2.119,2.119,2.1351,2.1686,2.1697,2.1697,2.1697,2.1697,2.1525,2.119,2.1063,2.1063,2.1194,2.1109,2.1139,2.8032,2.8704,2.9209,2.8324,2.7508,2.6432,2.4601,2.3575,2.2518,2.0848,2.054,2.0596,2.0604,2.0604,2.0879,2.1682,0.0,2.3008,2.6424,2.6746,2.7537,3.0017,3.1696,3.323,3.4789,3.7706,3.9266,3.8643,3.8608,3.8486,3.8225,3.82,3.82,3.82,3.7412,3.6606,3.5804,3.46,3.3588,3.2787,3.2443,3.2092,3.1695,3.1695,3.1564,3.1295,3.1222,3.1242,3.1356,3.2162,3.2944,3.3658,3.4402,3.5311,3.6193,3.6058,3.6137,3.6404,3.7226,3.7484,3.7699,3.8973,3.9387,3.9356,3.9074,3.9071,3.8771,3.6771,3.5881,3.5506,3.5506,3.5999,3.6507,3.6507,3.6507,3.6507,3.6492,3.5656,3.4717,3.41,3.2954,3.1661,3.0335,2.9931,2.9209,2.7533,2.6774,2.5854,2.4379,2.372,2.3183,2.265,2.216,2.1702,2.1237,2.119,2.119,2.119,2.119,2.119,2.1201,2.1201,2.1201,2.1201,2.1201,2.1201,2.119,2.119,2.1438,2.1883,2.1883,2.2174,2.6349,2.7038,2.739,2.5886,2.5349,2.4727,2.2951,2.241,2.1931,2.0791,2.0581,2.0584,2.0546,2.0524,2.12,2.3256,2.308,2.3463,2.5695,2.7371,2.8834,3.0084,3.3901,3.6844,3.7947,3.8721,3.8999,3.8631,3.86,3.8478,3.8207,3.82,3.82,3.82,3.7412,3.6606,3.5812,3.46,3.3606,3.2795,3.2452,3.2135,3.1832,3.2074,3.1923,3.1523,3.1765,3.1738,3.153,3.1777,3.2642,3.3833,3.4062,3.5022,3.6255,3.6176,3.6202,3.6383,3.7013,3.7557,3.802,3.8348,3.8753,3.8924,3.7823,3.7944,3.8048,3.6123,3.5207,3.4828,3.4828,3.4967,3.5245,3.5706,3.546,3.5169,3.5308,3.4709,3.3868,3.2949,3.2437,3.1896,3.1001,3.0451,2.9702,2.8376,2.7663,2.6854,2.5651,2.4707,2.4193,2.4296,2.3513,2.2644,2.1741,2.206,2.2111,2.1702,2.2362,2.261,2.2241,2.2236,2.2236,2.2236,2.2236,2.2236,2.2236,2.2236,2.23,2.2461,2.2461,2.2541,2.4557,2.5322,2.5662,2.4203,2.3887,2.3548,2.2113,2.1836,2.1616,2.0761,2.0586,2.0546,2.0501,2.0494,2.1031,2.2662,2.2729,2.3258,2.5257,2.7064,2.8854,3.0696,3.4574,3.7412,3.8142,3.8333,3.8284,3.8013,3.7726,3.7468,3.7303,3.7286,3.7286,3.7286,3.7403,3.6857,3.5591,3.497,3.4057,3.2795,3.2741,3.2487,3.2056,3.2266,3.2039,3.1504,3.1756,3.1755,0.0,3.1589,3.25,3.39,3.39,3.4881,3.629,3.6219,3.6423,3.6831,3.7464,3.8145,3.8739,3.8612,3.8331,3.7831,3.6695,3.6435,3.6267,3.4938,3.4347,3.4074,3.4074,3.429,3.4674,3.5337,3.4998,3.4586,3.4973,3.4242,3.3301,3.263,3.2197,3.1789,3.1385,3.1,3.0378,2.9285,2.8636,2.7833,2.6676,2.5737,2.5221,2.5348,2.4608,2.3834,2.3158,2.3071,2.2819,2.2247,2.2831,2.3051,2.2707,2.2702,2.2702,2.2702,2.2702,2.2702,2.2702,2.288,2.2955,2.2972,2.3369,2.3566,0.0,2.3549,2.4014,2.3148,2.292,2.2692,2.1905,2.1716,0.0,2.0741,2.0544,2.052,2.0587,2.0545,2.0578,2.083,2.1428,2.2741,2.5216,2.6359,2.8303,3.202,3.4258,3.5687,3.6171,3.6923,3.725,3.6947,3.6218,3.5804,3.5804,3.5804,3.5794,3.5812,3.7313,3.719,3.5262,3.5614,3.4814,3.2868,3.3173,3.2943,3.2231,3.2266,3.1932,3.1324,3.1353,3.1426,3.15,3.1578,3.2483,3.3831,3.3882,3.4847,3.6221,3.6212,3.676,3.7605,3.8325,3.9066,3.9646,3.9449,3.8049,3.6331,3.5667,3.4776,3.3886,3.35,3.3365,3.3336,3.3398,3.3874,3.4536,3.526,3.489,3.4522,3.5123,3.3999,3.2842,3.278,3.2001,3.1359,3.1359,3.1359,3.1033,3.0106,2.9538,2.875,2.745,2.6752,2.6279,2.5944,2.5492,2.5208,2.5198,2.4275,2.3439,2.2889,2.2919,2.2913,2.2874,2.2839,2.2805,2.2805,2.2839,2.2879,2.2942,2.3363,2.3576,2.3588,2.4555,2.4987,2.1048,0.0,2.2216,2.1398,2.1149,2.1073,0.0,2.084,2.0759,2.0559,2.0516,2.0703,2.1368,2.0955,2.1332,2.3915,2.3915,2.4462,2.6893,2.9465,3.2334,3.5685,3.6884,3.742,3.7408,3.7353,3.6978,3.6143,3.592,3.5804,3.5804,3.5804,3.5817,3.5872,3.6794,3.6788,3.5739,3.5776,3.4996,3.342,3.2886,3.2257,3.1545,3.1905,3.186,3.1551,3.1857,3.182,3.1578,3.1589,3.2174,3.311,3.3676,3.4537,3.5514,3.6023,3.676,3.7583,3.8105,3.8848,3.9391,3.8421,3.7191,3.5798,3.4527,3.3976,3.371,3.3353,3.2956,3.2752,3.3275,3.3152,3.3197,3.4443,3.3782,3.2875,3.2841,3.2108,3.126,3.0541,3.0211,3.0052,3.0052,3.0052,2.9933,2.9589,2.9434,2.9044,2.8147,2.7556,2.7192,2.7112,2.6629,2.6323,2.6329,2.5719,2.512,2.458,2.4922,2.4944,2.4472,2.4083,2.3844,2.3844,2.4254,2.4683,2.5153,2.5269,2.5312,2.5312,2.5098,2.4987,2.0502,2.1142,2.1702,2.1266,2.1112,2.1113,2.1132,2.0817,2.0499,2.0491,2.0474,2.0608,2.1061,2.1053,2.168,2.3902,2.4451,2.5714,2.8919,3.202,3.4725,3.6751,3.7446,3.769,3.7456,3.6599,3.584,3.5294,3.4906,3.4707,3.4707,3.4707,3.473,3.475,3.5499,3.583,3.5724,3.5646,3.5053,3.3914,3.2959,3.2283,3.1904,3.1967,3.1832,3.1559,3.1819,3.1802,3.1607,3.1671,3.2146,3.2896,3.3282,3.4164,3.5283,3.599,3.6982,3.8083,3.8688,3.9192,3.9432,3.8444,3.7204,3.5864,3.4413,3.3754,3.3422,3.2964,3.2614,3.2475,3.2844,3.2675,3.2673,3.3751,3.3181,3.2386,3.2332,3.1619,3.0792,3.0067,2.9758,2.9587,2.9587,2.9587,2.9571,2.9493,2.9352,2.9053,2.8509,2.8045,2.7703,2.7514,2.7232,2.7081,2.7061,2.6808,2.6298,2.5534,2.5736,2.5744,2.5441,2.5123,2.4975,2.4975,2.5264,2.5569,2.5896,2.5896,2.5896,2.5896,2.5826,2.5774,2.082,2.1523,2.2088,2.1718,2.1718,2.1777,2.1637,0.0,0.0,2.0473,2.0432,2.0464,2.0713,2.1273,2.2064,2.3174,2.4721,2.7127,3.0974,3.3782,3.5737,3.6499,3.6978,3.7146,3.6884,3.552,3.459,3.4425,3.3791,3.3393,3.3393,3.3393,3.3393,3.3408,3.419,3.4837,3.5316,3.5285,3.492,3.4211,3.3117,3.2556,3.2429,3.2118,3.1812,3.1555,3.1606,3.1626,3.1635,3.1746,3.2162,3.2748,3.2869,3.3766,3.5121,3.5852,3.718,3.8715,3.952,3.9743,3.9538,3.8626,3.7452,3.6104,3.4595,3.3751,3.3174,3.2576,3.2398,3.2413,3.2535,3.2488,3.2567,3.3244,3.289,3.2425,3.2533,3.1737,3.0866,3.0387,2.9914,2.9587,2.9587,2.9587,2.9571,2.9524,2.9273,2.8956,2.8571,2.8276,2.7947,2.754,2.749,2.749,2.749,2.749,2.7108,2.6208,2.607,2.5983,2.5896,2.5896,2.5948,2.6018,2.6018,2.607,2.6139,2.6139,2.6139,2.6156,2.6525,2.6696,2.2316,2.3308,2.3405,2.1315,2.1293,2.1617,2.0939,2.0599,2.0422,2.0423,2.0353,2.0742,2.216,2.2513,2.3318,2.5498,2.7564,2.9863,3.2587,3.3731,3.4815,3.6335,3.6544,3.6472,3.6252,3.54,3.451,3.3661,3.3465,3.3393,3.3393,3.3393,3.3422,3.3488,3.422,3.4566,3.4489,3.4635,3.4429,3.3875,3.301,3.2301,3.1765,3.1819,3.1792,3.1754,3.1755,3.1772,3.1764,3.18,3.1869,3.2024,3.2662,3.3455,3.4362,3.5104,3.6743,3.8739,3.9831,3.9947,3.9341,3.7705,3.6782,3.5964,3.4041,3.3388,3.3174,3.2576,3.2398,3.2535,3.3106,3.2829,3.2567,3.3244,3.289,3.2304,3.193,3.1395,3.0866,3.0387,2.9914,2.9587,2.9587,2.9587,2.9493,2.9226,2.9131,2.8876,2.8259,2.8128,2.7947,2.754,2.749,2.749,2.749,2.749,2.7423,2.7272,2.6833,2.6375,2.5913,2.5896,2.6104,2.6577,2.6577,2.6799,2.7255,2.7255,2.7255,2.7255,2.6867,2.6696,2.1432,2.2253,2.2615,2.1436,2.2805,2.4226,2.3395,2.3147,2.3093,2.3097,2.3052,2.3191,2.3812,2.4255,2.526,2.754,2.9894,3.1814,3.2933,3.406,3.5154,3.6219,3.5922,3.5884,3.651,3.5078,3.408,3.4052,3.3647,3.3393,3.3393,3.3393,3.3308,3.3119,3.3662,3.3736,3.3284,3.3577,3.3777,3.3831,3.2704,3.2109,3.1975,3.1856,3.18,3.18,3.18,3.18,3.18,3.18,3.18,3.1834,3.2162,3.2783,3.3689,3.5708,3.7881,3.9899,4.036,4.0167,3.9461,3.793,3.6842,3.5827,3.4133,3.3381,3.2989,3.2521,3.2659,3.2921,3.2875,3.2906,3.2921,3.2875,3.2613,3.2273,3.1795,3.1335,3.0866,3.0387,2.9914,2.9587,2.9587,2.9587,2.9493,2.9147,2.8956,2.8651,2.8161,2.7914,2.7703,2.7523,2.749,2.749,2.749,2.749,2.749,2.749,2.7272,2.7007,2.6756,2.6769,2.6871,2.7121,2.7121,2.7239,2.749,2.749,2.749,2.749,2.7239,2.7121,2.1191,2.1621,2.1999,2.2143,0.0,2.5488,2.541,2.5226,2.5217,2.583,2.5813,2.567,2.5507,2.622,2.7541,2.9731,3.1668,3.2943,3.3087,3.4326,3.5378,3.5773,3.5286,3.5298,3.6348,3.4588,3.3665,3.4273,3.3748,3.3393,3.3393,3.3393,3.3263,3.2939,3.3155,3.2975,3.2385,3.262,3.2996,3.348,3.2414,3.2001,3.2162,3.192,3.18,3.18,3.18,3.18,3.18,3.18,3.18,3.18,3.18,3.2378,3.3524,3.6432,3.8653,4.0235,4.0385,3.9931,3.9063,3.7808,3.6601,3.5358,3.4054,3.3302,3.2829,3.2496,3.2875,3.3244,3.2567,3.2782,3.3044,3.2521,3.2398,3.2273,3.1795,3.1335,3.0866,3.0387,2.9914,2.9587,2.9587,2.9587,2.9462,2.9051,2.8764,2.8441,2.8,2.7686,2.749,2.749,2.749,2.749,2.749,2.749,2.749,2.749,2.749,2.749,2.749,2.749,2.749,2.749,2.749,2.749,2.749,2.749,2.749,2.749,2.749,2.749,2.3516,2.3332,2.2917,2.3726,2.2949,0.0,2.488,2.4689,0.0,2.7049,2.7226,2.7026,2.7184,2.8336,3.0007,3.2357,3.2625,3.2809,3.3613,3.4269,3.4678,3.4709,3.4655,3.4665,3.4769,3.3936,3.3429,3.3484,3.3429,3.3393,3.3393,3.3393,3.3386,3.3356,3.3019,3.2658,3.2317,3.2091,3.209,3.231,3.2223,3.2046,3.1846,3.1818,3.18,3.18,3.18,3.18,3.18,3.18,3.18,3.18,3.18,3.2706,3.4293,3.665,3.7802,3.8353,3.9333,3.8791,3.7492,3.6319,3.5249,3.4241,3.3257,3.2944,3.2829,3.2496,3.2875,3.3244,3.2567,3.2442,3.2459,3.2398,3.2398,3.2273,3.1795,3.1335,3.0866,3.0387,2.9914,2.9587,2.9587,2.9587,2.9383,2.8732,2.8619,2.8344,2.7623,2.752,2.749,2.749,2.749,2.749,2.749,2.749,2.749,2.749,2.749,2.749,2.749,2.749,2.749,2.749,2.749,2.749,2.749,2.749,2.749,2.749,2.749,2.749,2.2356,2.2537,2.265,2.3064,2.3412,0.0,0.0,2.7058,2.8263,3.0684,3.0607,3.0045,2.9913,3.0601,3.1475,3.2359,3.2817,3.3163,3.3505,3.3738,3.4037,3.4544,3.4164,3.4255,3.525,3.4164,3.3603,3.411,3.344,3.3027,3.3027,3.283,3.2594,3.2351,3.2444,3.2266,3.1811,3.1904,3.1957,3.1938,3.1874,3.1765,3.1681,3.1755,3.18,3.18,3.18,3.18,3.18,3.18,3.18,3.18,3.18,3.2865,3.4568,3.5896,3.7238,3.8487,3.9211,3.855,3.7197,3.6143,3.4951,3.3769,3.2863,3.2578,3.2551,3.2439,3.2582,3.2721,3.2473,3.2705,3.2921,3.249,3.2398,3.2356,3.2176,3.1767,3.1292,3.0836,3.0372,2.9944,2.9649,2.9587,2.9399,2.8817,2.872,2.8463,2.7789,2.7689,2.764,2.7506,2.749,2.749,2.749,2.749,2.749,2.749,2.749,2.749,2.749,2.749,2.749,2.749,2.749,2.749,2.749,2.749,2.749,2.749,2.749,2.749,2.1498,2.17,2.2148,2.269,0.0,0.0,2.7234,2.8784,3.051,3.3081,3.2844,3.2074,3.1727,3.1994,3.2264,3.2212,3.2886,3.3393,3.3393,3.3393,3.3603,3.4172,3.3629,3.364,3.4758,3.3764,3.327,3.3834,3.3118,3.2642,3.2642,3.2418,3.217,3.1932,3.2083,3.2003,3.1671,3.1776,3.1802,3.1698,3.1626,3.1617,3.1671,3.1755,3.18,3.18,3.18,3.18,3.18,3.18,3.18,3.18,3.18,3.2804,3.4368,3.5343,3.6686,3.8115,3.8714,3.8007,3.6655,3.5659,3.4471,3.3324,3.2605,3.2398,3.2398,3.2398,3.2398,3.2398,3.2398,3.2736,3.2967,3.2505,3.2398,3.237,3.2217,3.1923,3.1552,3.1087,3.0747,3.0372,2.9898,2.982,2.9604,2.8992,2.8896,2.8656,2.7987,2.7888,2.7789,2.7523,2.749,2.749,2.749,2.749,2.749,2.749,2.749,2.749,2.749,2.749,2.749,2.749,2.749,2.749,2.749,2.749,2.749,2.749,2.749,2.749,2.1433,2.1204,2.1547,2.2941,2.3487,2.4588,2.8116,2.9324,3.0575,3.3661,3.3502,3.2705,3.2296,3.2372,3.244,3.2233,3.2868,3.3386,3.3386,3.3386,3.3386,3.3386,3.3034,3.2795,3.2795,3.2485,3.23,3.23,3.23,3.23,3.23,3.2291,3.2326,3.2394,3.2065,3.1922,3.2003,3.1671,3.1498,3.1507,3.1568,3.1681,3.18,3.18,3.18,3.18,3.18,3.18,3.18,3.18,3.18,3.18,3.18,3.2486,3.3661,3.5146,3.6162,3.6889,3.7623,3.6974,3.5635,3.4619,3.3657,3.2829,3.2509,3.2398,3.2398,3.2398,3.2398,3.2398,3.2398,3.2398,3.2398,3.2398,3.2398,3.2273,3.1795,3.171,3.1552,3.1087,3.0999,3.0851,3.0372,3.0297,3.0022,2.9226,2.9099,2.886,2.8177,2.8096,2.7947,2.754,2.749,2.749,2.749,2.749,2.749,2.749,2.749,2.749,2.749,2.749,2.749,2.749,2.749,2.749,2.749,2.749,2.749,2.749,2.749,2.749,2.0752,2.1463,2.2731,2.3248,2.5468,2.7957,2.9531,3.0008,3.08,3.3239,3.402,3.4014,3.3205,3.3082,3.3013,3.2686,3.2819,3.2902,3.2651,3.2838,3.2894,3.2643,3.2732,3.2707,3.2468,3.2368,3.23,3.23,3.2047,3.1914,3.2012,3.1758,3.1656,3.1756,3.1662,3.1653,3.172,3.1617,3.1615,3.1707,3.1735,3.1709,3.1671,3.1755,3.18,3.18,3.18,3.18,3.18,3.18,3.1662,3.1456,3.1456,3.1675,3.2264,3.4213,3.5091,3.5507,3.6761,3.6366,3.5165,3.4307,3.3412,3.2648,3.2453,3.2398,3.2398,3.2398,3.2398,3.2398,3.2398,3.2398,3.2398,3.2398,3.2398,3.2273,3.1795,3.171,3.1552,3.1087,3.0732,3.0463,3.0312,3.0037,2.9604,2.8992,2.8896,2.8656,2.7987,2.7769,2.7636,2.7506,2.749,2.749,2.749,2.749,2.749,2.749,2.749,2.749,2.749,2.749,2.749,2.749,2.749,2.749,2.749,2.749,2.749,2.749,2.749,2.749,2.1356,2.2436,2.3919,2.4864,2.6912,2.9117,3.0729,3.1335,3.1931,3.3201,3.3909,3.4022,3.3096,3.3054,3.2975,3.2416,3.2487,3.2527,3.2334,3.2468,3.2527,3.2326,3.2334,3.2282,3.2074,3.1932,3.1868,3.1868,3.1629,3.1553,3.1656,3.143,3.138,3.1538,3.1547,3.1578,3.1681,3.1681,3.1718,3.18,3.18,3.1755,3.1681,3.1755,3.18,3.18,3.18,3.18,3.18,3.18,3.1606,3.1295,3.1191,3.1188,3.1412,3.2901,3.3729,3.4274,3.5161,3.5173,3.4643,3.3777,3.314,3.2676,3.2453,3.2398,3.2398,3.2398,3.2398,3.2398,3.2398,3.2398,3.2398,3.2398,3.2398,3.2328,3.2035,3.1979,3.1894,3.1609,3.1175,3.0807,3.0613,3.0189,2.9682,2.9119,2.8787,2.8433,2.797,2.7673,2.749,2.749,2.749,2.749,2.749,2.749,2.749,2.749,2.749,2.749,2.749,2.749,2.749,2.749,2.749,2.749,2.749,2.749,2.749,2.749,2.749,2.7637,2.2452,2.3565,2.4866,2.6968,2.7842,2.8924,3.171,3.2918,3.3426,3.3418,3.3371,3.3114,3.239,3.2527,3.2507,3.173,3.1976,3.2222,3.2205,3.2231,3.2222,3.2205,3.1905,3.1694,3.1666,3.137,3.12,3.121,3.121,3.1242,3.1315,3.1324,3.1428,3.1607,3.1617,3.1681,3.18,3.18,3.18,3.18,3.18,3.18,3.18,3.18,3.18,3.18,3.1772,3.1746,3.1746,3.1718,3.1513,3.1172,3.0914,3.0841,3.0941,3.1459,3.2283,3.3166,3.323,3.3677,3.4069,3.3154,3.2856,3.2786,3.2496,3.2398,3.2398,3.2398,3.2398,3.2398,3.2398,3.2398,3.2398,3.2398,3.2398,3.2398,3.2356,3.2342,3.2328,3.2287,3.1923,3.1495,3.1073,3.0613,3.0084,2.9477,2.8801,2.83,2.8128,2.7752,2.7523,2.749,2.749,2.749,2.749,2.749,2.749,2.749,2.749,2.749,2.749,2.749,2.749,2.749,2.749,2.749,2.749,2.749,2.749,2.749,2.7555,2.7889,2.0399,2.2187,2.4427,2.5539,2.8122,3.0807,3.2342,3.2839,3.3034,3.3341,3.3155,3.2887,3.2708,3.2527,3.2247,3.1768,3.1756,3.1749,3.1475,3.1657,3.174,3.1466,3.1582,3.1592,3.1339,3.1249,3.1213,3.1274,3.1283,3.1361,3.1532,3.1542,3.1598,3.1746,3.1755,3.1764,3.18,3.18,3.18,3.18,3.18,3.18,3.18,3.18,3.18,3.1791,3.1513,3.1418,3.1399,3.1113,3.0825,3.0491,3.0282,3.0027,2.994,3.0943,3.1647,3.2209,3.2797,3.3246,3.3474,3.2738,3.2509,3.2496,3.2425,3.2398,3.2398,3.2398,3.2398,3.2398,3.2398,3.2398,3.2398,3.2398,3.2398,3.2301,3.1923,3.1838,3.1738,3.1364,3.1219,3.1117,3.1029,3.0613,3.0038,2.9289,2.898,2.8677,2.8148,2.7901,2.766,2.7523,2.749,2.749,2.749,2.749,2.749,2.749,2.749,2.749,2.749,2.749,2.749,2.749,2.749,2.749,2.749,2.749,2.749,2.7503,2.7994,2.8285,2.0896,2.2908,2.5277,2.7543,2.9498,3.1203,3.2501,3.2674,3.2627,3.2822,3.27,3.2551,3.2551,3.2257,3.195,3.1732,3.1571,3.1399,3.122,3.1358,3.1399,3.122,3.1341,3.1389,3.122,3.12,3.122,3.1252,3.1276,3.138,3.153,3.157,3.1626,3.1699,3.1772,3.1772,3.1709,3.1772,3.18,3.18,3.18,3.1718,3.156,3.156,3.1671,3.1822,3.1292,3.1004,3.0905,3.0733,3.0387,2.9935,2.9711,2.9416,2.922,3.004,3.0668,3.1238,3.1931,3.2518,3.2859,3.2505,3.2398,3.2398,3.2398,3.2398,3.2398,3.2398,3.2398,3.2398,3.2398,3.2398,3.2398,3.2398,3.2398,3.2328,3.2092,3.2035,3.1965,3.1723,3.1306,3.0999,3.0999,3.0602,3.002,2.922,2.9328,2.9181,2.8211,2.809,2.7942,2.7546,2.749,2.749,2.749,2.749,2.749,2.749,2.749,2.749,2.749,2.749,2.749,2.749,2.749,2.749,2.749,2.749,2.765,2.7941,2.8259,2.8691,2.1469,2.3649,2.6075,2.9793,3.0667,3.0921,3.2175,3.2322,3.2188,3.2118,3.2162,3.2205,3.2205,3.1878,3.161,3.161,3.138,3.12,3.12,3.12,3.12,3.12,3.12,3.12,3.12,3.12,3.121,3.1239,3.131,3.1397,3.15,3.1568,3.1589,3.157,3.1681,3.169,3.157,3.1681,3.1754,3.1754,3.1763,3.1646,3.1395,3.1249,3.1351,3.1629,3.0902,3.0502,3.0335,3.0288,2.9962,2.9501,2.9219,2.8935,2.8754,2.9225,2.9817,3.0494,3.1166,3.1842,3.2398,3.2398,3.2398,3.2398,3.2398,3.2398,3.2398,3.2398,3.2398,3.2398,3.2398,3.2398,3.2398,3.2398,3.2398,3.2398,3.2398,3.2398,3.2384,3.2301,3.1652,3.1161,3.1264,3.1026,3.0584,2.9841,3.0146,2.9984,2.8741,2.8582,2.8342,2.7715,2.7663,2.7611,2.7503,2.749,2.749,2.749,2.749,2.749,2.749,2.749,2.749,2.749,2.749,2.749,2.749,2.749,2.7807,2.8403,2.8508,2.9104,1.8724,2.1502,2.5007,2.8018,2.9688,3.0673,3.0999,3.1445,3.1703,3.1399,3.159,3.1778,3.1778,3.1496,3.1278,3.1278,3.123,3.12,3.12,3.12,3.12,3.12,3.12,3.12,3.12,3.12,3.1269,3.145,3.1479,3.1509,3.157,3.1598,3.1578,3.1527,3.1536,3.1536,3.15,3.1536,3.1546,3.1546,3.1596,3.1684,3.1794,3.1038,3.0685,3.0651,3.0038,2.975,2.9695,2.9409,2.9232,2.914,2.8873,2.8744,2.8754,2.9225,2.9817,3.0494,3.1166,3.1842,3.2398,3.2398,3.2398,3.2398,3.2398,3.2398,3.2398,3.2398,3.2398,3.2398,3.2398,3.2398,3.2398,3.2398,3.2398,3.2398,3.2398,3.2398,3.2287,3.1866,3.1681,3.179,3.2374,3.276,3.2825,3.237,3.2037,3.1516,3.0632,2.9845,2.9079,2.8368,2.8285,2.8072,2.7529,2.749,2.749,2.749,2.749,2.749,2.749,2.749,2.749,2.749,2.749,2.749,2.749,2.749,2.7807,2.8403,2.8939,2.951,1.9427,2.1594,2.4057,2.7399,2.8525,2.9162,3.0499,3.0804,3.0876,3.1145,3.132,3.1418,3.1418,3.13,3.12,3.12,3.12,3.12,3.12,3.12,3.12,3.12,3.12,3.12,3.12,3.12,3.123,3.1334,3.1375,3.1399,3.142,3.1502,3.1492,3.1397,3.1452,3.1452,3.1397,3.1492,3.1492,3.1397,3.1228,3.1103,3.0983,3.0483,3.0385,3.0576,2.9855,2.9454,2.9319,2.9167,2.8982,2.8811,2.8689,2.883,2.9163,2.976,3.0384,3.1059,3.1734,3.215,3.2398,3.2398,3.2398,3.2398,3.2398,3.2398,3.2398,3.2398,3.2398,3.2398,3.2398,3.2398,3.2398,3.2398,3.2398,3.2398,3.2398,3.2398,3.2259,3.1781,3.148,3.1264,3.1113,3.1603,3.174,3.1011,3.1416,3.1453,3.0418,2.9758,2.9127,2.8468,2.8098,2.7781,2.7516,2.749,2.749,2.749,2.749,2.749,2.749,2.749,2.749,2.749,2.749,2.749,2.749,2.749,2.7977,2.8913,2.9174,2.983,1.9889,2.1428,2.2808,2.6317,2.7317,2.7908,2.9729,3.0135,3.0272,3.0823,3.1075,3.12,3.12,3.12,3.12,3.12,3.12,3.12,3.12,3.12,3.12,3.12,3.12,3.12,3.12,3.12,3.121,3.1213,3.1274,3.1295,3.1295,3.1397,3.1404,3.1283,3.1375,3.131,3.111,3.1198,3.1247,3.1274,3.0942,3.0611,3.0282,3.0135,3.0206,3.041,2.9703,2.9275,2.9087,2.9029,2.8854,2.8621,2.8561,2.8897,2.9476,3.014,3.0815,3.1503,3.2165,3.2398,3.2398,3.2398,3.2398,3.2398,3.2398,3.2398,3.2398,3.2398,3.2398,3.2398,3.2398,3.2398,3.2398,3.2398,3.2398,3.237,3.2245,3.2315,3.2259,3.1781,3.1658,3.1457,3.1004,3.1521,3.1695,3.0857,3.1653,3.1878,3.0569,3.0029,2.9495,2.8708,2.8085,2.7729,2.7729,2.7729,2.7794,2.7951,2.7951,2.7885,2.7742,2.7872,2.7885,2.7729,2.7729,2.765,2.749,2.765,2.8268,2.9292,2.9449,3.011,1.8603,1.9851,2.0952,2.394,2.6102,2.7645,2.8208,2.9304,3.0215,3.0249,3.075,3.12,3.12,3.12,3.12,3.12,3.12,3.12,3.12,3.12,3.12,3.12,3.12,3.12,3.12,3.12,3.1239,3.1286,3.1295,3.1295,3.1295,3.1305,3.1274,3.121,3.121,3.1005,3.0549,3.0363,3.0589,3.12,3.0865,3.0562,3.0309,3.0215,3.0038,2.9735,2.9287,2.911,2.9075,2.8842,2.8708,2.8689,2.8477,2.8827,2.9476,3.014,3.0815,3.1503,3.2165,3.2398,3.2398,3.2398,3.2398,3.2398,3.2398,3.2398,3.2398,3.2398,3.2398,3.2398,3.2398,3.2398,3.2398,3.2398,3.2398,3.2287,3.1824,3.2092,3.2259,3.1781,3.2538,3.3423,3.3891,3.4531,3.4829,3.438,3.4389,3.3859,3.219,3.1468,3.0631,2.9394,2.8704,2.8351,2.8351,2.8351,2.8599,2.9174,2.9214,2.8952,2.8377,2.89,2.8939,2.8364,2.8351,2.8072,2.749,2.8072,2.8678,2.9305,2.9818,3.0411,1.7067,1.8255,1.9522,2.1394,2.348,2.5237,2.5869,2.7452,2.8924,2.9399,3.0038,3.0632,3.1116,3.12,3.12,3.12,3.12,3.12,3.12,3.12,3.12,3.12,3.12,3.12,3.12,3.12,3.121,3.1232,3.1232,3.1232,3.1232,3.1232,3.1213,3.12,3.12,3.1092,3.0828,3.063,3.0551,3.0628,3.0338,3.0152,3.0049,2.9837,2.9687,2.9554,2.9236,2.9098,2.9087,2.8994,2.883,2.8633,2.8565,2.9147,3.0063,3.0309,3.1105,3.2088,3.2319,3.2398,3.2398,3.2398,3.2398,3.2398,3.2398,3.2398,3.2398,3.2398,3.2398,3.2398,3.2398,3.2398,3.2398,3.2398,3.2721,3.2902,3.2443,3.2443,3.2724,3.337,3.3036,3.2726,3.2996,3.303,3.2858,3.2368,3.2695,3.2644,3.1713,3.1168,3.0615,2.9886,2.9301,2.8978,2.8978,2.8978,2.907,2.9279,2.8939,2.8795,2.8965,2.8808,2.8795,2.8965,2.8978,2.8678,2.8072,2.7915,2.8333,2.9305,2.9497,3.0157,1.5983,1.7036,1.8515,2.0437,2.1752,2.3065,2.4837,2.6322,2.7538,2.8288,2.933,3.03,3.082,3.1087,3.12,3.12,3.12,3.12,3.12,3.12,3.12,3.12,3.12,3.12,3.12,3.12,3.12,3.12,3.12,3.1131,3.0968,3.1105,3.1171,3.1102,3.0777,3.0689,3.0895,3.0416,3.0204,3.0262,2.993,2.9792,2.983,2.9598,2.9493,2.9481,2.9213,2.9098,2.9087,2.9006,2.883,2.8633,2.8565,2.9302,3.0402,3.0402,3.1245,3.2398,3.2398,3.2398,3.2398,3.2398,3.2398,3.2398,3.2398,3.2398,3.2398,3.2398,3.2398,3.2398,3.2398,3.2581,3.2736,3.2736,3.326,3.3757,3.3663,3.3423,3.3438,3.4132,3.3756,3.33,3.3335,3.3302,3.2999,3.217,3.2555,3.2569,3.1537,3.1091,3.0677,3.0142,2.9627,2.9371,2.9549,2.9575,2.964,2.9854,2.9488,2.9358,2.9562,2.9384,2.9371,2.9562,2.9575,2.9366,2.8974,2.8577,2.8786,2.9575,2.9776,3.0346,0.0,0.0,0.0,2.0975,2.1056,2.1359,2.5025,2.5871,2.6085,2.6874,2.8629,3.009,3.0319,3.08,3.1149,3.1166,3.12,3.12,3.12,3.12,3.12,3.12,3.1181,3.1181,3.1181,3.1181,3.1171,3.1161,3.1171,3.0985,3.0518,3.0928,3.1082,3.0881,2.993,2.9821,3.0661,2.9638,2.9475,3.0157,2.9721,2.9554,2.9686,2.9542,2.9481,2.9459,2.919,2.9075,2.9052,2.8791,2.8697,2.8677,2.8481,2.923,3.0402,3.0402,3.1245,3.2398,3.2398,3.2398,3.2398,3.2398,3.2398,3.2398,3.2398,3.2398,3.2398,3.2398,3.2398,3.2398,3.2413,3.2906,3.3413,3.3429,3.3997,3.472,3.5352,3.4998,3.4418,3.3955,3.4729,3.54,3.5202,3.569,3.564,3.4257,3.4341,3.3819,3.1855,3.1366,3.0945,3.0205,2.9653,2.9549,3.0074,3.0127,3.038,3.0966,3.0979,3.0725,3.014,3.0673,3.0712,3.014,3.0127,3.0127,3.0127,3.0087,3.0074,3.0113,3.0725,3.1005,1.6074,0.0,0.0,0.0,0.0,0.0,2.0389,2.156,2.3206,2.5042,2.5816,2.685,2.9116,2.9606,2.9891,3.0517,3.0949,3.12,3.12,3.12,3.12,3.12,3.0898,3.0699,3.0699,3.0699,3.0539,3.0204,3.0497,3.0648,3.0508,3.0621,3.0566,3.0252,2.9935,2.9816,2.9908,2.9617,2.9438,2.9407,2.9271,2.9225,2.9264,2.904,2.892,2.8908,2.8692,2.8601,2.8601,2.8677,2.8617,2.8481,2.842,2.923,3.0402,3.0402,3.1245,3.2398,3.2398,3.2398,3.2398,3.2398,3.2398,3.2398,3.2398,3.2398,3.2398,3.2398,3.2398,3.2505,3.2998,3.326,3.3537,3.4074,3.4721,3.526,3.546,3.5737,3.5799,3.5271,3.4801,3.4462,3.4413,3.3991,3.3489,3.2942,3.2942,3.2605,3.1519,3.1569,3.1457,3.0826,3.0607,3.06,3.0738,3.0751,3.0817,3.0992,3.0594,3.0471,3.0738,3.0484,3.0471,3.0751,3.0751,3.0751,3.0751,2.9915,2.9714,3.0113,3.0725,3.1005,0.0,0.0,1.8234,1.7871,0.0,0.0,1.9906,2.0554,2.164,2.3917,2.4816,2.5737,2.756,2.8587,2.9172,2.9298,2.9816,3.0444,3.1131,3.122,3.12,3.12,3.0797,3.0518,3.0576,3.0452,3.0252,3.0,3.022,3.0336,3.0214,2.9892,2.975,2.9826,2.9612,2.9489,2.9465,2.9314,2.9154,2.9013,2.8959,2.8955,2.9001,2.8791,2.8697,2.8685,2.8493,2.8411,2.8408,2.8525,2.8501,2.8427,2.8707,2.9476,3.0432,3.0707,3.149,3.2398,3.2398,3.2398,3.2398,3.2398,3.2398,3.2398,3.2398,3.2398,3.2398,3.2398,3.2398,3.2552,3.3229,3.3629,3.4044,3.4752,3.5429,3.5922,3.5922,3.6044,3.6147,3.6053,3.5528,3.509,3.509,3.4461,3.3799,3.3384,3.2978,3.2457,3.1643,3.1619,3.149,3.1043,3.1005,3.1005,3.1005,3.1005,3.1005,3.1005,3.0673,3.0634,3.0992,3.066,3.0647,3.0992,3.1005,3.1005,3.1005,3.0325,3.0163,3.0471,3.083,3.1005,0.0,0.0,0.0,1.9883,1.8879,0.0,2.1389,2.1141,2.0883,2.2985,2.4395,2.5344,2.5626,2.7276,2.8305,2.7478,2.8033,2.913,3.075,3.0956,3.0915,3.0858,3.0466,3.0247,3.0404,3.017,2.9967,2.9897,2.994,2.9854,2.9548,2.8993,2.8936,2.9477,2.9078,2.8978,2.9225,2.8838,2.872,2.8834,2.872,2.8732,2.8834,2.872,2.8677,2.8665,2.8481,2.8411,2.8411,2.8411,2.8411,2.8473,2.9138,2.9802,3.0479,3.1151,3.1826,3.2398,3.2398,3.2398,3.2398,3.2398,3.2398,3.2398,3.2398,3.2398,3.2398,3.2398,3.2398,3.2552,3.3229,3.3951,3.4674,3.5337,3.6014,3.6507,3.6507,3.6116,3.5942,3.6414,3.6352,3.6195,3.6163,3.5704,3.5139,3.4495,3.3665,3.2818,3.2005,3.1619,3.131,3.1099,3.1061,3.1061,3.1043,3.1061,3.1043,3.1005,3.1043,3.1043,3.1005,3.1043,3.1043,3.1005,3.1024,3.1024,3.1024,3.1005,3.1005,3.1005,3.1005,3.1005,0.0,0.0,2.0633,1.9027,2.0113,0.0,1.8637,1.885,1.9815,2.0842,2.0787,2.1068,2.2798,2.4034,2.4702,2.4469,2.5928,2.7541,2.8796,2.908,2.9068,2.8741,2.8426,2.8347,2.8586,2.8655,2.8495,2.8069,2.8386,2.8386,2.7891,2.8695,2.9052,2.8795,2.8716,2.8692,2.874,2.8537,2.8481,2.8505,2.8481,2.8481,2.8505,2.8481,2.8456,2.8456,2.8408,2.8411,2.8411,2.8411,2.8411,2.8473,2.9138,2.9802,3.0479,3.1151,3.1826,3.2398,3.2398,3.2398,3.2398,3.2398,3.2398,3.2398,3.2398,3.2398,3.2398,3.2398,3.2398,3.2552,3.3229,3.3951,3.4674,3.5337,3.6014,3.6507,3.6507,3.6429,3.6367,3.6476,3.5447,3.444,3.3994,3.3583,3.3241,3.3083,3.2779,3.2399,3.1963,3.1982,3.189,3.1522,3.1466,3.1429,3.1254,3.1392,3.1336,3.1024,3.1299,3.1336,3.1005,3.1317,3.1336,3.1005,3.1161,3.1235,3.1235,3.108,3.1005,3.1005,3.1005,3.1005,2.1493,2.1522,2.1547,2.0702,2.0788,0.0,0.0,1.901,1.9132,2.052,2.021,2.0103,2.1447,2.2662,2.3447,2.3413,2.4471,2.5488,2.6035,2.7513,2.8407,2.804,2.7729,2.7586,2.764,2.7622,2.7485,2.7219,2.7355,2.7433,2.7388,2.8061,2.8498,2.8609,2.8597,2.8597,2.8597,2.8468,2.8411,2.8411,2.8411,2.8411,2.8411,2.8411,2.8411,2.8411,2.8411,2.8411,2.8411,2.8411,2.8411,2.8492,2.9507,3.0094,3.0509,3.152,3.2119,3.2398,3.2398,3.2398,3.2398,3.2398,3.2398,3.2398,3.2398,3.2398,3.2398,3.2398,3.2398,3.2628,3.3689,3.4213,3.4677,3.5415,3.5857,3.5946,3.5391,3.5287,3.5211,3.4914,3.422,3.3874,3.4404,3.3897,3.3346,3.3259,3.2938,3.2561,3.2209,3.2246,3.2173,3.1882,3.1711,3.1601,3.1601,3.1416,3.1299,3.1299,3.1392,3.136,3.1161,3.1447,3.1466,3.1155,3.1142,3.1142,3.1142,3.1061,3.1005,3.1005,3.1005,3.1005,2.2921,2.2691,2.2829,2.2613,2.1614,2.0725,0.0,0.0,0.0,2.0244,2.0079,1.9815,2.0197,2.1397,2.2281,2.2075,2.2854,2.3358,2.2973,2.5427,2.7121,2.6763,2.6653,2.6614,2.6666,2.643,2.6376,2.6653,2.6321,2.6361,2.6961,2.738,2.7837,2.836,2.8523,2.8601,2.8565,2.8444,2.8411,2.8411,2.8411,2.8411,2.8411,2.8411,2.8411,2.8411,2.8411,2.8411,2.8411,2.8411,2.8488,2.8707,2.9938,3.0402,3.0555,3.1905,3.2398,3.2398,3.2398,3.2398,3.2398,3.2398,3.2398,3.2398,3.2398,3.2398,3.2398,3.2398,3.2398,3.2689,3.3951,3.429,3.4494,3.5275,3.5469,3.5238,3.4468,3.4249,3.4135,3.3886,3.37,3.396,3.5039,3.4524,3.3879,3.3725,3.3339,3.2931,3.2561,3.2525,3.2435,3.2237,3.1923,3.1772,3.1945,3.1434,3.1243,3.1522,3.1416,3.1347,3.131,3.1503,3.1522,3.1347,3.1248,3.1136,3.1061,3.1099,3.108,3.1005,3.1005,3.1005,2.5152,2.5734,2.5954,2.2583,2.3546,2.4108,1.9388,0.0,1.9601,1.8275,0.0,1.7833,1.7669,0.0,0.0,1.8037,2.0172,2.1458,2.0007,2.171,2.2942,2.2545,2.3191,2.3975,2.4729,2.4299,2.4495,2.5748,2.4666,2.441,2.5476,2.6854,2.7574,2.7538,2.8231,2.8541,2.842,2.8411,2.8411,2.8411,2.8411,2.8411,2.8411,2.8411,2.8411,2.8411,2.8411,2.8411,2.8411,2.8411,2.8753,2.9369,3.0109,3.0402,3.0555,3.1905,3.2398,3.2398,3.2398,3.2398,3.2398,3.2398,3.2398,3.2398,3.2398,3.2398,3.2398,3.2398,3.2398,3.2567,3.3336,3.3521,3.3707,3.4447,3.4632,3.4755,3.5217,3.4971,3.4933,3.5934,3.5353,3.4474,3.3698,3.3469,3.3382,3.3364,3.3294,3.3174,3.2952,3.2935,3.2846,3.265,3.2336,3.2132,3.2164,3.178,3.1485,3.1347,3.1485,3.1485,3.131,3.1503,3.159,3.1572,3.1725,3.1619,3.1272,3.1434,3.1355,3.1005,3.1005,3.1005,2.5434,2.5944,2.6133,2.3488,2.343,2.3137,1.9821,1.8869,1.8567,1.8147,0.0,0.0,0.0,0.0,0.0,0.0,1.9423,1.9948,1.9377,1.9949,2.0622,2.1158,2.1599,2.2267,2.3303,2.3517,2.3842,2.4437,2.3581,2.354,2.4766,2.5824,2.6689,2.738,2.7775,2.8099,2.8411,2.8411,2.8411,2.8411,2.8411,2.8411,2.8411,2.8411,2.8411,2.8411,2.8411,2.8411,2.8411,2.8411,2.8799,2.9476,3.014,3.0645,3.1105,3.2044,3.2398,3.2398,3.2398,3.2398,3.2398,3.2398,3.2398,3.2398,3.2398,3.2398,3.2398,3.2398,3.2398,3.2552,3.3229,3.3398,3.3603,3.4424,3.4623,3.4622,3.4632,3.4471,3.4497,3.4956,3.4707,3.4291,3.3842,3.3756,3.3667,3.3347,3.3308,3.3259,3.3174,3.3174,3.3139,3.3051,3.2624,3.2359,3.2485,3.1932,3.1669,3.1803,3.1798,3.1798,3.1822,3.1669,3.1646,3.1762,3.1725,3.1633,3.1471,3.1572,3.1503,3.1355,3.123,3.1161,2.5974,2.6336,2.6333,2.3941,2.3065,2.2163,1.9735,1.8758,1.84,1.8546,1.8604,0.0,0.0,0.0,1.9005,1.9343,0.0,1.9206,1.8724,1.8725,1.9069,1.9886,2.0511,2.1275,2.2276,2.2455,2.2767,2.3371,2.2384,2.2475,2.4151,2.4833,2.5764,2.7084,2.7358,2.7774,2.8396,2.8411,2.8411,2.8411,2.8411,2.8411,2.8411,2.8411,2.8411,2.8411,2.8411,2.8411,2.8411,2.8411,2.8892,2.971,3.0202,3.0922,3.1734,3.2213,3.2398,3.2398,3.2398,3.2398,3.2398,3.2398,3.2398,3.2398,3.2398,3.2398,3.2398,3.2398,3.2398,3.2598,3.346,3.3552,3.3666,3.4683,3.4789,3.4559,3.4255,3.4107,3.4091,3.4226,3.417,3.4087,3.4087,3.4087,3.3928,3.3382,3.3308,3.3308,3.3308,3.3308,3.3308,3.3308,3.2807,3.2561,3.2775,3.2155,3.1858,3.215,3.2096,3.2078,3.2169,3.2005,3.1913,3.195,3.1913,3.1853,3.1743,3.1785,3.1822,3.1803,3.1582,3.1421,2.7451,2.7821,2.7475,2.3438,2.3006,2.248,1.8336,1.8893,2.0062,1.9163,2.0613,2.1825,2.1127,2.1118,2.0744,1.9335,1.9759,0.0,0.0,1.7685,1.8064,1.7902,1.9617,2.1068,2.1771,2.0544,2.0622,2.2756,2.0861,2.0781,2.3472,2.4091,2.4979,2.6391,2.7057,2.7719,2.8396,2.8411,2.8411,2.8411,2.8411,2.8411,2.8411,2.8411,2.8411,2.8411,2.8411,2.8411,2.8411,2.8411,2.9184,3.0371,3.0386,3.1199,3.2367,3.2396,3.2398,3.2398,3.2398,3.2398,3.2398,3.2398,3.2398,3.2398,3.2398,3.2398,3.2398,3.2398,3.2398,3.2719,3.412,3.3936,3.3752,3.5138,3.4983,3.4542,3.465,3.4268,3.4092,3.476,3.4445,3.4087,3.4087,3.4087,3.3928,3.3382,3.3308,3.3308,3.3308,3.3308,3.3308,3.3308,3.2931,3.2775,3.297,3.2435,3.2092,3.2092,3.2273,3.2309,3.211,3.2471,3.2489,3.2092,3.2471,3.2471,3.2073,3.2273,3.2363,3.2363,3.2028,3.178,2.7707,2.8254,2.8066,2.4861,2.3927,2.288,1.9361,1.9476,1.9971,1.867,2.0503,2.1964,2.0787,2.094,2.0908,1.9867,1.9501,1.8936,0.0,1.7368,1.7457,1.7882,1.9592,2.0469,1.9815,2.0539,2.1367,2.2127,2.1415,2.1558,2.2929,2.3912,2.4807,2.5656,2.6416,2.7327,2.8396,2.8411,2.8411,2.8411,2.8411,2.8411,2.8411,2.8411,2.8411,2.8411,2.8411,2.8411,2.8411,2.8411,2.9184,3.0402,3.0402,3.1215,3.2398,3.2398,3.2398,3.2398,3.2398,3.2398,3.2398,3.2398,3.2398,3.2398,3.2398,3.2398,3.2398,3.2398,3.2398,3.2613,3.3535,3.3583,3.3752,3.5168,3.5322,3.5292,3.5783,3.5467,3.5273,3.5849,3.5236,3.4627,3.4627,3.4339,3.3928,3.3382,3.3308,3.3308,3.3308,3.3308,3.3308,3.3308,3.3055,3.2935,3.2988,3.2686,3.2507,3.2507,3.2561,3.2579,3.2507,3.2632,3.265,3.2507,3.2632,3.2632,3.2507,3.2579,3.2596,3.2596,3.2614,3.2449,2.8253,2.8633,2.8398,2.5906,2.4931,2.3769,2.0656,2.0803,2.1295,2.018,2.1819,2.331,2.2906,2.256,2.1987,2.0927,1.9936,1.8862,0.0,1.7141,1.7126,1.7619,1.8886,1.9561,1.9204,1.9664,2.0399,2.1362,2.0898,2.1175,2.2591,2.3555,2.4575,2.5656,2.6189,2.7095,2.8396,2.8411,2.8411,2.8411,2.8411,2.8411,2.8411,2.8411,2.8411,2.8411,2.8411,2.8411,2.8427,2.8661,2.9415,3.0417,3.0661,3.1428,3.2398,3.2398,3.2398,3.2398,3.2398,3.2398,3.2398,3.2398,3.2398,3.2398,3.2398,3.2398,3.2398,3.2398,3.2398,3.2613,3.3537,3.3797,3.4136,3.5537,3.586,3.5922,3.6166,3.5942,3.5752,3.5895,3.5366,3.4892,3.4892,3.4459,3.3928,3.3382,3.3308,3.3308,3.3308,3.3308,3.3308,3.3308,3.3174,3.3108,3.3108,3.2984,3.2913,3.2913,3.2775,3.2739,3.281,3.2739,3.2739,3.281,3.2878,3.2913,3.2913,3.2913,3.2913,3.2913,3.3037,3.2966]}]]